Wetterdaten: Montag, 10.04.2017
Datum Zeit Temp. A. Feuchte A. Luftdruck Regen Wind Richtung Richtung Sonnenschein ET UV Solar Taupunkt Windchill Windben Empfang
10.04.2017 00:00 8,1 C 82 % 1021,9 hPa 0,0 l/m 0,0 km/h (0 Bft) S-SW 198 0 min 0,000 mm 0,0 UV-I 0 W/m 5,2 C 8,1 C 0,0 km/h (0 Bft) 100,00 %
10.04.2017 00:02 8,2 C 82 % 1021,8 hPa 0,0 l/m 0,6 km/h (0 Bft) S-SW 198 0 min 0,000 mm 0,0 UV-I 0 W/m 5,3 C 8,2 C 1,6 km/h (1 Bft) 100,00 %
10.04.2017 00:04 8,2 C 82 % 1021,8 hPa 0,0 l/m 0,1 km/h (0 Bft) S-SW 198 0 min 0,000 mm 0,0 UV-I 0 W/m 5,3 C 8,2 C 1,6 km/h (1 Bft) 94,34 %
10.04.2017 00:06 8,3 C 82 % 1021,8 hPa 0,0 l/m 0,1 km/h (0 Bft) S-SW 198 0 min 0,000 mm 0,0 UV-I 0 W/m 5,4 C 8,3 C 1,6 km/h (1 Bft) 98,00 %
10.04.2017 00:08 8,2 C 81 % 1021,8 hPa 0,0 l/m 0,0 km/h (0 Bft) S-SW 198 0 min 0,000 mm 0,0 UV-I 0 W/m 5,1 C 8,2 C 0,0 km/h (0 Bft) 97,87 %
10.04.2017 00:10 8,1 C 82 % 1021,8 hPa 0,0 l/m 0,0 km/h (0 Bft) S-SW 198 0 min 0,000 mm 0,0 UV-I 0 W/m 5,2 C 8,1 C 0,0 km/h (0 Bft) 97,56 %
10.04.2017 00:12 7,9 C 83 % 1021,8 hPa 0,0 l/m 0,0 km/h (0 Bft) S-SW 198 0 min 0,000 mm 0,0 UV-I 0 W/m 5,2 C 7,9 C 0,0 km/h (0 Bft) 98,00 %
10.04.2017 00:14 8,0 C 83 % 1021,8 hPa 0,0 l/m 0,0 km/h (0 Bft) S-SW 198 0 min 0,000 mm 0,0 UV-I 0 W/m 5,3 C 8,0 C 0,0 km/h (0 Bft) 98,11 %
10.04.2017 00:16 8,2 C 82 % 1021,8 hPa 0,0 l/m 0,0 km/h (0 Bft) S-SW 198 0 min 0,000 mm 0,0 UV-I 0 W/m 5,3 C 8,2 C 0,0 km/h (0 Bft) 94,74 %
10.04.2017 00:18 8,2 C 82 % 1021,8 hPa 0,0 l/m 0,0 km/h (0 Bft) S-SW 198 0 min 0,000 mm 0,0 UV-I 0 W/m 5,3 C 8,2 C 0,0 km/h (0 Bft) 100,00 %
10.04.2017 00:20 8,2 C 82 % 1021,8 hPa 0,0 l/m 0,0 km/h (0 Bft) S-SW 198 0 min 0,000 mm 0,0 UV-I 0 W/m 5,3 C 8,2 C 0,0 km/h (0 Bft) 100,00 %
10.04.2017 00:22 8,1 C 82 % 1021,8 hPa 0,0 l/m 0,0 km/h (0 Bft) S-SW 198 0 min 0,000 mm 0,0 UV-I 0 W/m 5,2 C 8,1 C 0,0 km/h (0 Bft) 97,37 %
10.04.2017 00:24 7,9 C 82 % 1021,8 hPa 0,0 l/m 0,0 km/h (0 Bft) S-SW 198 0 min 0,000 mm 0,0 UV-I 0 W/m 5,0 C 7,9 C 0,0 km/h (0 Bft) 100,00 %
10.04.2017 00:26 7,7 C 84 % 1021,8 hPa 0,0 l/m 0,0 km/h (0 Bft) S-SW 198 0 min 0,000 mm 0,0 UV-I 0 W/m 5,2 C 7,7 C 0,0 km/h (0 Bft) 98,46 %
10.04.2017 00:28 7,6 C 84 % 1021,8 hPa 0,0 l/m 1,1 km/h (1 Bft) S-SW 198 0 min 0,000 mm 0,0 UV-I 0 W/m 5,1 C 7,6 C 1,6 km/h (1 Bft) 100,00 %
10.04.2017 00:30 7,4 C 85 % 1021,7 hPa 0,0 l/m 0,1 km/h (0 Bft) S-SW 198 0 min 0,000 mm 0,0 UV-I 0 W/m 5,0 C 7,4 C 1,6 km/h (1 Bft) 100,00 %
10.04.2017 00:32 7,4 C 85 % 1021,8 hPa 0,0 l/m 0,1 km/h (0 Bft) S-SW 198 0 min 0,000 mm 0,0 UV-I 0 W/m 5,0 C 7,4 C 1,6 km/h (1 Bft) 100,00 %
10.04.2017 00:34 7,3 C 85 % 1021,7 hPa 0,0 l/m 0,0 km/h (0 Bft) S-SW 198 0 min 0,000 mm 0,0 UV-I 0 W/m 4,9 C 7,3 C 1,6 km/h (1 Bft) 98,00 %
10.04.2017 00:36 7,3 C 85 % 1021,7 hPa 0,0 l/m 0,0 km/h (0 Bft) S-SW 198 0 min 0,000 mm 0,0 UV-I 0 W/m 4,9 C 7,3 C 1,6 km/h (1 Bft) 98,00 %
10.04.2017 00:38 7,2 C 86 % 1021,7 hPa 0,0 l/m 0,0 km/h (0 Bft) S-SW 198 0 min 0,000 mm 0,0 UV-I 0 W/m 5,0 C 7,2 C 1,6 km/h (1 Bft) 100,00 %
10.04.2017 00:40 7,2 C 86 % 1021,7 hPa 0,0 l/m 0,1 km/h (0 Bft) S-SW 198 0 min 0,000 mm 0,0 UV-I 0 W/m 5,0 C 7,2 C 1,6 km/h (1 Bft) 95,74 %
10.04.2017 00:42 7,1 C 87 % 1021,7 hPa 0,0 l/m 0,1 km/h (0 Bft) S-SW 198 0 min 0,000 mm 0,0 UV-I 0 W/m 5,1 C 7,1 C 1,6 km/h (1 Bft) 94,34 %
10.04.2017 00:44 7,1 C 87 % 1021,7 hPa 0,0 l/m 0,1 km/h (0 Bft) S-SW 198 0 min 0,000 mm 0,0 UV-I 0 W/m 5,1 C 7,1 C 1,6 km/h (1 Bft) 97,37 %
10.04.2017 00:46 7,1 C 87 % 1021,7 hPa 0,0 l/m 0,0 km/h (0 Bft) S-SW 198 0 min 0,000 mm 0,0 UV-I 0 W/m 5,1 C 7,1 C 1,6 km/h (1 Bft) 94,00 %
10.04.2017 00:48 7,1 C 88 % 1021,7 hPa 0,0 l/m 0,4 km/h (0 Bft) S-SW 198 0 min 0,000 mm 0,0 UV-I 0 W/m 5,2 C 7,1 C 1,6 km/h (1 Bft) 96,00 %
10.04.2017 00:50 7,1 C 87 % 1021,7 hPa 0,0 l/m 0,8 km/h (0 Bft) S-SW 198 0 min 0,000 mm 0,0 UV-I 0 W/m 5,1 C 7,1 C 1,6 km/h (1 Bft) 95,74 %
10.04.2017 00:52 7,1 C 87 % 1021,7 hPa 0,0 l/m 0,3 km/h (0 Bft) S-SW 198 0 min 0,000 mm 0,0 UV-I 0 W/m 5,1 C 7,1 C 1,6 km/h (1 Bft) 95,74 %
10.04.2017 00:54 7,1 C 87 % 1021,7 hPa 0,0 l/m 0,0 km/h (0 Bft) S-SW 198 0 min 0,000 mm 0,0 UV-I 0 W/m 5,1 C 7,1 C 0,0 km/h (0 Bft) 95,74 %
10.04.2017 00:56 7,2 C 87 % 1021,7 hPa 0,0 l/m 0,3 km/h (0 Bft) S-SW 198 0 min 0,000 mm 0,0 UV-I 0 W/m 5,2 C 7,2 C 3,2 km/h (1 Bft) 96,00 %
10.04.2017 00:58 7,2 C 87 % 1021,7 hPa 0,0 l/m 1,3 km/h (1 Bft) S-SW 198 0 min 0,000 mm 0,0 UV-I 0 W/m 5,2 C 7,2 C 1,6 km/h (1 Bft) 97,73 %
10.04.2017 01:00 7,2 C 87 % 1021,7 hPa 0,0 l/m 0,0 km/h (0 Bft) S-SW 198 0 min 0,000 mm 0,0 UV-I 0 W/m 5,2 C 7,2 C 1,6 km/h (1 Bft) 95,74 %
10.04.2017 01:02 7,1 C 87 % 1021,7 hPa 0,0 l/m 0,0 km/h (0 Bft) S-SW 198 0 min 0,000 mm 0,0 UV-I 0 W/m 5,1 C 7,1 C 0,0 km/h (0 Bft) 95,12 %
10.04.2017 01:04 7,1 C 87 % 1021,6 hPa 0,0 l/m 0,1 km/h (0 Bft) S-SW 198 0 min 0,000 mm 0,0 UV-I 0 W/m 5,1 C 7,1 C 1,6 km/h (1 Bft) 94,29 %
10.04.2017 01:06 7,0 C 87 % 1021,7 hPa 0,0 l/m 1,7 km/h (1 Bft) S-SW 198 0 min 0,000 mm 0,0 UV-I 0 W/m 5,0 C 7,0 C 3,2 km/h (1 Bft) 96,92 %
10.04.2017 01:08 6,9 C 87 % 1021,6 hPa 0,0 l/m 0,1 km/h (0 Bft) S-SW 198 0 min 0,000 mm 0,0 UV-I 0 W/m 4,9 C 6,9 C 1,6 km/h (1 Bft) 97,87 %
10.04.2017 01:10 6,8 C 88 % 1021,6 hPa 0,0 l/m 0,0 km/h (0 Bft) S-SW 198 0 min 0,000 mm 0,0 UV-I 0 W/m 5,0 C 6,8 C 0,0 km/h (0 Bft) 97,56 %
10.04.2017 01:12 6,8 C 88 % 1021,6 hPa 0,0 l/m 0,0 km/h (0 Bft) S-SW 198 0 min 0,000 mm 0,0 UV-I 0 W/m 5,0 C 6,8 C 0,0 km/h (0 Bft) 95,45 %
10.04.2017 01:14 6,8 C 88 % 1021,6 hPa 0,0 l/m 0,0 km/h (0 Bft) S-SW 198 0 min 0,000 mm 0,0 UV-I 0 W/m 5,0 C 6,8 C 0,0 km/h (0 Bft) 98,00 %
10.04.2017 01:16 6,8 C 89 % 1021,6 hPa 0,0 l/m 0,0 km/h (0 Bft) S-SW 198 0 min 0,000 mm 0,0 UV-I 0 W/m 5,1 C 6,8 C 0,0 km/h (0 Bft) 95,74 %
10.04.2017 01:18 6,8 C 89 % 1021,6 hPa 0,0 l/m 0,0 km/h (0 Bft) S-SW 198 0 min 0,000 mm 0,0 UV-I 0 W/m 5,1 C 6,8 C 0,0 km/h (0 Bft) 96,00 %
10.04.2017 01:20 6,8 C 89 % 1021,6 hPa 0,0 l/m 0,0 km/h (0 Bft) S-SW 198 0 min 0,000 mm 0,0 UV-I 0 W/m 5,1 C 6,8 C 0,0 km/h (0 Bft) 97,92 %
10.04.2017 01:22 6,8 C 89 % 1021,6 hPa 0,0 l/m 0,0 km/h (0 Bft) S-SW 198 0 min 0,000 mm 0,0 UV-I 0 W/m 5,1 C 6,8 C 0,0 km/h (0 Bft) 97,87 %
10.04.2017 01:24 6,8 C 89 % 1021,6 hPa 0,0 l/m 0,1 km/h (0 Bft) S-SW 198 0 min 0,000 mm 0,0 UV-I 0 W/m 5,1 C 6,8 C 1,6 km/h (1 Bft) 100,00 %
10.04.2017 01:26 6,8 C 89 % 1021,6 hPa 0,0 l/m 2,4 km/h (1 Bft) S-SW 198 0 min 0,000 mm 0,0 UV-I 0 W/m 5,1 C 6,8 C 3,2 km/h (1 Bft) 97,37 %
10.04.2017 01:28 6,8 C 89 % 1021,6 hPa 0,0 l/m 2,7 km/h (1 Bft) S-SW 198 0 min 0,000 mm 0,0 UV-I 0 W/m 5,1 C 6,8 C 3,2 km/h (1 Bft) 98,11 %
10.04.2017 01:30 6,8 C 89 % 1021,5 hPa 0,0 l/m 1,8 km/h (1 Bft) S-SW 198 0 min 0,000 mm 0,0 UV-I 0 W/m 5,1 C 6,8 C 3,2 km/h (1 Bft) 100,00 %
10.04.2017 01:32 6,7 C 88 % 1021,5 hPa 0,0 l/m 0,3 km/h (0 Bft) S-SW 198 0 min 0,000 mm 0,0 UV-I 0 W/m 4,9 C 6,7 C 1,6 km/h (1 Bft) 100,00 %
10.04.2017 01:34 6,6 C 88 % 1021,5 hPa 0,0 l/m 0,0 km/h (0 Bft) S-SW 198 0 min 0,000 mm 0,0 UV-I 0 W/m 4,8 C 6,6 C 0,0 km/h (0 Bft) 100,00 %
10.04.2017 01:36 6,4 C 89 % 1021,5 hPa 0,0 l/m 0,0 km/h (0 Bft) S-SW 198 0 min 0,000 mm 0,0 UV-I 0 W/m 4,7 C 6,4 C 1,6 km/h (1 Bft) 98,31 %
10.04.2017 01:38 6,4 C 90 % 1021,5 hPa 0,0 l/m 1,6 km/h (1 Bft) S-SW 198 0 min 0,000 mm 0,0 UV-I 0 W/m 4,9 C 6,4 C 3,2 km/h (1 Bft) 100,00 %
10.04.2017 01:40 6,5 C 90 % 1021,6 hPa 0,0 l/m 0,2 km/h (0 Bft) S-SW 198 0 min 0,000 mm 0,0 UV-I 0 W/m 5,0 C 6,5 C 1,6 km/h (1 Bft) 98,00 %
10.04.2017 01:42 6,4 C 89 % 1021,5 hPa 0,0 l/m 0,0 km/h (0 Bft) S-SW 198 0 min 0,000 mm 0,0 UV-I 0 W/m 4,7 C 6,4 C 0,0 km/h (0 Bft) 100,00 %
10.04.2017 01:44 6,4 C 90 % 1021,5 hPa 0,0 l/m 0,3 km/h (0 Bft) S-SW 198 0 min 0,000 mm 0,0 UV-I 0 W/m 4,9 C 6,4 C 1,6 km/h (1 Bft) 97,37 %
10.04.2017 01:46 6,3 C 89 % 1021,5 hPa 0,0 l/m 0,9 km/h (0 Bft) S-SW 198 0 min 0,000 mm 0,0 UV-I 0 W/m 4,6 C 6,3 C 1,6 km/h (1 Bft) 98,00 %
10.04.2017 01:48 6,1 C 89 % 1021,4 hPa 0,0 l/m 0,2 km/h (0 Bft) S-SW 198 0 min 0,000 mm 0,0 UV-I 0 W/m 4,4 C 6,1 C 1,6 km/h (1 Bft) 98,00 %
10.04.2017 01:50 6,1 C 90 % 1021,4 hPa 0,0 l/m 0,3 km/h (0 Bft) S-SW 198 0 min 0,000 mm 0,0 UV-I 0 W/m 4,6 C 6,1 C 1,6 km/h (1 Bft) 100,00 %
10.04.2017 01:52 6,1 C 90 % 1021,4 hPa 0,0 l/m 1,8 km/h (1 Bft) S-SW 198 0 min 0,000 mm 0,0 UV-I 0 W/m 4,6 C 6,1 C 3,2 km/h (1 Bft) 98,00 %
10.04.2017 01:54 6,1 C 91 % 1021,4 hPa 0,0 l/m 2,1 km/h (1 Bft) S-SW 198 0 min 0,000 mm 0,0 UV-I 0 W/m 4,7 C 6,1 C 3,2 km/h (1 Bft) 97,62 %
10.04.2017 01:56 6,1 C 91 % 1021,3 hPa 0,0 l/m 3,1 km/h (1 Bft) S-SW 198 0 min 0,000 mm 0,0 UV-I 0 W/m 4,7 C 6,1 C 3,2 km/h (1 Bft) 100,00 %
10.04.2017 01:58 6,1 C 91 % 1021,4 hPa 0,0 l/m 2,4 km/h (1 Bft) S-SW 198 0 min 0,000 mm 0,0 UV-I 0 W/m 4,7 C 6,1 C 4,8 km/h (1 Bft) 100,00 %
10.04.2017 02:00 6,1 C 92 % 1021,3 hPa 0,0 l/m 0,0 km/h (0 Bft) S-SW 198 0 min 0,000 mm 0,0 UV-I 0 W/m 4,9 C 6,1 C 0,0 km/h (0 Bft) 98,00 %
10.04.2017 02:02 6,2 C 92 % 1021,3 hPa 0,0 l/m 0,0 km/h (0 Bft) S-SW 198 0 min 0,000 mm 0,0 UV-I 0 W/m 5,0 C 6,2 C 1,6 km/h (1 Bft) 97,87 %
10.04.2017 02:04 6,3 C 92 % 1021,3 hPa 0,0 l/m 0,0 km/h (0 Bft) S-SW 198 0 min 0,000 mm 0,0 UV-I 0 W/m 5,1 C 6,3 C 0,0 km/h (0 Bft) 97,22 %
10.04.2017 02:06 6,3 C 91 % 1021,2 hPa 0,0 l/m 0,0 km/h (0 Bft) S-SW 198 0 min 0,000 mm 0,0 UV-I 0 W/m 4,9 C 6,3 C 0,0 km/h (0 Bft) 98,11 %
10.04.2017 02:08 6,3 C 91 % 1021,2 hPa 0,0 l/m 0,1 km/h (0 Bft) S-SW 198 0 min 0,000 mm 0,0 UV-I 0 W/m 4,9 C 6,3 C 1,6 km/h (1 Bft) 100,00 %
10.04.2017 02:10 6,2 C 91 % 1021,2 hPa 0,0 l/m 0,8 km/h (0 Bft) S-SW 198 0 min 0,000 mm 0,0 UV-I 0 W/m 4,8 C 6,2 C 1,6 km/h (1 Bft) 98,11 %
10.04.2017 02:12 6,2 C 90 % 1021,1 hPa 0,0 l/m 0,3 km/h (0 Bft) S-SW 198 0 min 0,000 mm 0,0 UV-I 0 W/m 4,7 C 6,2 C 1,6 km/h (1 Bft) 100,00 %
10.04.2017 02:14 6,2 C 91 % 1021,2 hPa 0,0 l/m 1,3 km/h (1 Bft) S-SW 198 0 min 0,000 mm 0,0 UV-I 0 W/m 4,8 C 6,2 C 3,2 km/h (1 Bft) 97,73 %
10.04.2017 02:16 6,2 C 91 % 1021,2 hPa 0,0 l/m 0,5 km/h (0 Bft) S-SW 198 0 min 0,000 mm 0,0 UV-I 0 W/m 4,8 C 6,2 C 1,6 km/h (1 Bft) 94,00 %
10.04.2017 02:18 6,1 C 91 % 1021,1 hPa 0,0 l/m 0,1 km/h (0 Bft) S-SW 198 0 min 0,000 mm 0,0 UV-I 0 W/m 4,7 C 6,1 C 1,6 km/h (1 Bft) 98,00 %
10.04.2017 02:20 6,1 C 91 % 1021,1 hPa 0,0 l/m 1,6 km/h (1 Bft) S-SW 198 0 min 0,000 mm 0,0 UV-I 0 W/m 4,7 C 6,1 C 3,2 km/h (1 Bft) 97,56 %
10.04.2017 02:22 6,1 C 91 % 1021,1 hPa 0,0 l/m 1,3 km/h (1 Bft) S-SW 198 0 min 0,000 mm 0,0 UV-I 0 W/m 4,7 C 6,1 C 3,2 km/h (1 Bft) 100,00 %
10.04.2017 02:24 6,1 C 91 % 1021,1 hPa 0,0 l/m 0,8 km/h (0 Bft) S-SW 198 0 min 0,000 mm 0,0 UV-I 0 W/m 4,7 C 6,1 C 1,6 km/h (1 Bft) 98,21 %
10.04.2017 02:26 6,0 C 91 % 1021,1 hPa 0,0 l/m 1,2 km/h (1 Bft) S-SW 198 0 min 0,000 mm 0,0 UV-I 0 W/m 4,6 C 6,0 C 1,6 km/h (1 Bft) 97,87 %
10.04.2017 02:28 6,1 C 91 % 1021,1 hPa 0,0 l/m 0,3 km/h (0 Bft) S-SW 198 0 min 0,000 mm 0,0 UV-I 0 W/m 4,7 C 6,1 C 1,6 km/h (1 Bft) 98,11 %
10.04.2017 02:30 6,0 C 91 % 1021,1 hPa 0,0 l/m 0,0 km/h (0 Bft) S-SW 198 0 min 0,000 mm 0,0 UV-I 0 W/m 4,6 C 6,0 C 0,0 km/h (0 Bft) 95,74 %
10.04.2017 02:32 6,0 C 91 % 1021,0 hPa 0,0 l/m 0,0 km/h (0 Bft) S-SW 198 0 min 0,000 mm 0,0 UV-I 0 W/m 4,6 C 6,0 C 0,0 km/h (0 Bft) 97,14 %
10.04.2017 02:34 6,0 C 91 % 1021,0 hPa 0,0 l/m 0,0 km/h (0 Bft) S-SW 198 0 min 0,000 mm 0,0 UV-I 0 W/m 4,6 C 6,0 C 0,0 km/h (0 Bft) 98,11 %
10.04.2017 02:36 6,0 C 91 % 1021,0 hPa 0,0 l/m 0,0 km/h (0 Bft) S-SW 198 0 min 0,000 mm 0,0 UV-I 0 W/m 4,6 C 6,0 C 1,6 km/h (1 Bft) 96,00 %
10.04.2017 02:38 6,0 C 91 % 1021,0 hPa 0,0 l/m 0,0 km/h (0 Bft) S-SW 198 0 min 0,000 mm 0,0 UV-I 0 W/m 4,6 C 6,0 C 0,0 km/h (0 Bft) 97,44 %
10.04.2017 02:40 6,0 C 91 % 1021,0 hPa 0,0 l/m 2,8 km/h (1 Bft) S-SW 198 0 min 0,000 mm 0,0 UV-I 0 W/m 4,6 C 6,0 C 4,8 km/h (1 Bft) 95,74 %
10.04.2017 02:42 6,1 C 91 % 1021,0 hPa 0,0 l/m 3,3 km/h (1 Bft) S-SW 198 0 min 0,000 mm 0,0 UV-I 0 W/m 4,7 C 6,1 C 4,8 km/h (1 Bft) 96,23 %
10.04.2017 02:44 6,0 C 91 % 1021,0 hPa 0,0 l/m 2,4 km/h (1 Bft) S-SW 198 0 min 0,000 mm 0,0 UV-I 0 W/m 4,6 C 6,0 C 3,2 km/h (1 Bft) 95,74 %
10.04.2017 02:46 5,9 C 91 % 1020,9 hPa 0,0 l/m 3,2 km/h (1 Bft) S-SW 198 0 min 0,000 mm 0,0 UV-I 0 W/m 4,5 C 5,9 C 4,8 km/h (1 Bft) 97,56 %
10.04.2017 02:48 5,9 C 92 % 1020,9 hPa 0,0 l/m 3,3 km/h (1 Bft) S-SW 198 0 min 0,000 mm 0,0 UV-I 0 W/m 4,7 C 5,9 C 4,8 km/h (1 Bft) 94,34 %
10.04.2017 02:50 5,8 C 91 % 1020,9 hPa 0,0 l/m 2,7 km/h (1 Bft) S-SW 198 0 min 0,000 mm 0,0 UV-I 0 W/m 4,4 C 5,8 C 3,2 km/h (1 Bft) 96,00 %
10.04.2017 02:52 5,8 C 92 % 1020,9 hPa 0,0 l/m 2,7 km/h (1 Bft) S-SW 198 0 min 0,000 mm 0,0 UV-I 0 W/m 4,6 C 5,8 C 4,8 km/h (1 Bft) 97,37 %
10.04.2017 02:54 5,8 C 92 % 1020,8 hPa 0,0 l/m 2,7 km/h (1 Bft) S-SW 198 0 min 0,000 mm 0,0 UV-I 0 W/m 4,6 C 5,8 C 3,2 km/h (1 Bft) 98,21 %
10.04.2017 02:56 5,8 C 92 % 1020,8 hPa 0,0 l/m 3,1 km/h (1 Bft) S-SW 198 0 min 0,000 mm 0,0 UV-I 0 W/m 4,6 C 5,8 C 4,8 km/h (1 Bft) 92,68 %
10.04.2017 02:58 5,9 C 92 % 1020,8 hPa 0,0 l/m 2,0 km/h (1 Bft) S-SW 198 0 min 0,000 mm 0,0 UV-I 0 W/m 4,7 C 5,9 C 3,2 km/h (1 Bft) 93,62 %
10.04.2017 03:00 5,9 C 92 % 1020,8 hPa 0,0 l/m 0,8 km/h (0 Bft) S-SW 198 0 min 0,000 mm 0,0 UV-I 0 W/m 4,7 C 5,9 C 3,2 km/h (1 Bft) 92,00 %
10.04.2017 03:02 5,9 C 92 % 1020,9 hPa 0,0 l/m 0,0 km/h (0 Bft) S-SW 198 0 min 0,000 mm 0,0 UV-I 0 W/m 4,7 C 5,9 C 0,0 km/h (0 Bft) 93,62 %
10.04.2017 03:04 6,0 C 92 % 1020,8 hPa 0,0 l/m 0,4 km/h (0 Bft) S-SW 198 0 min 0,000 mm 0,0 UV-I 0 W/m 4,8 C 6,0 C 3,2 km/h (1 Bft) 88,57 %
10.04.2017 03:06 6,1 C 92 % 1020,8 hPa 0,0 l/m 2,0 km/h (1 Bft) S-SW 198 0 min 0,000 mm 0,0 UV-I 0 W/m 4,9 C 6,1 C 3,2 km/h (1 Bft) 94,34 %
10.04.2017 03:08 6,0 C 92 % 1020,8 hPa 0,0 l/m 0,6 km/h (0 Bft) S-SW 198 0 min 0,000 mm 0,0 UV-I 0 W/m 4,8 C 6,0 C 1,6 km/h (1 Bft) 94,00 %
10.04.2017 03:10 6,0 C 92 % 1020,8 hPa 0,0 l/m 0,0 km/h (0 Bft) S-SW 198 0 min 0,000 mm 0,0 UV-I 0 W/m 4,8 C 6,0 C 0,0 km/h (0 Bft) 91,49 %
10.04.2017 03:12 5,9 C 91 % 1020,8 hPa 0,0 l/m 0,0 km/h (0 Bft) S-SW 198 0 min 0,000 mm 0,0 UV-I 0 W/m 4,5 C 5,9 C 0,0 km/h (0 Bft) 92,00 %
10.04.2017 03:14 5,8 C 91 % 1020,8 hPa 0,0 l/m 0,0 km/h (0 Bft) S-SW 198 0 min 0,000 mm 0,0 UV-I 0 W/m 4,4 C 5,8 C 0,0 km/h (0 Bft) 95,74 %
10.04.2017 03:16 5,7 C 92 % 1020,8 hPa 0,0 l/m 0,0 km/h (0 Bft) S-SW 198 0 min 0,000 mm 0,0 UV-I 0 W/m 4,5 C 5,7 C 0,0 km/h (0 Bft) 91,49 %
10.04.2017 03:18 5,8 C 92 % 1020,8 hPa 0,0 l/m 0,2 km/h (0 Bft) S-SW 198 0 min 0,000 mm 0,0 UV-I 0 W/m 4,6 C 5,8 C 1,6 km/h (1 Bft) 93,62 %
10.04.2017 03:20 5,8 C 92 % 1020,8 hPa 0,0 l/m 1,2 km/h (1 Bft) S-SW 198 0 min 0,000 mm 0,0 UV-I 0 W/m 4,6 C 5,8 C 1,6 km/h (1 Bft) 89,74 %
10.04.2017 03:22 5,8 C 92 % 1020,8 hPa 0,0 l/m 2,2 km/h (1 Bft) S-SW 198 0 min 0,000 mm 0,0 UV-I 0 W/m 4,6 C 5,8 C 3,2 km/h (1 Bft) 94,34 %
10.04.2017 03:24 5,8 C 92 % 1020,8 hPa 0,0 l/m 1,9 km/h (1 Bft) S-SW 198 0 min 0,000 mm 0,0 UV-I 0 W/m 4,6 C 5,8 C 3,2 km/h (1 Bft) 95,12 %
10.04.2017 03:26 5,8 C 92 % 1020,8 hPa 0,0 l/m 2,7 km/h (1 Bft) S-SW 198 0 min 0,000 mm 0,0 UV-I 0 W/m 4,6 C 5,8 C 3,2 km/h (1 Bft) 93,62 %
10.04.2017 03:28 5,8 C 92 % 1020,7 hPa 0,0 l/m 3,2 km/h (1 Bft) S-SW 198 0 min 0,000 mm 0,0 UV-I 0 W/m 4,6 C 5,8 C 3,2 km/h (1 Bft) 95,74 %
10.04.2017 03:30 5,8 C 92 % 1020,7 hPa 0,0 l/m 3,2 km/h (1 Bft) S-SW 198 0 min 0,000 mm 0,0 UV-I 0 W/m 4,6 C 5,8 C 4,8 km/h (1 Bft) 92,45 %
10.04.2017 03:32 5,8 C 92 % 1020,7 hPa 0,0 l/m 3,0 km/h (1 Bft) S-SW 198 0 min 0,000 mm 0,0 UV-I 0 W/m 4,6 C 5,8 C 3,2 km/h (1 Bft) 92,11 %
10.04.2017 03:34 5,8 C 92 % 1020,7 hPa 0,0 l/m 3,2 km/h (1 Bft) S-SW 198 0 min 0,000 mm 0,0 UV-I 0 W/m 4,6 C 5,8 C 4,8 km/h (1 Bft) 95,74 %
10.04.2017 03:36 5,7 C 92 % 1020,7 hPa 0,0 l/m 2,9 km/h (1 Bft) S-SW 198 0 min 0,000 mm 0,0 UV-I 0 W/m 4,5 C 5,7 C 4,8 km/h (1 Bft) 92,86 %
10.04.2017 03:38 5,7 C 92 % 1020,7 hPa 0,0 l/m 3,0 km/h (1 Bft) S-SW 198 0 min 0,000 mm 0,0 UV-I 0 W/m 4,5 C 5,7 C 4,8 km/h (1 Bft) 95,74 %
10.04.2017 03:40 5,6 C 92 % 1020,7 hPa 0,0 l/m 2,2 km/h (1 Bft) S-SW 198 0 min 0,000 mm 0,0 UV-I 0 W/m 4,4 C 5,6 C 3,2 km/h (1 Bft) 100,00 %
10.04.2017 03:42 5,7 C 93 % 1020,7 hPa 0,0 l/m 1,9 km/h (1 Bft) S-SW 198 0 min 0,000 mm 0,0 UV-I 0 W/m 4,7 C 5,7 C 3,2 km/h (1 Bft) 93,62 %
10.04.2017 03:44 5,7 C 93 % 1020,7 hPa 0,0 l/m 1,9 km/h (1 Bft) S-SW 198 0 min 0,000 mm 0,0 UV-I 0 W/m 4,7 C 5,7 C 3,2 km/h (1 Bft) 100,00 %
10.04.2017 03:46 5,7 C 93 % 1020,7 hPa 0,0 l/m 1,3 km/h (1 Bft) S-SW 198 0 min 0,000 mm 0,0 UV-I 0 W/m 4,7 C 5,7 C 3,2 km/h (1 Bft) 94,74 %
10.04.2017 03:48 5,7 C 93 % 1020,6 hPa 0,0 l/m 0,0 km/h (0 Bft) S-SW 198 0 min 0,000 mm 0,0 UV-I 0 W/m 4,7 C 5,7 C 0,0 km/h (0 Bft) 96,00 %
10.04.2017 03:50 5,7 C 93 % 1020,6 hPa 0,0 l/m 0,0 km/h (0 Bft) S-SW 198 0 min 0,000 mm 0,0 UV-I 0 W/m 4,7 C 5,7 C 1,6 km/h (1 Bft) 98,00 %
10.04.2017 03:52 5,7 C 93 % 1020,7 hPa 0,0 l/m 0,1 km/h (0 Bft) S-SW 198 0 min 0,000 mm 0,0 UV-I 0 W/m 4,7 C 5,7 C 1,6 km/h (1 Bft) 100,00 %
10.04.2017 03:54 5,7 C 93 % 1020,6 hPa 0,0 l/m 0,0 km/h (0 Bft) S-SW 198 0 min 0,000 mm 0,0 UV-I 0 W/m 4,7 C 5,7 C 0,0 km/h (0 Bft) 97,87 %
10.04.2017 03:56 5,7 C 93 % 1020,6 hPa 0,0 l/m 0,0 km/h (0 Bft) S-SW 198 0 min 0,000 mm 0,0 UV-I 0 W/m 4,7 C 5,7 C 0,0 km/h (0 Bft) 95,74 %
10.04.2017 03:58 5,6 C 93 % 1020,6 hPa 0,0 l/m 0,0 km/h (0 Bft) S-SW 198 0 min 0,000 mm 0,0 UV-I 0 W/m 4,6 C 5,6 C 1,6 km/h (1 Bft) 100,00 %
10.04.2017 04:00 5,6 C 93 % 1020,6 hPa 0,0 l/m 0,0 km/h (0 Bft) S-SW 198 0 min 0,000 mm 0,0 UV-I 0 W/m 4,6 C 5,6 C 0,0 km/h (0 Bft) 97,44 %
10.04.2017 04:02 5,6 C 93 % 1020,6 hPa 0,0 l/m 0,2 km/h (0 Bft) S-SW 198 0 min 0,000 mm 0,0 UV-I 0 W/m 4,6 C 5,6 C 1,6 km/h (1 Bft) 93,55 %
10.04.2017 04:04 5,6 C 93 % 1020,6 hPa 0,0 l/m 2,8 km/h (1 Bft) S-SW 198 0 min 0,000 mm 0,0 UV-I 0 W/m 4,6 C 5,6 C 3,2 km/h (1 Bft) 98,00 %
10.04.2017 04:06 5,6 C 93 % 1020,6 hPa 0,0 l/m 3,9 km/h (1 Bft) S-SW 198 0 min 0,000 mm 0,0 UV-I 0 W/m 4,6 C 5,6 C 4,8 km/h (1 Bft) 97,56 %
10.04.2017 04:08 5,6 C 93 % 1020,6 hPa 0,0 l/m 4,3 km/h (1 Bft) S-SW 198 0 min 0,000 mm 0,0 UV-I 0 W/m 4,6 C 5,6 C 4,8 km/h (1 Bft) 98,11 %
10.04.2017 04:10 5,4 C 93 % 1020,6 hPa 0,0 l/m 3,3 km/h (1 Bft) S-SW 198 0 min 0,000 mm 0,0 UV-I 0 W/m 4,4 C 5,4 C 4,8 km/h (1 Bft) 97,87 %
10.04.2017 04:12 5,4 C 93 % 1020,5 hPa 0,0 l/m 0,1 km/h (0 Bft) S-SW 198 0 min 0,000 mm 0,0 UV-I 0 W/m 4,4 C 5,4 C 1,6 km/h (1 Bft) 100,00 %
10.04.2017 04:14 5,4 C 93 % 1020,5 hPa 0,0 l/m 0,0 km/h (0 Bft) S-SW 198 0 min 0,000 mm 0,0 UV-I 0 W/m 4,4 C 5,4 C 0,0 km/h (0 Bft) 93,62 %
10.04.2017 04:16 5,3 C 93 % 1020,5 hPa 0,0 l/m 1,6 km/h (1 Bft) S-SW 198 0 min 0,000 mm 0,0 UV-I 0 W/m 4,3 C 5,3 C 3,2 km/h (1 Bft) 100,00 %
10.04.2017 04:18 5,4 C 94 % 1020,5 hPa 0,0 l/m 2,5 km/h (1 Bft) S-SW 198 0 min 0,000 mm 0,0 UV-I 0 W/m 4,5 C 5,4 C 3,2 km/h (1 Bft) 95,12 %
10.04.2017 04:20 5,4 C 93 % 1020,5 hPa 0,0 l/m 2,4 km/h (1 Bft) S-SW 198 0 min 0,000 mm 0,0 UV-I 0 W/m 4,4 C 5,4 C 3,2 km/h (1 Bft) 96,00 %
10.04.2017 04:22 5,4 C 93 % 1020,5 hPa 0,0 l/m 1,0 km/h (0 Bft) S-SW 198 0 min 0,000 mm 0,0 UV-I 0 W/m 4,4 C 5,4 C 3,2 km/h (1 Bft) 97,14 %
10.04.2017 04:24 5,3 C 93 % 1020,5 hPa 0,0 l/m 1,6 km/h (1 Bft) S-SW 198 0 min 0,000 mm 0,0 UV-I 0 W/m 4,3 C 5,3 C 3,2 km/h (1 Bft) 96,00 %
10.04.2017 04:26 5,3 C 94 % 1020,5 hPa 0,0 l/m 2,4 km/h (1 Bft) S-SW 198 0 min 0,000 mm 0,0 UV-I 0 W/m 4,4 C 5,3 C 4,8 km/h (1 Bft) 95,74 %
10.04.2017 04:28 5,3 C 93 % 1020,5 hPa 0,0 l/m 1,2 km/h (1 Bft) S-SW 198 0 min 0,000 mm 0,0 UV-I 0 W/m 4,3 C 5,3 C 3,2 km/h (1 Bft) 96,00 %
10.04.2017 04:30 5,2 C 93 % 1020,5 hPa 0,0 l/m 0,1 km/h (0 Bft) S-SW 198 0 min 0,000 mm 0,0 UV-I 0 W/m 4,2 C 5,2 C 1,6 km/h (1 Bft) 100,00 %
10.04.2017 04:32 5,2 C 93 % 1020,5 hPa 0,0 l/m 0,1 km/h (0 Bft) S-SW 198 0 min 0,000 mm 0,0 UV-I 0 W/m 4,2 C 5,2 C 1,6 km/h (1 Bft) 96,23 %
10.04.2017 04:34 5,1 C 93 % 1020,5 hPa 0,0 l/m 0,0 km/h (0 Bft) S-SW 198 0 min 0,000 mm 0,0 UV-I 0 W/m 4,1 C 5,1 C 0,0 km/h (0 Bft) 100,00 %
10.04.2017 04:36 5,2 C 94 % 1020,5 hPa 0,0 l/m 0,8 km/h (0 Bft) S-SW 198 0 min 0,000 mm 0,0 UV-I 0 W/m 4,3 C 5,2 C 4,8 km/h (1 Bft) 96,15 %
10.04.2017 04:38 5,3 C 94 % 1020,5 hPa 0,0 l/m 3,2 km/h (1 Bft) S-SW 198 0 min 0,000 mm 0,0 UV-I 0 W/m 4,4 C 5,3 C 4,8 km/h (1 Bft) 97,62 %
10.04.2017 04:40 5,3 C 94 % 1020,5 hPa 0,0 l/m 2,0 km/h (1 Bft) S-SW 198 0 min 0,000 mm 0,0 UV-I 0 W/m 4,4 C 5,3 C 3,2 km/h (1 Bft) 100,00 %
10.04.2017 04:42 5,3 C 94 % 1020,4 hPa 0,0 l/m 1,3 km/h (1 Bft) S-SW 198 0 min 0,000 mm 0,0 UV-I 0 W/m 4,4 C 5,3 C 3,2 km/h (1 Bft) 94,00 %
10.04.2017 04:44 5,3 C 94 % 1020,4 hPa 0,0 l/m 0,8 km/h (0 Bft) S-SW 198 0 min 0,000 mm 0,0 UV-I 0 W/m 4,4 C 5,3 C 1,6 km/h (1 Bft) 100,00 %
10.04.2017 04:46 5,3 C 94 % 1020,4 hPa 0,0 l/m 1,3 km/h (1 Bft) S-SW 198 0 min 0,000 mm 0,0 UV-I 0 W/m 4,4 C 5,3 C 3,2 km/h (1 Bft) 91,30 %
10.04.2017 04:48 5,4 C 94 % 1020,4 hPa 0,0 l/m 0,0 km/h (0 Bft) S-SW 198 0 min 0,000 mm 0,0 UV-I 0 W/m 4,5 C 5,4 C 0,0 km/h (0 Bft) 98,46 %
10.04.2017 04:50 5,4 C 94 % 1020,4 hPa 0,0 l/m 0,0 km/h (0 Bft) S-SW 198 0 min 0,000 mm 0,0 UV-I 0 W/m 4,5 C 5,4 C 0,0 km/h (0 Bft) 100,00 %
10.04.2017 04:52 5,3 C 94 % 1020,3 hPa 0,0 l/m 0,0 km/h (0 Bft) S-SW 198 0 min 0,000 mm 0,0 UV-I 0 W/m 4,4 C 5,3 C 1,6 km/h (1 Bft) 97,87 %
10.04.2017 04:54 5,3 C 94 % 1020,3 hPa 0,0 l/m 0,0 km/h (0 Bft) S-SW 198 0 min 0,000 mm 0,0 UV-I 0 W/m 4,4 C 5,3 C 0,0 km/h (0 Bft) 96,00 %
10.04.2017 04:56 5,3 C 94 % 1020,3 hPa 0,0 l/m 0,7 km/h (0 Bft) S-SW 198 0 min 0,000 mm 0,0 UV-I 0 W/m 4,4 C 5,3 C 3,2 km/h (1 Bft) 96,23 %
10.04.2017 04:58 5,3 C 94 % 1020,3 hPa 0,0 l/m 0,1 km/h (0 Bft) S-SW 198 0 min 0,000 mm 0,0 UV-I 0 W/m 4,4 C 5,3 C 1,6 km/h (1 Bft) 97,87 %
10.04.2017 05:00 5,3 C 94 % 1020,3 hPa 0,0 l/m 0,0 km/h (0 Bft) S-SW 198 0 min 0,000 mm 0,0 UV-I 0 W/m 4,4 C 5,3 C 0,0 km/h (0 Bft) 95,74 %
10.04.2017 05:02 5,3 C 94 % 1020,3 hPa 0,0 l/m 0,0 km/h (0 Bft) S-SW 198 0 min 0,000 mm 0,0 UV-I 0 W/m 4,4 C 5,3 C 0,0 km/h (0 Bft) 100,00 %
10.04.2017 05:04 5,4 C 94 % 1020,3 hPa 0,0 l/m 0,0 km/h (0 Bft) S-SW 198 0 min 0,000 mm 0,0 UV-I 0 W/m 4,5 C 5,4 C 0,0 km/h (0 Bft) 97,37 %
10.04.2017 05:06 5,4 C 94 % 1020,3 hPa 0,0 l/m 0,0 km/h (0 Bft) S-SW 198 0 min 0,000 mm 0,0 UV-I 0 W/m 4,5 C 5,4 C 0,0 km/h (0 Bft) 100,00 %
10.04.2017 05:08 5,3 C 93 % 1020,3 hPa 0,0 l/m 0,0 km/h (0 Bft) S-SW 198 0 min 0,000 mm 0,0 UV-I 0 W/m 4,3 C 5,3 C 0,0 km/h (0 Bft) 97,37 %
10.04.2017 05:10 5,2 C 93 % 1020,3 hPa 0,0 l/m 0,0 km/h (0 Bft) S-SW 198 0 min 0,000 mm 0,0 UV-I 0 W/m 4,2 C 5,2 C 0,0 km/h (0 Bft) 98,00 %
10.04.2017 05:12 5,1 C 93 % 1020,2 hPa 0,0 l/m 0,0 km/h (0 Bft) S-SW 198 0 min 0,000 mm 0,0 UV-I 0 W/m 4,1 C 5,1 C 0,0 km/h (0 Bft) 97,22 %
10.04.2017 05:14 5,0 C 93 % 1020,2 hPa 0,0 l/m 0,0 km/h (0 Bft) S-SW 198 0 min 0,000 mm 0,0 UV-I 0 W/m 4,0 C 5,0 C 0,0 km/h (0 Bft) 100,00 %
10.04.2017 05:16 5,1 C 94 % 1020,3 hPa 0,0 l/m 1,9 km/h (1 Bft) S-SW 198 0 min 0,000 mm 0,0 UV-I 0 W/m 4,2 C 5,1 C 3,2 km/h (1 Bft) 100,00 %
10.04.2017 05:18 5,0 C 94 % 1020,3 hPa 0,0 l/m 2,6 km/h (1 Bft) S-SW 198 0 min 0,000 mm 0,0 UV-I 0 W/m 4,1 C 5,0 C 3,2 km/h (1 Bft) 98,11 %
10.04.2017 05:20 4,9 C 94 % 1020,3 hPa 0,0 l/m 2,1 km/h (1 Bft) S-SW 198 0 min 0,000 mm 0,0 UV-I 0 W/m 4,0 C 4,9 C 3,2 km/h (1 Bft) 97,56 %
10.04.2017 05:22 4,9 C 93 % 1020,3 hPa 0,0 l/m 1,7 km/h (1 Bft) S-SW 198 0 min 0,000 mm 0,0 UV-I 0 W/m 3,9 C 4,9 C 3,2 km/h (1 Bft) 98,11 %
10.04.2017 05:24 4,8 C 94 % 1020,3 hPa 0,0 l/m 2,7 km/h (1 Bft) S-SW 198 0 min 0,000 mm 0,0 UV-I 0 W/m 3,9 C 4,8 C 4,8 km/h (1 Bft) 95,74 %
10.04.2017 05:26 4,8 C 94 % 1020,1 hPa 0,0 l/m 2,9 km/h (1 Bft) S-SW 198 0 min 0,000 mm 0,0 UV-I 0 W/m 3,9 C 4,8 C 3,2 km/h (1 Bft) 95,12 %
10.04.2017 05:28 4,8 C 94 % 1020,1 hPa 0,0 l/m 3,1 km/h (1 Bft) S-SW 198 0 min 0,000 mm 0,0 UV-I 0 W/m 3,9 C 4,8 C 4,8 km/h (1 Bft) 97,73 %
10.04.2017 05:30 4,8 C 94 % 1020,1 hPa 0,0 l/m 2,9 km/h (1 Bft) S-SW 198 0 min 0,000 mm 0,0 UV-I 0 W/m 3,9 C 4,8 C 3,2 km/h (1 Bft) 96,00 %
10.04.2017 05:32 4,9 C 94 % 1020,1 hPa 0,0 l/m 2,8 km/h (1 Bft) S-SW 198 0 min 0,000 mm 0,0 UV-I 0 W/m 4,0 C 4,9 C 3,2 km/h (1 Bft) 96,00 %
10.04.2017 05:34 4,9 C 94 % 1020,1 hPa 0,0 l/m 1,3 km/h (1 Bft) S-SW 198 0 min 0,000 mm 0,0 UV-I 0 W/m 4,0 C 4,9 C 3,2 km/h (1 Bft) 96,00 %
10.04.2017 05:36 4,9 C 94 % 1020,1 hPa 0,0 l/m 0,0 km/h (0 Bft) S-SW 198 0 min 0,000 mm 0,0 UV-I 0 W/m 4,0 C 4,9 C 0,0 km/h (0 Bft) 97,14 %
10.04.2017 05:38 4,8 C 94 % 1020,1 hPa 0,0 l/m 0,0 km/h (0 Bft) S-SW 198 0 min 0,000 mm 0,0 UV-I 0 W/m 3,9 C 4,8 C 1,6 km/h (1 Bft) 96,00 %
10.04.2017 05:40 4,8 C 94 % 1020,0 hPa 0,0 l/m 0,0 km/h (0 Bft) S-SW 198 0 min 0,000 mm 0,0 UV-I 0 W/m 3,9 C 4,8 C 0,0 km/h (0 Bft) 93,62 %
10.04.2017 05:42 4,8 C 94 % 1020,0 hPa 0,0 l/m 0,0 km/h (0 Bft) S-SW 198 0 min 0,000 mm 0,0 UV-I 0 W/m 3,9 C 4,8 C 0,0 km/h (0 Bft) 96,00 %
10.04.2017 05:44 4,7 C 94 % 1020,0 hPa 0,0 l/m 0,7 km/h (0 Bft) S-SW 198 0 min 0,000 mm 0,0 UV-I 0 W/m 3,8 C 4,7 C 3,2 km/h (1 Bft) 95,12 %
10.04.2017 05:46 4,7 C 94 % 1020,1 hPa 0,0 l/m 1,5 km/h (1 Bft) S-SW 198 0 min 0,000 mm 0,0 UV-I 0 W/m 3,8 C 4,7 C 3,2 km/h (1 Bft) 96,23 %
10.04.2017 05:48 4,8 C 94 % 1020,1 hPa 0,0 l/m 1,0 km/h (0 Bft) S-SW 198 0 min 0,000 mm 0,0 UV-I 0 W/m 3,9 C 4,8 C 1,6 km/h (1 Bft) 93,18 %
10.04.2017 05:50 4,8 C 94 % 1020,1 hPa 0,0 l/m 0,0 km/h (0 Bft) S-SW 198 0 min 0,000 mm 0,0 UV-I 0 W/m 3,9 C 4,8 C 0,0 km/h (0 Bft) 95,74 %
10.04.2017 05:52 4,7 C 94 % 1020,1 hPa 0,0 l/m 0,0 km/h (0 Bft) S-SW 198 0 min 0,000 mm 0,0 UV-I 0 W/m 3,8 C 4,7 C 0,0 km/h (0 Bft) 96,23 %
10.04.2017 05:54 4,8 C 94 % 1020,1 hPa 0,0 l/m 0,0 km/h (0 Bft) S-SW 198 0 min 0,000 mm 0,0 UV-I 0 W/m 3,9 C 4,8 C 0,0 km/h (0 Bft) 92,31 %
10.04.2017 05:56 4,8 C 94 % 1020,1 hPa 0,0 l/m 0,0 km/h (0 Bft) S-SW 198 0 min 0,000 mm 0,0 UV-I 0 W/m 3,9 C 4,8 C 0,0 km/h (0 Bft) 98,18 %
10.04.2017 05:58 4,8 C 94 % 1020,1 hPa 0,0 l/m 0,0 km/h (0 Bft) S-SW 198 0 min 0,000 mm 0,0 UV-I 0 W/m 3,9 C 4,8 C 0,0 km/h (0 Bft) 95,83 %
10.04.2017 06:00 4,8 C 95 % 1020,1 hPa 0,0 l/m 0,0 km/h (0 Bft) S-SW 198 0 min 0,000 mm 0,0 UV-I 0 W/m 4,1 C 4,8 C 0,0 km/h (0 Bft) 100,00 %
10.04.2017 06:02 4,9 C 95 % 1020,0 hPa 0,0 l/m 0,0 km/h (0 Bft) S-SW 198 0 min 0,000 mm 0,0 UV-I 0 W/m 4,2 C 4,9 C 0,0 km/h (0 Bft) 98,21 %
10.04.2017 06:04 4,9 C 95 % 1020,1 hPa 0,0 l/m 0,0 km/h (0 Bft) S-SW 198 0 min 0,000 mm 0,0 UV-I 0 W/m 4,2 C 4,9 C 0,0 km/h (0 Bft) 100,00 %
10.04.2017 06:06 4,9 C 94 % 1020,1 hPa 0,0 l/m 0,0 km/h (0 Bft) S-SW 198 0 min 0,000 mm 0,0 UV-I 0 W/m 4,0 C 4,9 C 0,0 km/h (0 Bft) 95,74 %
10.04.2017 06:08 4,8 C 94 % 1020,1 hPa 0,0 l/m 0,0 km/h (0 Bft) S-SW 198 0 min 0,000 mm 0,0 UV-I 0 W/m 3,9 C 4,8 C 0,0 km/h (0 Bft) 96,15 %
10.04.2017 06:10 4,8 C 94 % 1020,1 hPa 0,0 l/m 0,0 km/h (0 Bft) S-SW 198 0 min 0,000 mm 0,0 UV-I 1 W/m 3,9 C 4,8 C 0,0 km/h (0 Bft) 98,46 %
10.04.2017 06:12 4,8 C 94 % 1020,0 hPa 0,0 l/m 0,0 km/h (0 Bft) S-SW 198 0 min 0,000 mm 0,0 UV-I 5 W/m 3,9 C 4,8 C 0,0 km/h (0 Bft) 97,87 %
10.04.2017 06:14 4,8 C 94 % 1020,1 hPa 0,0 l/m 0,4 km/h (0 Bft) S-SW 198 0 min 0,000 mm 0,0 UV-I 5 W/m 3,9 C 4,8 C 3,2 km/h (1 Bft) 98,21 %
10.04.2017 06:16 4,7 C 94 % 1020,0 hPa 0,0 l/m 1,8 km/h (1 Bft) S-SW 198 0 min 0,000 mm 0,0 UV-I 5 W/m 3,8 C 4,7 C 3,2 km/h (1 Bft) 97,37 %
10.04.2017 06:18 4,6 C 94 % 1020,0 hPa 0,0 l/m 1,9 km/h (1 Bft) S-SW 198 0 min 0,000 mm 0,0 UV-I 6 W/m 3,7 C 4,6 C 3,2 km/h (1 Bft) 98,00 %
10.04.2017 06:20 4,6 C 94 % 1020,0 hPa 0,0 l/m 0,4 km/h (0 Bft) S-SW 198 0 min 0,000 mm 0,0 UV-I 7 W/m 3,7 C 4,6 C 1,6 km/h (1 Bft) 97,87 %
10.04.2017 06:22 4,4 C 94 % 1020,0 hPa 0,0 l/m 0,4 km/h (0 Bft) S-SW 198 0 min 0,000 mm 0,0 UV-I 7 W/m 3,5 C 4,4 C 1,6 km/h (1 Bft) 96,08 %
10.04.2017 06:24 4,3 C 94 % 1019,9 hPa 0,0 l/m 0,5 km/h (0 Bft) S-SW 198 0 min 0,000 mm 0,0 UV-I 8 W/m 3,4 C 4,3 C 1,6 km/h (1 Bft) 95,12 %
10.04.2017 06:26 4,3 C 94 % 1019,9 hPa 0,0 l/m 0,9 km/h (0 Bft) S-SW 198 0 min 0,000 mm 0,0 UV-I 9 W/m 3,4 C 4,3 C 3,2 km/h (1 Bft) 94,00 %
10.04.2017 06:28 4,4 C 95 % 1020,0 hPa 0,0 l/m 0,4 km/h (0 Bft) S-SW 198 0 min 0,000 mm 0,0 UV-I 11 W/m 3,7 C 4,4 C 1,6 km/h (1 Bft) 94,00 %
10.04.2017 06:30 4,6 C 95 % 1020,0 hPa 0,0 l/m 0,5 km/h (0 Bft) S-SW 198 0 min 0,000 mm 0,0 UV-I 11 W/m 3,9 C 4,6 C 1,6 km/h (1 Bft) 92,31 %
10.04.2017 06:32 4,7 C 95 % 1020,0 hPa 0,0 l/m 1,0 km/h (0 Bft) S-SW 198 0 min 0,000 mm 0,0 UV-I 13 W/m 4,0 C 4,7 C 1,6 km/h (1 Bft) 94,23 %
10.04.2017 06:34 4,8 C 95 % 1020,0 hPa 0,0 l/m 0,0 km/h (0 Bft) S-SW 198 2 min 0,000 mm 0,0 UV-I 18 W/m 4,1 C 4,8 C 1,6 km/h (1 Bft) 92,00 %
10.04.2017 06:36 4,8 C 95 % 1020,0 hPa 0,0 l/m 0,0 km/h (0 Bft) S-SW 198 2 min 0,000 mm 0,0 UV-I 22 W/m 4,1 C 4,8 C 0,0 km/h (0 Bft) 90,48 %
10.04.2017 06:38 4,8 C 95 % 1019,9 hPa 0,0 l/m 0,0 km/h (0 Bft) S-SW 198 2 min 0,000 mm 0,0 UV-I 26 W/m 4,1 C 4,8 C 0,0 km/h (0 Bft) 93,62 %
10.04.2017 06:40 4,9 C 95 % 1020,0 hPa 0,0 l/m 0,7 km/h (0 Bft) S-SW 198 2 min 0,000 mm 0,0 UV-I 28 W/m 4,2 C 4,9 C 1,6 km/h (1 Bft) 95,74 %
10.04.2017 06:42 5,1 C 95 % 1020,0 hPa 0,0 l/m 1,3 km/h (1 Bft) S-SW 198 2 min 0,000 mm 0,0 UV-I 28 W/m 4,4 C 5,1 C 1,6 km/h (1 Bft) 96,23 %
10.04.2017 06:44 5,1 C 95 % 1020,0 hPa 0,0 l/m 1,8 km/h (1 Bft) S-SW 198 2 min 0,000 mm 0,0 UV-I 30 W/m 4,4 C 5,1 C 3,2 km/h (1 Bft) 97,37 %
10.04.2017 06:46 4,9 C 94 % 1019,9 hPa 0,0 l/m 1,7 km/h (1 Bft) S-SW 198 2 min 0,000 mm 0,0 UV-I 33 W/m 4,0 C 4,9 C 3,2 km/h (1 Bft) 92,45 %
10.04.2017 06:48 4,8 C 94 % 1020,0 hPa 0,0 l/m 1,1 km/h (1 Bft) S-SW 198 2 min 0,000 mm 0,0 UV-I 38 W/m 3,9 C 4,8 C 1,6 km/h (1 Bft) 96,00 %
10.04.2017 06:50 4,7 C 94 % 1020,0 hPa 0,0 l/m 0,1 km/h (0 Bft) S-SW 198 2 min 0,000 mm 0,0 UV-I 42 W/m 3,8 C 4,7 C 1,6 km/h (1 Bft) 93,10 %
10.04.2017 06:52 4,6 C 94 % 1020,0 hPa 0,0 l/m 0,0 km/h (0 Bft) S-SW 198 2 min 0,000 mm 0,0 UV-I 46 W/m 3,7 C 4,6 C 0,0 km/h (0 Bft) 96,92 %
10.04.2017 06:54 4,5 C 94 % 1020,0 hPa 0,0 l/m 0,4 km/h (0 Bft) S-SW 198 2 min 0,000 mm 0,0 UV-I 48 W/m 3,6 C 4,5 C 1,6 km/h (1 Bft) 87,80 %
10.04.2017 06:56 4,6 C 95 % 1020,0 hPa 0,0 l/m 1,0 km/h (0 Bft) S-SW 198 2 min 0,000 mm 0,0 UV-I 51 W/m 3,9 C 4,6 C 1,6 km/h (1 Bft) 86,00 %
10.04.2017 06:58 4,7 C 95 % 1020,0 hPa 0,0 l/m 0,3 km/h (0 Bft) S-SW 198 2 min 0,000 mm 0,0 UV-I 54 W/m 4,0 C 4,7 C 1,6 km/h (1 Bft) 97,14 %
10.04.2017 07:00 4,8 C 95 % 1020,0 hPa 0,0 l/m 0,6 km/h (0 Bft) S-SW 198 2 min 0,000 mm 0,0 UV-I 59 W/m 4,1 C 4,8 C 1,6 km/h (1 Bft) 96,23 %
10.04.2017 07:02 4,8 C 95 % 1020,0 hPa 0,0 l/m 1,0 km/h (0 Bft) S-SW 198 2 min 0,000 mm 0,0 UV-I 63 W/m 4,1 C 4,8 C 1,6 km/h (1 Bft) 96,23 %
10.04.2017 07:04 4,8 C 95 % 1020,0 hPa 0,0 l/m 1,7 km/h (1 Bft) S-SW 198 2 min 0,000 mm 0,0 UV-I 67 W/m 4,1 C 4,8 C 3,2 km/h (1 Bft) 97,37 %
10.04.2017 07:06 4,8 C 94 % 1020,0 hPa 0,0 l/m 0,3 km/h (0 Bft) S-SW 198 2 min 0,000 mm 0,0 UV-I 71 W/m 3,9 C 4,8 C 1,6 km/h (1 Bft) 90,00 %
10.04.2017 07:08 4,8 C 95 % 1020,0 hPa 0,0 l/m 0,4 km/h (0 Bft) S-SW 198 2 min 0,000 mm 0,0 UV-I 75 W/m 4,1 C 4,8 C 1,6 km/h (1 Bft) 93,62 %
10.04.2017 07:10 4,8 C 95 % 1019,9 hPa 0,0 l/m 0,0 km/h (0 Bft) S-SW 198 2 min 0,000 mm 0,0 UV-I 80 W/m 4,1 C 4,8 C 0,0 km/h (0 Bft) 98,00 %
10.04.2017 07:12 4,8 C 95 % 1019,9 hPa 0,0 l/m 0,0 km/h (0 Bft) S-SW 198 2 min 0,000 mm 0,0 UV-I 84 W/m 4,1 C 4,8 C 0,0 km/h (0 Bft) 97,87 %
10.04.2017 07:14 4,9 C 95 % 1019,9 hPa 0,0 l/m 0,0 km/h (0 Bft) S-SW 198 2 min 0,000 mm 0,0 UV-I 88 W/m 4,2 C 4,9 C 0,0 km/h (0 Bft) 94,87 %
10.04.2017 07:16 5,1 C 95 % 1019,8 hPa 0,0 l/m 0,0 km/h (0 Bft) S-SW 198 2 min 0,000 mm 0,0 UV-I 92 W/m 4,4 C 5,1 C 0,0 km/h (0 Bft) 92,45 %
10.04.2017 07:18 5,2 C 95 % 1019,8 hPa 0,0 l/m 0,0 km/h (0 Bft) S-SW 198 2 min 0,000 mm 0,0 UV-I 96 W/m 4,5 C 5,2 C 0,0 km/h (0 Bft) 97,73 %
10.04.2017 07:20 5,3 C 95 % 1019,8 hPa 0,0 l/m 0,0 km/h (0 Bft) S-SW 198 2 min 0,000 mm 0,0 UV-I 100 W/m 4,6 C 5,3 C 0,0 km/h (0 Bft) 91,49 %
10.04.2017 07:22 5,4 C 96 % 1019,8 hPa 0,0 l/m 0,0 km/h (0 Bft) S-SW 198 2 min 0,000 mm 0,0 UV-I 105 W/m 4,8 C 5,4 C 0,0 km/h (0 Bft) 96,00 %
10.04.2017 07:24 5,6 C 95 % 1019,8 hPa 0,0 l/m 0,0 km/h (0 Bft) S-SW 198 2 min 0,000 mm 0,0 UV-I 110 W/m 4,9 C 5,6 C 0,0 km/h (0 Bft) 97,87 %
10.04.2017 07:26 5,6 C 95 % 1019,8 hPa 0,0 l/m 0,4 km/h (0 Bft) S-SW 198 2 min 0,000 mm 0,0 UV-I 114 W/m 4,9 C 5,6 C 3,2 km/h (1 Bft) 95,65 %
10.04.2017 07:28 5,6 C 95 % 1019,9 hPa 0,0 l/m 2,8 km/h (1 Bft) S-SW 198 2 min 0,000 mm 0,0 UV-I 119 W/m 4,9 C 5,6 C 3,2 km/h (1 Bft) 94,37 %
10.04.2017 07:30 5,4 C 95 % 1019,9 hPa 0,0 l/m 2,7 km/h (1 Bft) S-SW 198 2 min 0,000 mm 0,0 UV-I 124 W/m 4,7 C 5,4 C 3,2 km/h (1 Bft) 100,00 %
10.04.2017 07:32 5,4 C 94 % 1019,9 hPa 0,0 l/m 2,1 km/h (1 Bft) S-SW 198 2 min 0,000 mm 0,0 UV-I 129 W/m 4,5 C 5,4 C 3,2 km/h (1 Bft) 97,56 %
10.04.2017 07:34 5,3 C 95 % 1019,9 hPa 0,0 l/m 2,5 km/h (1 Bft) S-SW 198 2 min 0,000 mm 0,0 UV-I 134 W/m 4,6 C 5,3 C 4,8 km/h (1 Bft) 92,00 %
10.04.2017 07:36 5,4 C 95 % 1019,9 hPa 0,0 l/m 1,4 km/h (1 Bft) S-SW 198 2 min 0,000 mm 0,0 UV-I 139 W/m 4,7 C 5,4 C 3,2 km/h (1 Bft) 97,73 %
10.04.2017 07:38 5,6 C 95 % 1019,8 hPa 0,0 l/m 0,0 km/h (0 Bft) S-SW 198 2 min 0,000 mm 0,0 UV-I 144 W/m 4,9 C 5,6 C 0,0 km/h (0 Bft) 91,49 %
10.04.2017 07:40 5,8 C 95 % 1019,8 hPa 0,0 l/m 0,0 km/h (0 Bft) S-SW 198 2 min 0,000 mm 0,0 UV-I 149 W/m 5,1 C 5,8 C 0,0 km/h (0 Bft) 98,21 %
10.04.2017 07:42 5,9 C 95 % 1019,9 hPa 0,0 l/m 0,0 km/h (0 Bft) S-SW 198 2 min 0,000 mm 0,0 UV-I 155 W/m 5,2 C 5,9 C 0,0 km/h (0 Bft) 95,74 %
10.04.2017 07:44 6,1 C 95 % 1019,8 hPa 0,0 l/m 0,0 km/h (0 Bft) S-SW 198 2 min 0,000 mm 0,0 UV-I 160 W/m 5,4 C 6,1 C 0,0 km/h (0 Bft) 100,00 %
10.04.2017 07:46 6,3 C 95 % 1019,8 hPa 0,0 l/m 0,0 km/h (0 Bft) S-SW 198 2 min 0,000 mm 0,0 UV-I 166 W/m 5,6 C 6,3 C 0,0 km/h (0 Bft) 98,21 %
10.04.2017 07:48 6,5 C 95 % 1019,8 hPa 0,0 l/m 0,0 km/h (0 Bft) S-SW 198 2 min 0,000 mm 0,0 UV-I 172 W/m 5,8 C 6,5 C 0,0 km/h (0 Bft) 95,74 %
10.04.2017 07:50 6,8 C 95 % 1019,8 hPa 0,0 l/m 0,0 km/h (0 Bft) S-SW 198 2 min 0,000 mm 0,0 UV-I 179 W/m 6,1 C 6,8 C 0,0 km/h (0 Bft) 94,74 %
10.04.2017 07:52 7,1 C 95 % 1019,8 hPa 0,0 l/m 0,0 km/h (0 Bft) S-SW 198 2 min 0,000 mm 0,0 UV-I 184 W/m 6,4 C 7,1 C 0,0 km/h (0 Bft) 89,58 %
10.04.2017 07:54 7,2 C 94 % 1019,8 hPa 0,0 l/m 0,0 km/h (0 Bft) S-SW 198 2 min 0,000 mm 0,0 UV-I 187 W/m 6,3 C 7,2 C 0,0 km/h (0 Bft) 97,37 %
10.04.2017 07:56 7,2 C 94 % 1019,8 hPa 0,0 l/m 0,0 km/h (0 Bft) S-SW 198 2 min 0,000 mm 0,0 UV-I 192 W/m 6,3 C 7,2 C 0,0 km/h (0 Bft) 98,11 %
10.04.2017 07:58 7,3 C 93 % 1019,9 hPa 0,0 l/m 0,0 km/h (0 Bft) S-SW 198 2 min 0,000 mm 0,0 UV-I 194 W/m 6,2 C 7,3 C 0,0 km/h (0 Bft) 96,00 %
10.04.2017 08:00 7,5 C 93 % 1019,9 hPa 0,0 l/m 0,1 km/h (0 Bft) S-SW 198 2 min 0,051 mm 0,0 UV-I 200 W/m 6,4 C 7,5 C 1,6 km/h (1 Bft) 92,00 %
10.04.2017 08:02 7,6 C 92 % 1019,9 hPa 0,0 l/m 1,2 km/h (1 Bft) S-SW 198 2 min 0,000 mm 0,0 UV-I 205 W/m 6,4 C 7,6 C 3,2 km/h (1 Bft) 100,00 %
10.04.2017 08:04 7,7 C 92 % 1019,9 hPa 0,0 l/m 2,2 km/h (1 Bft) S-SW 198 2 min 0,000 mm 0,0 UV-I 210 W/m 6,5 C 7,7 C 3,2 km/h (1 Bft) 91,94 %
10.04.2017 08:06 7,8 C 91 % 1019,9 hPa 0,0 l/m 0,9 km/h (0 Bft) S-SW 198 2 min 0,000 mm 0,0 UV-I 215 W/m 6,4 C 7,8 C 3,2 km/h (1 Bft) 95,12 %
10.04.2017 08:08 7,8 C 91 % 1019,9 hPa 0,0 l/m 1,6 km/h (1 Bft) S-SW 198 2 min 0,000 mm 0,0 UV-I 222 W/m 6,4 C 7,8 C 4,8 km/h (1 Bft) 97,87 %
10.04.2017 08:10 7,8 C 90 % 1019,9 hPa 0,0 l/m 2,5 km/h (1 Bft) S-SW 198 2 min 0,000 mm 0,0 UV-I 229 W/m 6,3 C 7,8 C 3,2 km/h (1 Bft) 96,00 %
10.04.2017 08:12 7,9 C 90 % 1019,9 hPa 0,0 l/m 2,3 km/h (1 Bft) S-SW 198 2 min 0,000 mm 0,0 UV-I 237 W/m 6,4 C 7,9 C 3,2 km/h (1 Bft) 94,74 %
10.04.2017 08:14 7,9 C 89 % 1019,9 hPa 0,0 l/m 2,3 km/h (1 Bft) S-SW 198 2 min 0,000 mm 0,0 UV-I 244 W/m 6,2 C 7,9 C 3,2 km/h (1 Bft) 98,21 %
10.04.2017 08:16 7,9 C 89 % 1019,9 hPa 0,0 l/m 2,2 km/h (1 Bft) S-SW 198 2 min 0,000 mm 0,0 UV-I 250 W/m 6,2 C 7,9 C 3,2 km/h (1 Bft) 92,11 %
10.04.2017 08:18 8,0 C 90 % 1019,8 hPa 0,0 l/m 2,3 km/h (1 Bft) S-SW 198 2 min 0,000 mm 0,1 UV-I 258 W/m 6,5 C 8,0 C 4,8 km/h (1 Bft) 96,23 %
10.04.2017 08:20 8,1 C 89 % 1019,8 hPa 0,0 l/m 2,2 km/h (1 Bft) S-SW 198 2 min 0,000 mm 0,5 UV-I 262 W/m 6,4 C 8,1 C 3,2 km/h (1 Bft) 95,74 %
10.04.2017 08:22 8,2 C 89 % 1019,8 hPa 0,0 l/m 0,5 km/h (0 Bft) S-SW 198 2 min 0,000 mm 0,5 UV-I 266 W/m 6,5 C 8,2 C 1,6 km/h (1 Bft) 97,37 %
10.04.2017 08:24 8,3 C 88 % 1019,8 hPa 0,0 l/m 0,1 km/h (0 Bft) S-SW 198 2 min 0,000 mm 0,5 UV-I 273 W/m 6,4 C 8,3 C 1,6 km/h (1 Bft) 98,11 %
10.04.2017 08:26 8,4 C 88 % 1019,8 hPa 0,0 l/m 0,4 km/h (0 Bft) S-SW 198 2 min 0,000 mm 0,5 UV-I 279 W/m 6,5 C 8,4 C 1,6 km/h (1 Bft) 94,34 %
10.04.2017 08:28 8,4 C 87 % 1019,8 hPa 0,0 l/m 0,0 km/h (0 Bft) S-SW 198 2 min 0,000 mm 0,5 UV-I 285 W/m 6,4 C 8,4 C 0,0 km/h (0 Bft) 95,74 %
10.04.2017 08:30 8,6 C 88 % 1019,7 hPa 0,0 l/m 0,0 km/h (0 Bft) S-SW 198 2 min 0,000 mm 0,6 UV-I 292 W/m 6,7 C 8,6 C 0,0 km/h (0 Bft) 100,00 %
10.04.2017 08:32 8,7 C 87 % 1019,7 hPa 0,0 l/m 0,0 km/h (0 Bft) S-SW 198 2 min 0,000 mm 0,6 UV-I 298 W/m 6,7 C 8,7 C 1,6 km/h (1 Bft) 96,00 %
10.04.2017 08:34 8,7 C 86 % 1019,7 hPa 0,0 l/m 0,0 km/h (0 Bft) S-SW 198 2 min 0,000 mm 0,6 UV-I 305 W/m 6,5 C 8,7 C 0,0 km/h (0 Bft) 98,04 %
10.04.2017 08:36 8,6 C 86 % 1019,6 hPa 0,0 l/m 0,3 km/h (0 Bft) S-SW 198 2 min 0,000 mm 0,6 UV-I 311 W/m 6,4 C 8,6 C 1,6 km/h (1 Bft) 100,00 %
10.04.2017 08:38 8,6 C 86 % 1019,6 hPa 0,0 l/m 0,6 km/h (0 Bft) S-SW 198 2 min 0,000 mm 0,6 UV-I 317 W/m 6,4 C 8,6 C 1,6 km/h (1 Bft) 97,87 %
10.04.2017 08:40 8,7 C 87 % 1019,6 hPa 0,0 l/m 0,9 km/h (0 Bft) S-SW 198 2 min 0,000 mm 0,7 UV-I 324 W/m 6,7 C 8,7 C 3,2 km/h (1 Bft) 100,00 %
10.04.2017 08:42 8,7 C 87 % 1019,6 hPa 0,0 l/m 0,9 km/h (0 Bft) S-SW 198 2 min 0,000 mm 0,7 UV-I 328 W/m 6,7 C 8,7 C 3,2 km/h (1 Bft) 97,37 %
10.04.2017 08:44 8,8 C 87 % 1019,6 hPa 0,0 l/m 1,6 km/h (1 Bft) S-SW 198 2 min 0,000 mm 0,7 UV-I 333 W/m 6,8 C 8,8 C 3,2 km/h (1 Bft) 96,23 %
10.04.2017 08:46 9,0 C 86 % 1019,6 hPa 0,0 l/m 1,5 km/h (1 Bft) S-SW 198 2 min 0,000 mm 0,7 UV-I 339 W/m 6,8 C 9,0 C 3,2 km/h (1 Bft) 97,56 %
10.04.2017 08:48 9,1 C 86 % 1019,6 hPa 0,0 l/m 1,9 km/h (1 Bft) S-SW 198 2 min 0,000 mm 0,8 UV-I 348 W/m 6,9 C 9,1 C 3,2 km/h (1 Bft) 96,00 %
10.04.2017 08:50 9,2 C 86 % 1019,5 hPa 0,0 l/m 1,5 km/h (1 Bft) S-SW 198 2 min 0,000 mm 0,8 UV-I 353 W/m 7,0 C 9,2 C 3,2 km/h (1 Bft) 98,00 %
10.04.2017 08:52 9,3 C 86 % 1019,5 hPa 0,0 l/m 1,4 km/h (1 Bft) S-SW 198 2 min 0,000 mm 0,8 UV-I 359 W/m 7,1 C 9,3 C 4,8 km/h (1 Bft) 97,37 %
10.04.2017 08:54 9,4 C 86 % 1019,6 hPa 0,0 l/m 0,3 km/h (0 Bft) S-SW 198 2 min 0,000 mm 0,8 UV-I 364 W/m 7,2 C 9,4 C 1,6 km/h (1 Bft) 98,11 %
10.04.2017 08:56 9,3 C 86 % 1019,6 hPa 0,0 l/m 1,0 km/h (0 Bft) S-SW 198 2 min 0,000 mm 0,8 UV-I 368 W/m 7,1 C 9,3 C 3,2 km/h (1 Bft) 97,87 %
10.04.2017 08:58 9,4 C 85 % 1019,7 hPa 0,0 l/m 0,1 km/h (0 Bft) S-SW 198 2 min 0,000 mm 0,9 UV-I 374 W/m 7,0 C 9,4 C 1,6 km/h (1 Bft) 100,00 %
10.04.2017 09:00 9,4 C 86 % 1019,7 hPa 0,0 l/m 0,9 km/h (0 Bft) S-SW 200 2 min 0,127 mm 0,9 UV-I 379 W/m 7,2 C 9,4 C 3,2 km/h (1 Bft) 94,34 %
10.04.2017 09:02 9,4 C 84 % 1019,6 hPa 0,0 l/m 1,7 km/h (1 Bft) S-SW 200 2 min 0,000 mm 0,9 UV-I 385 W/m 6,8 C 9,4 C 3,2 km/h (1 Bft) 100,00 %
10.04.2017 09:04 9,5 C 85 % 1019,6 hPa 0,0 l/m 1,1 km/h (1 Bft) S-SW 200 2 min 0,000 mm 0,9 UV-I 393 W/m 7,1 C 9,5 C 3,2 km/h (1 Bft) 100,00 %
10.04.2017 09:06 9,6 C 84 % 1019,6 hPa 0,0 l/m 0,4 km/h (0 Bft) S-SW 200 2 min 0,000 mm 1,0 UV-I 399 W/m 7,0 C 9,6 C 1,6 km/h (1 Bft) 97,56 %
10.04.2017 09:08 9,6 C 84 % 1019,6 hPa 0,0 l/m 0,4 km/h (0 Bft) S-SW 200 2 min 0,000 mm 1,0 UV-I 402 W/m 7,0 C 9,6 C 1,6 km/h (1 Bft) 97,73 %
10.04.2017 09:10 9,7 C 84 % 1019,6 hPa 0,0 l/m 0,2 km/h (0 Bft) S-SW 200 2 min 0,000 mm 1,0 UV-I 406 W/m 7,1 C 9,7 C 1,6 km/h (1 Bft) 100,00 %
10.04.2017 09:12 9,9 C 83 % 1019,6 hPa 0,0 l/m 0,8 km/h (0 Bft) S-SW 200 2 min 0,000 mm 1,1 UV-I 409 W/m 7,2 C 9,9 C 3,2 km/h (1 Bft) 94,87 %
10.04.2017 09:14 10,1 C 84 % 1019,6 hPa 0,0 l/m 1,4 km/h (1 Bft) S-SW 200 2 min 0,000 mm 1,1 UV-I 417 W/m 7,5 C 10,1 C 3,2 km/h (1 Bft) 100,00 %
10.04.2017 09:16 10,3 C 84 % 1019,5 hPa 0,0 l/m 0,7 km/h (0 Bft) S-SW 200 2 min 0,000 mm 1,1 UV-I 420 W/m 7,7 C 10,3 C 3,2 km/h (1 Bft) 98,21 %
10.04.2017 09:18 10,3 C 83 % 1019,5 hPa 0,0 l/m 3,1 km/h (1 Bft) S-SW 200 2 min 0,000 mm 1,2 UV-I 430 W/m 7,5 C 10,3 C 4,8 km/h (1 Bft) 95,00 %
10.04.2017 09:20 10,3 C 83 % 1019,5 hPa 0,0 l/m 1,5 km/h (1 Bft) S-SW 200 2 min 0,000 mm 1,2 UV-I 438 W/m 7,5 C 10,3 C 3,2 km/h (1 Bft) 98,00 %
10.04.2017 09:22 10,6 C 84 % 1019,5 hPa 0,0 l/m 2,0 km/h (1 Bft) NO 48 2 min 0,000 mm 1,2 UV-I 446 W/m 8,0 C 10,6 C 4,8 km/h (1 Bft) 100,00 %
10.04.2017 09:24 10,7 C 84 % 1019,5 hPa 0,0 l/m 2,1 km/h (1 Bft) NO 48 2 min 0,000 mm 1,2 UV-I 451 W/m 8,1 C 10,7 C 4,8 km/h (1 Bft) 91,49 %
10.04.2017 09:26 10,9 C 85 % 1019,5 hPa 0,0 l/m 1,9 km/h (1 Bft) NO 48 2 min 0,000 mm 1,3 UV-I 456 W/m 8,5 C 10,9 C 4,8 km/h (1 Bft) 94,34 %
10.04.2017 09:28 10,9 C 81 % 1019,5 hPa 0,0 l/m 2,0 km/h (1 Bft) NO 48 2 min 0,000 mm 1,3 UV-I 462 W/m 7,8 C 10,9 C 4,8 km/h (1 Bft) 92,68 %
10.04.2017 09:30 10,8 C 81 % 1019,5 hPa 0,0 l/m 0,1 km/h (0 Bft) NO 48 2 min 0,000 mm 1,3 UV-I 465 W/m 7,7 C 10,8 C 1,6 km/h (1 Bft) 100,00 %
10.04.2017 09:32 10,9 C 82 % 1019,5 hPa 0,0 l/m 3,3 km/h (1 Bft) NO 47 2 min 0,000 mm 1,4 UV-I 471 W/m 7,9 C 10,9 C 6,4 km/h (2 Bft) 94,74 %
10.04.2017 09:34 11,0 C 83 % 1019,6 hPa 0,0 l/m 2,1 km/h (1 Bft) NO 47 2 min 0,000 mm 1,4 UV-I 478 W/m 8,2 C 11,0 C 4,8 km/h (1 Bft) 96,00 %
10.04.2017 09:36 11,2 C 83 % 1019,6 hPa 0,0 l/m 1,4 km/h (1 Bft) NO 47 2 min 0,000 mm 1,4 UV-I 482 W/m 8,4 C 11,2 C 3,2 km/h (1 Bft) 100,00 %
10.04.2017 09:38 11,2 C 80 % 1019,6 hPa 0,0 l/m 0,6 km/h (0 Bft) NO 47 2 min 0,000 mm 1,4 UV-I 488 W/m 7,9 C 11,2 C 1,6 km/h (1 Bft) 97,56 %
10.04.2017 09:40 11,3 C 83 % 1019,6 hPa 0,0 l/m 2,3 km/h (1 Bft) NO 47 2 min 0,000 mm 1,5 UV-I 492 W/m 8,5 C 11,3 C 3,2 km/h (1 Bft) 100,00 %
10.04.2017 09:42 11,3 C 81 % 1019,6 hPa 0,0 l/m 0,1 km/h (0 Bft) NO 47 2 min 0,000 mm 1,5 UV-I 496 W/m 8,2 C 11,3 C 1,6 km/h (1 Bft) 100,00 %
10.04.2017 09:44 11,5 C 82 % 1019,6 hPa 0,0 l/m 2,0 km/h (1 Bft) NO 47 2 min 0,000 mm 1,6 UV-I 500 W/m 8,5 C 11,5 C 4,8 km/h (1 Bft) 97,87 %
10.04.2017 09:46 11,6 C 80 % 1019,6 hPa 0,0 l/m 2,1 km/h (1 Bft) NO 47 2 min 0,000 mm 1,6 UV-I 508 W/m 8,3 C 11,6 C 3,2 km/h (1 Bft) 97,87 %
10.04.2017 09:48 11,6 C 81 % 1019,6 hPa 0,0 l/m 0,6 km/h (0 Bft) NO 47 2 min 0,000 mm 1,7 UV-I 513 W/m 8,5 C 11,6 C 3,2 km/h (1 Bft) 97,87 %
10.04.2017 09:50 11,7 C 82 % 1019,6 hPa 0,0 l/m 1,9 km/h (1 Bft) NO 47 2 min 0,000 mm 1,7 UV-I 516 W/m 8,7 C 11,7 C 4,8 km/h (1 Bft) 95,74 %
10.04.2017 09:52 11,7 C 80 % 1019,6 hPa 0,0 l/m 2,1 km/h (1 Bft) NO 46 2 min 0,000 mm 1,7 UV-I 524 W/m 8,4 C 11,7 C 4,8 km/h (1 Bft) 94,44 %
10.04.2017 09:54 11,9 C 81 % 1019,6 hPa 0,0 l/m 0,5 km/h (0 Bft) NO 46 2 min 0,000 mm 1,8 UV-I 530 W/m 8,7 C 11,9 C 3,2 km/h (1 Bft) 98,00 %
10.04.2017 09:56 12,1 C 81 % 1019,6 hPa 0,0 l/m 0,3 km/h (0 Bft) NO 46 2 min 0,000 mm 1,8 UV-I 535 W/m 8,9 C 12,1 C 3,2 km/h (1 Bft) 100,00 %
10.04.2017 09:58 12,3 C 82 % 1019,6 hPa 0,0 l/m 3,4 km/h (1 Bft) NO 46 2 min 0,000 mm 1,9 UV-I 539 W/m 9,3 C 12,3 C 6,4 km/h (2 Bft) 98,11 %
10.04.2017 10:00 12,3 C 79 % 1019,5 hPa 0,0 l/m 2,0 km/h (1 Bft) NO 46 2 min 0,228 mm 1,9 UV-I 544 W/m 8,8 C 12,3 C 4,8 km/h (1 Bft) 94,74 %
10.04.2017 10:02 12,3 C 77 % 1019,6 hPa 0,0 l/m 0,9 km/h (0 Bft) NO 46 2 min 0,000 mm 1,9 UV-I 549 W/m 8,4 C 12,3 C 3,2 km/h (1 Bft) 92,00 %
10.04.2017 10:04 12,3 C 79 % 1019,6 hPa 0,0 l/m 0,1 km/h (0 Bft) NO 46 2 min 0,000 mm 2,0 UV-I 551 W/m 8,8 C 12,3 C 1,6 km/h (1 Bft) 96,00 %
10.04.2017 10:06 12,3 C 79 % 1019,5 hPa 0,0 l/m 0,2 km/h (0 Bft) NO 46 2 min 0,000 mm 2,0 UV-I 555 W/m 8,8 C 12,3 C 3,2 km/h (1 Bft) 94,00 %
10.04.2017 10:08 12,4 C 78 % 1019,5 hPa 0,0 l/m 1,7 km/h (1 Bft) NO 46 2 min 0,000 mm 2,0 UV-I 562 W/m 8,7 C 12,4 C 4,8 km/h (1 Bft) 93,62 %
10.04.2017 10:10 12,6 C 78 % 1019,5 hPa 0,0 l/m 2,5 km/h (1 Bft) NO 46 2 min 0,000 mm 2,1 UV-I 567 W/m 8,9 C 12,6 C 4,8 km/h (1 Bft) 92,11 %
10.04.2017 10:12 12,6 C 77 % 1019,5 hPa 0,0 l/m 2,1 km/h (1 Bft) NO 46 2 min 0,000 mm 2,1 UV-I 572 W/m 8,7 C 12,6 C 4,8 km/h (1 Bft) 96,08 %
10.04.2017 10:14 12,8 C 77 % 1019,5 hPa 0,0 l/m 3,2 km/h (1 Bft) NO 46 2 min 0,000 mm 2,2 UV-I 578 W/m 8,9 C 12,8 C 4,8 km/h (1 Bft) 94,00 %
10.04.2017 10:16 12,8 C 74 % 1019,5 hPa 0,0 l/m 1,7 km/h (1 Bft) NO 46 2 min 0,000 mm 2,2 UV-I 584 W/m 8,3 C 12,8 C 3,2 km/h (1 Bft) 93,18 %
10.04.2017 10:18 12,6 C 75 % 1019,5 hPa 0,0 l/m 1,9 km/h (1 Bft) NO 46 2 min 0,000 mm 2,2 UV-I 587 W/m 8,3 C 12,6 C 4,8 km/h (1 Bft) 90,00 %
10.04.2017 10:20 12,7 C 74 % 1019,5 hPa 0,0 l/m 1,7 km/h (1 Bft) NO 46 2 min 0,000 mm 2,3 UV-I 594 W/m 8,2 C 12,7 C 3,2 km/h (1 Bft) 93,18 %
10.04.2017 10:22 12,6 C 75 % 1019,5 hPa 0,0 l/m 0,9 km/h (0 Bft) NO 46 2 min 0,000 mm 2,3 UV-I 596 W/m 8,3 C 12,6 C 3,2 km/h (1 Bft) 95,74 %
10.04.2017 10:24 12,6 C 75 % 1019,5 hPa 0,0 l/m 0,3 km/h (0 Bft) NO 46 2 min 0,000 mm 2,3 UV-I 599 W/m 8,3 C 12,6 C 1,6 km/h (1 Bft) 92,68 %
10.04.2017 10:26 12,8 C 74 % 1019,5 hPa 0,0 l/m 0,4 km/h (0 Bft) NO 46 2 min 0,000 mm 2,4 UV-I 603 W/m 8,3 C 12,8 C 1,6 km/h (1 Bft) 94,34 %
10.04.2017 10:28 13,0 C 75 % 1019,4 hPa 0,0 l/m 0,4 km/h (0 Bft) NO 46 2 min 0,000 mm 2,4 UV-I 607 W/m 8,7 C 13,0 C 1,6 km/h (1 Bft) 96,23 %
10.04.2017 10:30 13,2 C 75 % 1019,4 hPa 0,0 l/m 0,7 km/h (0 Bft) NO 46 2 min 0,000 mm 2,5 UV-I 612 W/m 8,9 C 13,2 C 3,2 km/h (1 Bft) 92,68 %
10.04.2017 10:32 13,3 C 75 % 1019,4 hPa 0,0 l/m 0,3 km/h (0 Bft) NO 46 2 min 0,000 mm 2,5 UV-I 617 W/m 9,0 C 13,3 C 1,6 km/h (1 Bft) 92,31 %
10.04.2017 10:34 13,2 C 73 % 1019,4 hPa 0,0 l/m 0,0 km/h (0 Bft) NO 46 2 min 0,000 mm 2,5 UV-I 621 W/m 8,5 C 13,2 C 1,6 km/h (1 Bft) 96,00 %
10.04.2017 10:36 13,2 C 73 % 1019,4 hPa 0,0 l/m 0,9 km/h (0 Bft) NO 46 2 min 0,000 mm 2,6 UV-I 625 W/m 8,5 C 13,2 C 1,6 km/h (1 Bft) 97,87 %
10.04.2017 10:38 13,3 C 75 % 1019,4 hPa 0,0 l/m 1,1 km/h (1 Bft) NO 46 2 min 0,000 mm 2,6 UV-I 630 W/m 9,0 C 13,3 C 3,2 km/h (1 Bft) 93,18 %
10.04.2017 10:40 13,6 C 75 % 1019,4 hPa 0,0 l/m 1,7 km/h (1 Bft) NO 46 2 min 0,000 mm 2,7 UV-I 633 W/m 9,3 C 13,6 C 3,2 km/h (1 Bft) 96,23 %
10.04.2017 10:42 13,7 C 75 % 1019,3 hPa 0,0 l/m 0,8 km/h (0 Bft) NO 46 2 min 0,000 mm 2,7 UV-I 638 W/m 9,3 C 13,7 C 3,2 km/h (1 Bft) 95,12 %
10.04.2017 10:44 13,9 C 77 % 1019,4 hPa 0,0 l/m 2,7 km/h (1 Bft) NO 46 2 min 0,000 mm 2,7 UV-I 645 W/m 9,9 C 13,9 C 6,4 km/h (2 Bft) 94,00 %
10.04.2017 10:46 14,2 C 74 % 1019,3 hPa 0,0 l/m 3,7 km/h (1 Bft) NO 46 2 min 0,000 mm 2,8 UV-I 647 W/m 9,6 C 14,2 C 6,4 km/h (2 Bft) 97,87 %
10.04.2017 10:48 14,1 C 73 % 1019,3 hPa 0,0 l/m 2,9 km/h (1 Bft) NO 46 2 min 0,000 mm 2,8 UV-I 649 W/m 9,3 C 14,1 C 6,4 km/h (2 Bft) 97,73 %
10.04.2017 10:50 14,3 C 75 % 1019,3 hPa 0,0 l/m 3,8 km/h (1 Bft) NO 46 2 min 0,000 mm 2,8 UV-I 652 W/m 9,9 C 14,3 C 6,4 km/h (2 Bft) 98,00 %
10.04.2017 10:52 14,4 C 73 % 1019,3 hPa 0,0 l/m 3,8 km/h (1 Bft) O-NO 63 2 min 0,000 mm 2,8 UV-I 654 W/m 9,6 C 14,4 C 4,8 km/h (1 Bft) 96,00 %
10.04.2017 10:54 14,4 C 72 % 1019,3 hPa 0,0 l/m 2,1 km/h (1 Bft) O-NO 63 2 min 0,000 mm 2,9 UV-I 660 W/m 9,4 C 14,4 C 4,8 km/h (1 Bft) 97,73 %
10.04.2017 10:56 14,6 C 74 % 1019,3 hPa 0,0 l/m 3,0 km/h (1 Bft) O-NO 62 2 min 0,000 mm 2,9 UV-I 662 W/m 10,0 C 14,6 C 4,8 km/h (1 Bft) 97,87 %
10.04.2017 10:58 14,6 C 72 % 1019,3 hPa 0,0 l/m 1,4 km/h (1 Bft) O-NO 62 2 min 0,000 mm 3,0 UV-I 667 W/m 9,6 C 14,6 C 3,2 km/h (1 Bft) 97,73 %
10.04.2017 11:00 14,7 C 72 % 1019,3 hPa 0,0 l/m 3,5 km/h (1 Bft) NO 51 2 min 0,305 mm 3,0 UV-I 670 W/m 9,7 C 14,7 C 6,4 km/h (2 Bft) 94,00 %
10.04.2017 11:03 14,8 C 73 % 1019,3 hPa 0,0 l/m 1,0 km/h (0 Bft) NO 50 3 min 0,000 mm 3,0 UV-I 673 W/m 10,0 C 14,8 C 4,8 km/h (1 Bft) 93,85 %
10.04.2017 11:04 14,9 C 76 % 1019,3 hPa 0,0 l/m 3,3 km/h (1 Bft) NO 51 1 min 0,000 mm 3,1 UV-I 675 W/m 10,7 C 14,9 C 4,8 km/h (1 Bft) 96,15 %
10.04.2017 11:06 15,0 C 73 % 1019,2 hPa 0,0 l/m 0,9 km/h (0 Bft) NO 51 2 min 0,000 mm 3,1 UV-I 681 W/m 10,2 C 15,0 C 3,2 km/h (1 Bft) 98,00 %
10.04.2017 11:09 15,1 C 74 % 1019,2 hPa 0,0 l/m 2,0 km/h (1 Bft) NO 49 3 min 0,000 mm 3,1 UV-I 686 W/m 10,5 C 15,1 C 4,8 km/h (1 Bft) 96,92 %
10.04.2017 11:10 15,2 C 73 % 1019,2 hPa 0,0 l/m 2,0 km/h (1 Bft) NO 49 1 min 0,000 mm 3,2 UV-I 688 W/m 10,4 C 15,2 C 4,8 km/h (1 Bft) 93,75 %
10.04.2017 11:12 15,2 C 69 % 1019,2 hPa 0,0 l/m 1,4 km/h (1 Bft) NO 49 2 min 0,000 mm 3,2 UV-I 690 W/m 9,6 C 15,2 C 3,2 km/h (1 Bft) 97,87 %
10.04.2017 11:14 15,2 C 70 % 1019,1 hPa 0,0 l/m 1,9 km/h (1 Bft) NO 43 2 min 0,000 mm 3,2 UV-I 692 W/m 9,8 C 15,2 C 3,2 km/h (1 Bft) 95,83 %
10.04.2017 11:16 15,2 C 71 % 1019,2 hPa 0,0 l/m 0,7 km/h (0 Bft) NO 43 2 min 0,000 mm 3,2 UV-I 694 W/m 10,0 C 15,2 C 3,2 km/h (1 Bft) 97,56 %
10.04.2017 11:18 15,2 C 72 % 1019,2 hPa 0,0 l/m 1,2 km/h (1 Bft) N-NO 24 2 min 0,000 mm 3,3 UV-I 696 W/m 10,2 C 15,2 C 3,2 km/h (1 Bft) 91,49 %
10.04.2017 11:20 15,3 C 73 % 1019,1 hPa 0,0 l/m 1,2 km/h (1 Bft) N-NO 24 2 min 0,000 mm 3,3 UV-I 701 W/m 10,5 C 15,3 C 3,2 km/h (1 Bft) 96,00 %
10.04.2017 11:22 15,4 C 74 % 1019,1 hPa 0,0 l/m 2,2 km/h (1 Bft) N-NO 24 2 min 0,000 mm 3,4 UV-I 706 W/m 10,8 C 15,4 C 4,8 km/h (1 Bft) 96,00 %
10.04.2017 11:24 15,4 C 70 % 1019,1 hPa 0,0 l/m 2,0 km/h (1 Bft) N 5 2 min 0,000 mm 3,4 UV-I 706 W/m 10,0 C 15,4 C 4,8 km/h (1 Bft) 97,37 %
10.04.2017 11:26 15,3 C 71 % 1019,1 hPa 0,0 l/m 2,6 km/h (1 Bft) N 355 2 min 0,000 mm 3,4 UV-I 710 W/m 10,1 C 15,3 C 4,8 km/h (1 Bft) 95,74 %
10.04.2017 11:29 15,5 C 68 % 1019,1 hPa 0,0 l/m 1,6 km/h (1 Bft) SW 222 3 min 0,000 mm 3,5 UV-I 714 W/m 9,6 C 15,5 C 4,8 km/h (1 Bft) 96,05 %
10.04.2017 11:30 15,7 C 69 % 1019,1 hPa 0,0 l/m 3,5 km/h (1 Bft) S 188 1 min 0,000 mm 3,5 UV-I 717 W/m 10,0 C 15,7 C 4,8 km/h (1 Bft) 95,83 %
10.04.2017 11:32 15,8 C 67 % 1019,0 hPa 0,0 l/m 2,5 km/h (1 Bft) S-SO 162 2 min 0,000 mm 3,5 UV-I 721 W/m 9,7 C 15,8 C 6,4 km/h (2 Bft) 94,74 %
10.04.2017 11:34 15,8 C 65 % 1019,0 hPa 0,0 l/m 3,2 km/h (1 Bft) S-SW 209 2 min 0,000 mm 3,6 UV-I 725 W/m 9,2 C 15,8 C 8,0 km/h (2 Bft) 96,23 %
10.04.2017 11:36 15,9 C 62 % 1019,0 hPa 0,0 l/m 2,5 km/h (1 Bft) S 180 2 min 0,000 mm 3,6 UV-I 726 W/m 8,6 C 15,9 C 8,0 km/h (2 Bft) 98,00 %
10.04.2017 11:39 16,3 C 61 % 1019,0 hPa 0,0 l/m 2,2 km/h (1 Bft) S-SW 200 3 min 0,000 mm 3,6 UV-I 729 W/m 8,8 C 16,3 C 4,8 km/h (1 Bft) 98,65 %
10.04.2017 11:40 16,3 C 63 % 1019,0 hPa 0,0 l/m 3,9 km/h (1 Bft) S-SW 207 1 min 0,000 mm 3,6 UV-I 729 W/m 9,2 C 16,3 C 4,8 km/h (1 Bft) 90,91 %
10.04.2017 11:42 16,4 C 61 % 1018,9 hPa 0,0 l/m 2,7 km/h (1 Bft) S-SW 202 2 min 0,000 mm 3,6 UV-I 733 W/m 8,9 C 16,4 C 6,4 km/h (2 Bft) 98,00 %
10.04.2017 11:44 16,4 C 61 % 1018,9 hPa 0,0 l/m 2,2 km/h (1 Bft) S-SO 162 2 min 0,000 mm 3,7 UV-I 735 W/m 8,9 C 16,4 C 6,4 km/h (2 Bft) 100,00 %
10.04.2017 11:46 16,4 C 64 % 1018,9 hPa 0,0 l/m 4,4 km/h (1 Bft) W-SW 241 2 min 0,000 mm 3,7 UV-I 737 W/m 9,6 C 16,4 C 6,4 km/h (2 Bft) 98,00 %
10.04.2017 11:48 16,7 C 63 % 1018,8 hPa 0,0 l/m 1,9 km/h (1 Bft) SW 229 2 min 0,000 mm 3,7 UV-I 738 W/m 9,6 C 16,7 C 4,8 km/h (1 Bft) 100,00 %
10.04.2017 11:50 16,9 C 61 % 1018,8 hPa 0,0 l/m 4,9 km/h (1 Bft) W-SW 247 2 min 0,000 mm 3,7 UV-I 739 W/m 9,3 C 16,9 C 11,3 km/h (2 Bft) 98,11 %
10.04.2017 11:52 16,9 C 62 % 1018,8 hPa 0,0 l/m 2,2 km/h (1 Bft) W-SW 247 2 min 0,000 mm 3,8 UV-I 743 W/m 9,6 C 16,9 C 8,0 km/h (2 Bft) 89,36 %
10.04.2017 11:54 16,6 C 60 % 1018,7 hPa 0,0 l/m 0,8 km/h (0 Bft) SW 216 2 min 0,000 mm 3,8 UV-I 745 W/m 8,8 C 16,6 C 3,2 km/h (1 Bft) 92,68 %
10.04.2017 11:56 16,5 C 62 % 1018,7 hPa 0,0 l/m 2,3 km/h (1 Bft) SW 226 2 min 0,000 mm 3,8 UV-I 749 W/m 9,2 C 16,5 C 4,8 km/h (1 Bft) 98,00 %
10.04.2017 11:58 16,6 C 63 % 1018,6 hPa 0,0 l/m 1,2 km/h (1 Bft) SW 234 2 min 0,000 mm 3,8 UV-I 748 W/m 9,5 C 16,6 C 3,2 km/h (1 Bft) 95,74 %
10.04.2017 12:00 16,8 C 63 % 1018,6 hPa 0,0 l/m 3,3 km/h (1 Bft) SW 234 2 min 0,000 mm 3,9 UV-I 752 W/m 9,7 C 16,8 C 4,8 km/h (1 Bft) 97,87 %
10.04.2017 12:02 17,1 C 62 % 1018,6 hPa 0,0 l/m 1,0 km/h (0 Bft) SW 225 2 min 0,381 mm 3,9 UV-I 753 W/m 9,8 C 17,1 C 3,2 km/h (1 Bft) 96,23 %
10.04.2017 12:04 17,3 C 62 % 1018,6 hPa 0,0 l/m 3,1 km/h (1 Bft) SW 229 2 min 0,000 mm 3,9 UV-I 756 W/m 9,9 C 17,3 C 4,8 km/h (1 Bft) 97,37 %
10.04.2017 12:06 17,3 C 60 % 1018,6 hPa 0,0 l/m 2,6 km/h (1 Bft) SW 229 2 min 0,000 mm 3,9 UV-I 756 W/m 9,5 C 17,3 C 6,4 km/h (2 Bft) 95,74 %
10.04.2017 12:08 17,2 C 62 % 1018,6 hPa 0,0 l/m 0,1 km/h (0 Bft) SW 229 2 min 0,000 mm 4,0 UV-I 757 W/m 9,9 C 17,2 C 3,2 km/h (1 Bft) 95,12 %
10.04.2017 12:10 17,3 C 62 % 1018,6 hPa 0,0 l/m 4,9 km/h (1 Bft) S-SW 213 2 min 0,000 mm 4,0 UV-I 759 W/m 9,9 C 17,3 C 8,0 km/h (2 Bft) 98,21 %
10.04.2017 12:12 17,2 C 62 % 1018,5 hPa 0,0 l/m 2,1 km/h (1 Bft) S-SW 213 2 min 0,000 mm 4,0 UV-I 759 W/m 9,9 C 17,2 C 4,8 km/h (1 Bft) 97,87 %
10.04.2017 12:14 17,3 C 64 % 1018,5 hPa 0,0 l/m 1,1 km/h (1 Bft) SW 214 2 min 0,000 mm 4,0 UV-I 762 W/m 10,4 C 17,3 C 3,2 km/h (1 Bft) 98,00 %
10.04.2017 12:16 17,3 C 62 % 1018,5 hPa 0,0 l/m 0,9 km/h (0 Bft) SW 214 2 min 0,000 mm 4,0 UV-I 764 W/m 9,9 C 17,3 C 3,2 km/h (1 Bft) 95,74 %
10.04.2017 12:18 17,4 C 63 % 1018,4 hPa 0,0 l/m 1,7 km/h (1 Bft) W 264 2 min 0,000 mm 4,0 UV-I 762 W/m 10,3 C 17,4 C 4,8 km/h (1 Bft) 96,30 %
10.04.2017 12:20 17,6 C 61 % 1018,4 hPa 0,0 l/m 1,3 km/h (1 Bft) W 267 2 min 0,000 mm 4,0 UV-I 763 W/m 10,0 C 17,6 C 4,8 km/h (1 Bft) 94,03 %
10.04.2017 12:22 17,6 C 64 % 1018,4 hPa 0,0 l/m 1,3 km/h (1 Bft) W-SW 258 2 min 0,000 mm 4,1 UV-I 765 W/m 10,7 C 17,6 C 3,2 km/h (1 Bft) 95,12 %
10.04.2017 12:24 17,8 C 61 % 1018,3 hPa 0,0 l/m 1,5 km/h (1 Bft) S 180 2 min 0,000 mm 4,1 UV-I 766 W/m 10,2 C 17,8 C 3,2 km/h (1 Bft) 90,57 %
10.04.2017 12:26 18,2 C 66 % 1018,3 hPa 0,0 l/m 6,6 km/h (2 Bft) N-NO 29 2 min 0,000 mm 4,1 UV-I 768 W/m 11,7 C 18,1 C 9,7 km/h (2 Bft) 97,44 %
10.04.2017 12:28 18,3 C 63 % 1018,3 hPa 0,0 l/m 4,4 km/h (1 Bft) NW 324 2 min 0,000 mm 4,1 UV-I 769 W/m 11,1 C 18,3 C 6,4 km/h (2 Bft) 100,00 %
10.04.2017 12:30 18,2 C 61 % 1018,3 hPa 0,0 l/m 4,8 km/h (1 Bft) NW 321 2 min 0,000 mm 4,1 UV-I 771 W/m 10,6 C 18,2 C 8,0 km/h (2 Bft) 96,43 %
10.04.2017 12:32 18,0 C 64 % 1018,2 hPa 0,0 l/m 2,1 km/h (1 Bft) N-NW 331 2 min 0,000 mm 4,1 UV-I 771 W/m 11,1 C 18,0 C 3,2 km/h (1 Bft) 98,11 %
10.04.2017 12:34 18,0 C 66 % 1018,2 hPa 0,0 l/m 2,1 km/h (1 Bft) NW 313 2 min 0,000 mm 4,1 UV-I 771 W/m 11,6 C 18,0 C 4,8 km/h (1 Bft) 93,62 %
10.04.2017 12:36 17,9 C 60 % 1018,2 hPa 0,0 l/m 3,5 km/h (1 Bft) W-NW 300 2 min 0,000 mm 4,1 UV-I 770 W/m 10,0 C 17,9 C 4,8 km/h (1 Bft) 95,45 %
10.04.2017 12:39 18,0 C 64 % 1018,1 hPa 0,0 l/m 1,0 km/h (0 Bft) NW 324 3 min 0,000 mm 4,2 UV-I 771 W/m 11,1 C 18,0 C 3,2 km/h (1 Bft) 100,00 %
10.04.2017 12:40 18,1 C 65 % 1018,1 hPa 0,0 l/m 0,6 km/h (0 Bft) NW 321 1 min 0,000 mm 4,2 UV-I 772 W/m 11,4 C 18,1 C 1,6 km/h (1 Bft) 100,00 %
10.04.2017 12:42 18,1 C 63 % 1018,1 hPa 0,0 l/m 1,5 km/h (1 Bft) NW 322 2 min 0,000 mm 4,2 UV-I 772 W/m 10,9 C 18,1 C 3,2 km/h (1 Bft) 98,15 %
10.04.2017 12:44 18,2 C 65 % 1018,0 hPa 0,0 l/m 2,1 km/h (1 Bft) N-NW 341 2 min 0,000 mm 4,2 UV-I 771 W/m 11,5 C 18,2 C 3,2 km/h (1 Bft) 92,68 %
10.04.2017 12:46 18,3 C 61 % 1018,0 hPa 0,0 l/m 2,9 km/h (1 Bft) NO 38 2 min 0,000 mm 4,2 UV-I 772 W/m 10,6 C 18,3 C 4,8 km/h (1 Bft) 100,00 %
10.04.2017 12:48 18,4 C 62 % 1018,0 hPa 0,0 l/m 2,3 km/h (1 Bft) NW 305 2 min 0,000 mm 4,2 UV-I 770 W/m 11,0 C 18,4 C 6,4 km/h (2 Bft) 98,21 %
10.04.2017 12:50 18,4 C 60 % 1017,9 hPa 0,0 l/m 2,5 km/h (1 Bft) NW 323 2 min 0,000 mm 4,2 UV-I 774 W/m 10,5 C 18,4 C 6,4 km/h (2 Bft) 97,73 %
10.04.2017 12:52 18,4 C 60 % 1017,8 hPa 0,0 l/m 2,4 km/h (1 Bft) W-NW 297 2 min 0,000 mm 4,2 UV-I 775 W/m 10,5 C 18,4 C 4,8 km/h (1 Bft) 98,04 %
10.04.2017 12:54 18,4 C 60 % 1017,8 hPa 0,0 l/m 2,4 km/h (1 Bft) N-NO 14 2 min 0,000 mm 4,2 UV-I 774 W/m 10,5 C 18,4 C 4,8 km/h (1 Bft) 97,87 %
10.04.2017 12:56 18,6 C 61 % 1017,8 hPa 0,0 l/m 1,5 km/h (1 Bft) N-NO 14 2 min 0,000 mm 4,2 UV-I 772 W/m 10,9 C 18,6 C 4,8 km/h (1 Bft) 100,00 %
10.04.2017 12:58 18,8 C 63 % 1017,8 hPa 0,0 l/m 0,8 km/h (0 Bft) N 9 2 min 0,000 mm 4,2 UV-I 772 W/m 11,6 C 18,8 C 3,2 km/h (1 Bft) 91,49 %
10.04.2017 13:00 18,9 C 59 % 1017,7 hPa 0,0 l/m 2,1 km/h (1 Bft) W-NW 297 2 min 0,000 mm 4,2 UV-I 772 W/m 10,7 C 18,9 C 6,4 km/h (2 Bft) 98,00 %
10.04.2017 13:02 19,1 C 62 % 1017,7 hPa 0,0 l/m 0,9 km/h (0 Bft) W-NW 298 2 min 0,432 mm 4,2 UV-I 774 W/m 11,6 C 19,1 C 3,2 km/h (1 Bft) 96,08 %
10.04.2017 13:04 19,2 C 59 % 1017,7 hPa 0,0 l/m 3,5 km/h (1 Bft) W-NW 303 2 min 0,000 mm 4,2 UV-I 772 W/m 11,0 C 19,2 C 11,3 km/h (2 Bft) 97,73 %
10.04.2017 13:06 19,1 C 58 % 1017,6 hPa 0,0 l/m 4,2 km/h (1 Bft) W-NW 301 2 min 0,000 mm 4,2 UV-I 772 W/m 10,6 C 19,1 C 8,0 km/h (2 Bft) 100,00 %
10.04.2017 13:09 19,1 C 60 % 1017,6 hPa 0,0 l/m 2,1 km/h (1 Bft) NW 320 3 min 0,000 mm 4,2 UV-I 770 W/m 11,1 C 19,1 C 4,8 km/h (1 Bft) 98,73 %
10.04.2017 13:10 19,1 C 61 % 1017,6 hPa 0,0 l/m 2,4 km/h (1 Bft) NW 314 1 min 0,000 mm 4,2 UV-I 771 W/m 11,4 C 19,1 C 4,8 km/h (1 Bft) 100,00 %
10.04.2017 13:12 19,2 C 61 % 1017,6 hPa 0,0 l/m 2,4 km/h (1 Bft) NW 315 2 min 0,000 mm 4,2 UV-I 769 W/m 11,5 C 19,2 C 6,4 km/h (2 Bft) 100,00 %
10.04.2017 13:14 19,3 C 58 % 1017,6 hPa 0,0 l/m 2,1 km/h (1 Bft) NW 317 2 min 0,000 mm 4,1 UV-I 770 W/m 10,8 C 19,3 C 4,8 km/h (1 Bft) 94,00 %
10.04.2017 13:16 19,3 C 58 % 1017,5 hPa 0,0 l/m 3,3 km/h (1 Bft) NW 323 2 min 0,000 mm 4,1 UV-I 768 W/m 10,8 C 19,3 C 6,4 km/h (2 Bft) 100,00 %
10.04.2017 13:18 19,3 C 56 % 1017,5 hPa 0,0 l/m 2,3 km/h (1 Bft) NW 318 2 min 0,000 mm 4,1 UV-I 770 W/m 10,3 C 19,3 C 4,8 km/h (1 Bft) 94,64 %
10.04.2017 13:20 19,3 C 55 % 1017,4 hPa 0,0 l/m 0,9 km/h (0 Bft) NW 318 2 min 0,000 mm 4,1 UV-I 769 W/m 10,0 C 19,3 C 3,2 km/h (1 Bft) 97,14 %
10.04.2017 13:22 19,4 C 59 % 1017,4 hPa 0,0 l/m 1,4 km/h (1 Bft) N-NW 342 2 min 0,000 mm 4,1 UV-I 769 W/m 11,2 C 19,4 C 4,8 km/h (1 Bft) 98,21 %
10.04.2017 13:24 19,7 C 61 % 1017,4 hPa 0,0 l/m 2,6 km/h (1 Bft) NW 306 2 min 0,000 mm 4,1 UV-I 768 W/m 12,0 C 19,7 C 8,0 km/h (2 Bft) 92,68 %
10.04.2017 13:26 19,8 C 58 % 1017,4 hPa 0,0 l/m 3,4 km/h (1 Bft) N 5 2 min 0,000 mm 4,1 UV-I 766 W/m 11,3 C 19,8 C 9,7 km/h (2 Bft) 96,00 %
10.04.2017 13:28 19,8 C 57 % 1017,3 hPa 0,0 l/m 3,9 km/h (1 Bft) NW 318 2 min 0,000 mm 4,1 UV-I 767 W/m 11,0 C 19,8 C 6,4 km/h (2 Bft) 98,11 %
10.04.2017 13:30 19,8 C 56 % 1017,3 hPa 0,0 l/m 3,9 km/h (1 Bft) N-NW 329 2 min 0,000 mm 4,1 UV-I 766 W/m 10,8 C 19,8 C 6,4 km/h (2 Bft) 92,68 %
10.04.2017 13:32 19,8 C 59 % 1017,2 hPa 0,0 l/m 2,1 km/h (1 Bft) N-NW 332 2 min 0,000 mm 4,1 UV-I 767 W/m 11,6 C 19,8 C 4,8 km/h (1 Bft) 95,45 %
10.04.2017 13:34 19,8 C 57 % 1017,2 hPa 0,0 l/m 2,2 km/h (1 Bft) N 11 2 min 0,000 mm 4,0 UV-I 764 W/m 11,0 C 19,8 C 4,8 km/h (1 Bft) 98,00 %
10.04.2017 13:36 19,8 C 57 % 1017,2 hPa 0,0 l/m 1,8 km/h (1 Bft) N 350 2 min 0,000 mm 4,0 UV-I 761 W/m 11,0 C 19,8 C 4,8 km/h (1 Bft) 95,74 %
10.04.2017 13:38 19,8 C 62 % 1017,2 hPa 0,0 l/m 2,3 km/h (1 Bft) NW 324 2 min 0,000 mm 4,0 UV-I 763 W/m 12,3 C 19,8 C 6,4 km/h (2 Bft) 95,74 %
10.04.2017 13:40 19,9 C 55 % 1017,2 hPa 0,0 l/m 3,2 km/h (1 Bft) W-NW 301 2 min 0,000 mm 4,0 UV-I 764 W/m 10,6 C 19,9 C 4,8 km/h (1 Bft) 97,87 %
10.04.2017 13:42 20,2 C 58 % 1017,1 hPa 0,0 l/m 1,3 km/h (1 Bft) NW 312 2 min 0,000 mm 4,0 UV-I 750 W/m 11,7 C 20,2 C 3,2 km/h (1 Bft) 100,00 %
10.04.2017 13:44 20,3 C 60 % 1017,1 hPa 0,0 l/m 1,9 km/h (1 Bft) N 9 2 min 0,000 mm 4,0 UV-I 737 W/m 12,3 C 20,3 C 3,2 km/h (1 Bft) 92,73 %
10.04.2017 13:46 20,3 C 56 % 1017,0 hPa 0,0 l/m 3,8 km/h (1 Bft) W-NW 288 2 min 0,000 mm 3,9 UV-I 716 W/m 11,2 C 20,3 C 11,3 km/h (2 Bft) 97,62 %
10.04.2017 13:48 20,2 C 59 % 1017,0 hPa 0,0 l/m 2,8 km/h (1 Bft) NW 307 2 min 0,000 mm 3,9 UV-I 704 W/m 11,9 C 20,2 C 4,8 km/h (1 Bft) 96,23 %
10.04.2017 13:50 20,2 C 57 % 1017,0 hPa 0,0 l/m 2,5 km/h (1 Bft) NW 310 2 min 0,000 mm 4,0 UV-I 749 W/m 11,4 C 20,2 C 4,8 km/h (1 Bft) 95,45 %
10.04.2017 13:52 20,3 C 56 % 1017,0 hPa 0,0 l/m 3,0 km/h (1 Bft) NW 311 2 min 0,000 mm 4,0 UV-I 756 W/m 11,2 C 20,3 C 6,4 km/h (2 Bft) 90,57 %
10.04.2017 13:54 20,2 C 57 % 1017,0 hPa 0,0 l/m 2,3 km/h (1 Bft) N-NW 328 2 min 0,000 mm 4,0 UV-I 745 W/m 11,4 C 20,2 C 4,8 km/h (1 Bft) 92,11 %
10.04.2017 13:56 20,2 C 56 % 1017,0 hPa 0,0 l/m 3,2 km/h (1 Bft) NW 323 2 min 0,000 mm 3,9 UV-I 746 W/m 11,1 C 20,2 C 6,4 km/h (2 Bft) 98,11 %
10.04.2017 13:58 20,2 C 54 % 1016,9 hPa 0,0 l/m 0,7 km/h (0 Bft) N-NW 344 2 min 0,000 mm 3,9 UV-I 749 W/m 10,6 C 20,2 C 1,6 km/h (1 Bft) 95,74 %
10.04.2017 14:00 20,3 C 56 % 1016,8 hPa 0,0 l/m 0,6 km/h (0 Bft) N-NW 344 2 min 0,457 mm 3,9 UV-I 740 W/m 11,2 C 20,3 C 1,6 km/h (1 Bft) 95,12 %
10.04.2017 14:02 20,3 C 55 % 1016,8 hPa 0,0 l/m 3,3 km/h (1 Bft) W-NW 292 2 min 0,000 mm 3,9 UV-I 755 W/m 11,0 C 20,3 C 6,4 km/h (2 Bft) 92,86 %
10.04.2017 14:04 20,4 C 59 % 1016,8 hPa 0,0 l/m 2,9 km/h (1 Bft) NW 306 2 min 0,000 mm 3,9 UV-I 753 W/m 12,1 C 20,4 C 6,4 km/h (2 Bft) 91,49 %
10.04.2017 14:06 20,6 C 55 % 1016,7 hPa 0,0 l/m 2,1 km/h (1 Bft) NW 311 2 min 0,000 mm 3,9 UV-I 751 W/m 11,2 C 20,6 C 4,8 km/h (1 Bft) 95,12 %
10.04.2017 14:08 20,7 C 53 % 1016,7 hPa 0,0 l/m 4,7 km/h (1 Bft) W-NW 294 2 min 0,000 mm 3,9 UV-I 751 W/m 10,8 C 20,7 C 11,3 km/h (2 Bft) 97,56 %
10.04.2017 14:10 20,8 C 56 % 1016,7 hPa 0,0 l/m 3,4 km/h (1 Bft) W-NW 300 2 min 0,000 mm 3,9 UV-I 746 W/m 11,7 C 20,8 C 6,4 km/h (2 Bft) 98,00 %
10.04.2017 14:12 20,7 C 54 % 1016,6 hPa 0,0 l/m 2,9 km/h (1 Bft) N-NW 335 2 min 0,000 mm 3,8 UV-I 744 W/m 11,1 C 20,7 C 9,7 km/h (2 Bft) 94,00 %
10.04.2017 14:14 20,7 C 55 % 1016,6 hPa 0,0 l/m 4,3 km/h (1 Bft) W-NW 301 2 min 0,000 mm 3,8 UV-I 742 W/m 11,3 C 20,7 C 9,7 km/h (2 Bft) 94,74 %
10.04.2017 14:16 20,8 C 55 % 1016,6 hPa 0,0 l/m 3,0 km/h (1 Bft) N-NW 327 2 min 0,000 mm 3,8 UV-I 740 W/m 11,4 C 20,8 C 4,8 km/h (1 Bft) 94,00 %
10.04.2017 14:18 20,8 C 56 % 1016,6 hPa 0,0 l/m 3,1 km/h (1 Bft) W-NW 291 2 min 0,000 mm 3,8 UV-I 737 W/m 11,7 C 20,8 C 6,4 km/h (2 Bft) 95,24 %
10.04.2017 14:20 20,7 C 55 % 1016,6 hPa 0,0 l/m 2,6 km/h (1 Bft) W-NW 297 2 min 0,000 mm 3,7 UV-I 734 W/m 11,3 C 20,7 C 4,8 km/h (1 Bft) 98,18 %
10.04.2017 14:22 20,6 C 54 % 1016,6 hPa 0,0 l/m 4,4 km/h (1 Bft) NW 317 2 min 0,000 mm 3,7 UV-I 732 W/m 11,0 C 20,6 C 8,0 km/h (2 Bft) 98,11 %
10.04.2017 14:24 20,6 C 53 % 1016,5 hPa 0,0 l/m 1,2 km/h (1 Bft) NW 316 2 min 0,000 mm 3,7 UV-I 729 W/m 10,7 C 20,6 C 3,2 km/h (1 Bft) 97,62 %
10.04.2017 14:26 20,7 C 53 % 1016,5 hPa 0,0 l/m 1,1 km/h (1 Bft) NW 316 2 min 0,000 mm 3,7 UV-I 726 W/m 10,8 C 20,7 C 3,2 km/h (1 Bft) 100,00 %
10.04.2017 14:28 20,9 C 58 % 1016,5 hPa 0,0 l/m 1,3 km/h (1 Bft) NW 315 2 min 0,000 mm 3,7 UV-I 722 W/m 12,3 C 20,9 C 3,2 km/h (1 Bft) 95,65 %
10.04.2017 14:30 21,2 C 53 % 1016,4 hPa 0,0 l/m 3,7 km/h (1 Bft) NW 324 2 min 0,000 mm 3,6 UV-I 719 W/m 11,2 C 21,2 C 8,0 km/h (2 Bft) 100,00 %
10.04.2017 14:32 21,2 C 53 % 1016,4 hPa 0,0 l/m 2,7 km/h (1 Bft) NW 313 2 min 0,000 mm 3,6 UV-I 717 W/m 11,2 C 21,2 C 4,8 km/h (1 Bft) 100,00 %
10.04.2017 14:34 21,1 C 56 % 1016,4 hPa 0,0 l/m 1,9 km/h (1 Bft) NW 323 2 min 0,000 mm 3,5 UV-I 715 W/m 12,0 C 21,1 C 4,8 km/h (1 Bft) 98,00 %
10.04.2017 14:36 21,0 C 55 % 1016,4 hPa 0,0 l/m 2,0 km/h (1 Bft) NW 326 2 min 0,000 mm 3,5 UV-I 710 W/m 11,6 C 21,0 C 4,8 km/h (1 Bft) 100,00 %
10.04.2017 14:38 20,9 C 54 % 1016,3 hPa 0,0 l/m 0,8 km/h (0 Bft) N-NW 328 2 min 0,000 mm 3,4 UV-I 700 W/m 11,2 C 20,9 C 1,6 km/h (1 Bft) 95,74 %
10.04.2017 14:40 20,9 C 52 % 1016,3 hPa 0,0 l/m 3,2 km/h (1 Bft) N-NO 28 2 min 0,000 mm 3,4 UV-I 697 W/m 10,7 C 20,9 C 8,0 km/h (2 Bft) 97,87 %
10.04.2017 14:42 20,9 C 53 % 1016,3 hPa 0,0 l/m 0,9 km/h (0 Bft) N-NO 30 2 min 0,000 mm 3,4 UV-I 702 W/m 11,0 C 20,9 C 3,2 km/h (1 Bft) 100,00 %
10.04.2017 14:44 21,1 C 53 % 1016,2 hPa 0,0 l/m 1,0 km/h (0 Bft) N-NO 13 2 min 0,000 mm 3,4 UV-I 698 W/m 11,1 C 21,1 C 3,2 km/h (1 Bft) 97,87 %
10.04.2017 14:46 21,3 C 52 % 1016,2 hPa 0,0 l/m 1,5 km/h (1 Bft) N-NO 13 2 min 0,000 mm 3,4 UV-I 698 W/m 11,0 C 21,3 C 3,2 km/h (1 Bft) 92,11 %
10.04.2017 14:48 21,4 C 52 % 1016,1 hPa 0,0 l/m 1,6 km/h (1 Bft) W-NW 300 2 min 0,000 mm 3,4 UV-I 701 W/m 11,1 C 21,4 C 4,8 km/h (1 Bft) 98,11 %
10.04.2017 14:50 21,3 C 49 % 1016,1 hPa 0,0 l/m 3,2 km/h (1 Bft) NW 304 2 min 0,000 mm 3,3 UV-I 692 W/m 10,1 C 21,3 C 6,4 km/h (2 Bft) 98,11 %
10.04.2017 14:52 21,3 C 49 % 1016,1 hPa 0,0 l/m 3,1 km/h (1 Bft) W-SW 248 2 min 0,000 mm 3,3 UV-I 686 W/m 10,1 C 21,3 C 4,8 km/h (1 Bft) 100,00 %
10.04.2017 14:54 21,2 C 49 % 1016,1 hPa 0,0 l/m 1,9 km/h (1 Bft) S-SO 165 2 min 0,000 mm 3,2 UV-I 684 W/m 10,1 C 21,2 C 6,4 km/h (2 Bft) 100,00 %
10.04.2017 14:56 21,1 C 52 % 1016,1 hPa 0,0 l/m 0,7 km/h (0 Bft) S-SO 165 2 min 0,000 mm 3,2 UV-I 677 W/m 10,9 C 21,1 C 3,2 km/h (1 Bft) 100,00 %
10.04.2017 14:58 21,2 C 53 % 1016,0 hPa 0,0 l/m 2,9 km/h (1 Bft) O 98 2 min 0,000 mm 3,1 UV-I 678 W/m 11,2 C 21,2 C 4,8 km/h (1 Bft) 100,00 %
10.04.2017 15:00 21,6 C 53 % 1016,0 hPa 0,0 l/m 2,2 km/h (1 Bft) O-SO 109 2 min 0,000 mm 3,1 UV-I 674 W/m 11,6 C 21,6 C 6,4 km/h (2 Bft) 100,00 %
10.04.2017 15:02 21,7 C 51 % 1015,9 hPa 0,0 l/m 4,9 km/h (1 Bft) O 80 2 min 0,432 mm 3,1 UV-I 666 W/m 11,1 C 21,7 C 6,4 km/h (2 Bft) 96,15 %
10.04.2017 15:04 21,7 C 53 % 1015,9 hPa 0,0 l/m 5,5 km/h (1 Bft) O-NO 63 2 min 0,000 mm 3,1 UV-I 670 W/m 11,7 C 21,7 C 9,7 km/h (2 Bft) 100,00 %
10.04.2017 15:06 21,8 C 49 % 1015,8 hPa 0,0 l/m 8,8 km/h (2 Bft) O 98 2 min 0,000 mm 3,1 UV-I 672 W/m 10,6 C 21,0 C 12,9 km/h (3 Bft) 98,11 %
10.04.2017 15:08 21,9 C 50 % 1015,8 hPa 0,0 l/m 5,6 km/h (1 Bft) S-SW 207 2 min 0,000 mm 3,0 UV-I 671 W/m 11,0 C 21,9 C 11,3 km/h (2 Bft) 97,14 %
10.04.2017 15:10 22,1 C 48 % 1015,8 hPa 0,0 l/m 3,7 km/h (1 Bft) S-SO 150 2 min 0,000 mm 3,0 UV-I 645 W/m 10,6 C 22,1 C 6,4 km/h (2 Bft) 98,00 %
10.04.2017 15:12 22,1 C 48 % 1015,7 hPa 0,0 l/m 3,4 km/h (1 Bft) O-SO 104 2 min 0,000 mm 2,9 UV-I 648 W/m 10,6 C 22,1 C 6,4 km/h (2 Bft) 98,00 %
10.04.2017 15:14 22,0 C 49 % 1015,7 hPa 0,0 l/m 2,7 km/h (1 Bft) S-SO 153 2 min 0,000 mm 2,8 UV-I 647 W/m 10,8 C 22,0 C 6,4 km/h (2 Bft) 98,00 %
10.04.2017 15:16 22,2 C 48 % 1015,7 hPa 0,0 l/m 7,0 km/h (2 Bft) S-SO 162 2 min 0,000 mm 2,8 UV-I 644 W/m 10,7 C 22,0 C 12,9 km/h (3 Bft) 97,37 %
10.04.2017 15:18 22,2 C 48 % 1015,6 hPa 0,0 l/m 7,3 km/h (2 Bft) O-SO 122 2 min 0,000 mm 2,4 UV-I 637 W/m 10,7 C 21,9 C 14,5 km/h (3 Bft) 94,34 %
10.04.2017 15:20 22,2 C 47 % 1015,5 hPa 0,0 l/m 8,3 km/h (2 Bft) S 175 2 min 0,000 mm 2,8 UV-I 659 W/m 10,3 C 21,6 C 16,1 km/h (3 Bft) 97,73 %
10.04.2017 15:22 22,3 C 48 % 1015,6 hPa 0,0 l/m 6,4 km/h (2 Bft) S-SW 194 2 min 0,000 mm 2,7 UV-I 643 W/m 10,8 C 22,3 C 11,3 km/h (2 Bft) 92,00 %
10.04.2017 15:24 22,6 C 47 % 1015,6 hPa 0,0 l/m 6,5 km/h (2 Bft) S-SW 209 2 min 0,000 mm 2,7 UV-I 641 W/m 10,7 C 22,6 C 8,0 km/h (2 Bft) 97,22 %
10.04.2017 15:26 22,7 C 46 % 1015,6 hPa 0,0 l/m 5,4 km/h (1 Bft) S-SW 201 2 min 0,000 mm 2,6 UV-I 652 W/m 10,5 C 22,7 C 16,1 km/h (3 Bft) 100,00 %
10.04.2017 15:28 22,6 C 46 % 1015,5 hPa 0,0 l/m 2,9 km/h (1 Bft) SO 144 2 min 0,000 mm 2,7 UV-I 653 W/m 10,4 C 22,6 C 8,0 km/h (2 Bft) 95,12 %
10.04.2017 15:30 22,5 C 46 % 1015,5 hPa 0,0 l/m 2,2 km/h (1 Bft) S 190 2 min 0,000 mm 2,6 UV-I 641 W/m 10,3 C 22,5 C 8,0 km/h (2 Bft) 92,68 %
10.04.2017 15:32 22,4 C 47 % 1015,5 hPa 0,0 l/m 1,1 km/h (1 Bft) S-SW 192 2 min 0,000 mm 2,5 UV-I 621 W/m 10,5 C 22,4 C 4,8 km/h (1 Bft) 98,21 %
10.04.2017 15:34 22,7 C 47 % 1015,5 hPa 0,0 l/m 1,9 km/h (1 Bft) W 259 2 min 0,000 mm 2,5 UV-I 617 W/m 10,8 C 22,7 C 3,2 km/h (1 Bft) 100,00 %
10.04.2017 15:36 22,8 C 45 % 1015,4 hPa 0,0 l/m 4,3 km/h (1 Bft) S-SO 150 2 min 0,000 mm 2,5 UV-I 616 W/m 10,2 C 22,8 C 9,7 km/h (2 Bft) 97,87 %
10.04.2017 15:38 22,7 C 46 % 1015,3 hPa 0,0 l/m 1,4 km/h (1 Bft) S 190 2 min 0,000 mm 2,4 UV-I 603 W/m 10,5 C 22,7 C 4,8 km/h (1 Bft) 100,00 %
10.04.2017 15:40 22,9 C 41 % 1015,3 hPa 0,0 l/m 12,2 km/h (2 Bft) W 265 2 min 0,000 mm 2,3 UV-I 596 W/m 8,9 C 21,3 C 25,7 km/h (4 Bft) 95,31 %
10.04.2017 15:42 23,1 C 42 % 1015,3 hPa 0,0 l/m 8,9 km/h (2 Bft) W 279 2 min 0,000 mm 2,3 UV-I 611 W/m 9,5 C 22,4 C 14,5 km/h (3 Bft) 95,24 %
10.04.2017 15:44 23,2 C 44 % 1015,2 hPa 0,0 l/m 7,3 km/h (2 Bft) SW 234 2 min 0,000 mm 2,3 UV-I 620 W/m 10,3 C 22,9 C 12,9 km/h (3 Bft) 94,00 %
10.04.2017 15:46 23,2 C 43 % 1015,2 hPa 0,0 l/m 4,9 km/h (1 Bft) W 275 2 min 0,000 mm 2,2 UV-I 597 W/m 9,9 C 23,2 C 11,3 km/h (2 Bft) 92,68 %
10.04.2017 15:48 23,2 C 41 % 1015,3 hPa 0,0 l/m 12,1 km/h (2 Bft) W 272 2 min 0,000 mm 2,1 UV-I 586 W/m 9,2 C 21,7 C 17,7 km/h (3 Bft) 91,07 %
10.04.2017 15:50 23,2 C 42 % 1015,2 hPa 0,0 l/m 11,5 km/h (2 Bft) W 263 2 min 0,000 mm 2,2 UV-I 576 W/m 9,6 C 21,8 C 16,1 km/h (3 Bft) 92,68 %
10.04.2017 15:52 23,2 C 39 % 1015,2 hPa 0,0 l/m 8,9 km/h (2 Bft) W 262 2 min 0,000 mm 2,0 UV-I 558 W/m 8,5 C 22,5 C 12,9 km/h (3 Bft) 96,00 %
10.04.2017 15:54 23,3 C 40 % 1015,1 hPa 0,0 l/m 12,6 km/h (3 Bft) W 273 2 min 0,000 mm 2,1 UV-I 560 W/m 8,9 C 21,7 C 20,9 km/h (4 Bft) 97,73 %
10.04.2017 15:56 23,3 C 40 % 1015,0 hPa 0,0 l/m 9,2 km/h (2 Bft) W 263 2 min 0,000 mm 2,1 UV-I 555 W/m 8,9 C 22,5 C 16,1 km/h (3 Bft) 92,68 %
10.04.2017 15:58 23,3 C 40 % 1015,0 hPa 0,0 l/m 11,4 km/h (2 Bft) W-SW 254 2 min 0,000 mm 2,1 UV-I 553 W/m 8,9 C 22,0 C 16,1 km/h (3 Bft) 94,64 %
10.04.2017 16:00 23,4 C 39 % 1015,0 hPa 0,0 l/m 12,6 km/h (3 Bft) W-SW 242 2 min 0,406 mm 2,1 UV-I 560 W/m 8,6 C 21,8 C 19,3 km/h (3 Bft) 94,74 %
10.04.2017 16:02 23,3 C 40 % 1015,0 hPa 0,0 l/m 8,6 km/h (2 Bft) SW 236 2 min 0,000 mm 2,1 UV-I 559 W/m 8,9 C 22,6 C 12,9 km/h (3 Bft) 94,92 %
10.04.2017 16:04 23,4 C 39 % 1015,0 hPa 0,0 l/m 14,5 km/h (3 Bft) W-SW 254 2 min 0,000 mm 2,0 UV-I 548 W/m 8,6 C 21,5 C 27,4 km/h (4 Bft) 95,12 %
10.04.2017 16:06 23,4 C 39 % 1014,9 hPa 0,0 l/m 13,7 km/h (3 Bft) W-SW 241 2 min 0,000 mm 2,0 UV-I 545 W/m 8,6 C 21,6 C 24,1 km/h (4 Bft) 92,00 %
10.04.2017 16:08 23,4 C 38 % 1014,9 hPa 0,0 l/m 16,0 km/h (3 Bft) W-NW 297 2 min 0,000 mm 1,9 UV-I 548 W/m 8,3 C 21,2 C 25,7 km/h (4 Bft) 96,00 %
10.04.2017 16:10 23,4 C 38 % 1014,8 hPa 0,0 l/m 14,0 km/h (3 Bft) W 271 2 min 0,000 mm 1,9 UV-I 542 W/m 8,3 C 21,5 C 25,7 km/h (4 Bft) 93,18 %
10.04.2017 16:12 23,3 C 39 % 1014,8 hPa 0,0 l/m 6,1 km/h (2 Bft) W-SW 239 2 min 0,000 mm 1,8 UV-I 537 W/m 8,6 C 23,3 C 14,5 km/h (3 Bft) 95,12 %
10.04.2017 16:14 23,3 C 39 % 1014,8 hPa 0,0 l/m 7,5 km/h (2 Bft) W-NW 289 2 min 0,000 mm 1,8 UV-I 535 W/m 8,6 C 23,0 C 11,3 km/h (2 Bft) 95,92 %
10.04.2017 16:16 23,3 C 42 % 1014,8 hPa 0,0 l/m 3,3 km/h (1 Bft) W-SW 250 2 min 0,000 mm 1,8 UV-I 541 W/m 9,7 C 23,3 C 9,7 km/h (2 Bft) 96,00 %
10.04.2017 16:18 23,2 C 41 % 1014,8 hPa 0,0 l/m 7,0 km/h (2 Bft) W-SW 258 2 min 0,000 mm 1,8 UV-I 547 W/m 9,2 C 23,0 C 11,3 km/h (2 Bft) 97,87 %
10.04.2017 16:20 23,1 C 42 % 1014,8 hPa 0,0 l/m 4,5 km/h (1 Bft) W-SW 252 2 min 0,000 mm 1,4 UV-I 545 W/m 9,5 C 23,1 C 9,7 km/h (2 Bft) 94,87 %
10.04.2017 16:22 22,9 C 41 % 1014,8 hPa 0,0 l/m 3,3 km/h (1 Bft) W-NW 300 2 min 0,000 mm 1,6 UV-I 531 W/m 8,9 C 22,9 C 12,9 km/h (3 Bft) 98,11 %
10.04.2017 16:24 22,7 C 44 % 1014,8 hPa 0,0 l/m 3,6 km/h (1 Bft) W-NW 286 2 min 0,000 mm 1,7 UV-I 518 W/m 9,8 C 22,7 C 6,4 km/h (2 Bft) 91,30 %
10.04.2017 16:26 22,7 C 45 % 1014,8 hPa 0,0 l/m 3,4 km/h (1 Bft) W 271 2 min 0,000 mm 1,6 UV-I 494 W/m 10,1 C 22,7 C 9,7 km/h (2 Bft) 95,59 %
10.04.2017 16:28 22,8 C 46 % 1014,8 hPa 0,0 l/m 4,3 km/h (1 Bft) W-SW 237 2 min 0,000 mm 1,4 UV-I 483 W/m 10,6 C 22,8 C 16,1 km/h (3 Bft) 95,12 %
10.04.2017 16:30 22,8 C 43 % 1014,7 hPa 0,0 l/m 10,9 km/h (2 Bft) W 278 2 min 0,000 mm 1,5 UV-I 480 W/m 9,6 C 21,5 C 16,1 km/h (3 Bft) 92,86 %
10.04.2017 16:32 22,7 C 41 % 1014,7 hPa 0,0 l/m 3,0 km/h (1 Bft) W 272 2 min 0,000 mm 1,4 UV-I 462 W/m 8,8 C 22,7 C 4,8 km/h (1 Bft) 100,00 %
10.04.2017 16:34 22,8 C 43 % 1014,6 hPa 0,0 l/m 4,2 km/h (1 Bft) NW 321 2 min 0,000 mm 1,4 UV-I 457 W/m 9,6 C 22,8 C 11,3 km/h (2 Bft) 95,38 %
10.04.2017 16:36 22,8 C 44 % 1014,6 hPa 0,0 l/m 4,0 km/h (1 Bft) W-NW 286 2 min 0,000 mm 1,4 UV-I 460 W/m 9,9 C 22,8 C 8,0 km/h (2 Bft) 95,74 %
10.04.2017 16:38 22,8 C 43 % 1014,6 hPa 0,0 l/m 3,2 km/h (1 Bft) NW 322 2 min 0,000 mm 1,4 UV-I 450 W/m 9,6 C 22,8 C 6,4 km/h (2 Bft) 97,56 %
10.04.2017 16:40 22,7 C 45 % 1014,6 hPa 0,0 l/m 4,8 km/h (1 Bft) W-NW 284 2 min 0,000 mm 1,4 UV-I 446 W/m 10,1 C 22,7 C 9,7 km/h (2 Bft) 98,11 %
10.04.2017 16:42 22,7 C 48 % 1014,6 hPa 0,0 l/m 2,3 km/h (1 Bft) N-NW 338 2 min 0,000 mm 1,3 UV-I 432 W/m 11,1 C 22,7 C 11,3 km/h (2 Bft) 97,96 %
10.04.2017 16:44 22,6 C 46 % 1014,6 hPa 0,0 l/m 5,8 km/h (2 Bft) W-NW 282 2 min 0,000 mm 1,3 UV-I 417 W/m 10,4 C 22,6 C 14,5 km/h (3 Bft) 97,56 %
10.04.2017 16:46 22,6 C 45 % 1014,6 hPa 0,0 l/m 3,8 km/h (1 Bft) W-SW 238 2 min 0,000 mm 1,3 UV-I 422 W/m 10,1 C 22,6 C 4,8 km/h (1 Bft) 95,12 %
10.04.2017 16:48 22,7 C 46 % 1014,5 hPa 0,0 l/m 2,8 km/h (1 Bft) SW 233 2 min 0,000 mm 1,3 UV-I 415 W/m 10,5 C 22,7 C 9,7 km/h (2 Bft) 98,00 %
10.04.2017 16:50 22,7 C 44 % 1014,5 hPa 0,0 l/m 5,1 km/h (1 Bft) W-NW 285 2 min 0,000 mm 1,3 UV-I 416 W/m 9,8 C 22,7 C 11,3 km/h (2 Bft) 100,00 %
10.04.2017 16:52 22,8 C 46 % 1014,5 hPa 0,0 l/m 5,0 km/h (1 Bft) NW 325 2 min 0,000 mm 1,3 UV-I 418 W/m 10,6 C 22,8 C 14,5 km/h (3 Bft) 97,44 %
10.04.2017 16:54 22,7 C 43 % 1014,5 hPa 0,0 l/m 6,1 km/h (2 Bft) W 264 2 min 0,000 mm 1,2 UV-I 406 W/m 9,5 C 22,7 C 11,3 km/h (2 Bft) 96,15 %
10.04.2017 16:56 22,7 C 40 % 1014,4 hPa 0,0 l/m 10,7 km/h (2 Bft) W-SW 258 2 min 0,000 mm 1,2 UV-I 397 W/m 8,4 C 21,4 C 14,5 km/h (3 Bft) 100,00 %
10.04.2017 16:58 22,8 C 41 % 1014,4 hPa 0,0 l/m 4,8 km/h (1 Bft) NW 306 2 min 0,000 mm 1,1 UV-I 397 W/m 8,9 C 22,8 C 12,9 km/h (3 Bft) 96,36 %
10.04.2017 17:00 22,8 C 44 % 1014,4 hPa 0,0 l/m 2,9 km/h (1 Bft) W 279 2 min 0,000 mm 1,1 UV-I 388 W/m 9,9 C 22,8 C 4,8 km/h (1 Bft) 97,62 %
10.04.2017 17:02 22,8 C 43 % 1014,4 hPa 0,0 l/m 4,0 km/h (1 Bft) W-NW 288 2 min 0,331 mm 1,1 UV-I 377 W/m 9,6 C 22,8 C 6,4 km/h (2 Bft) 98,00 %
10.04.2017 17:04 22,7 C 42 % 1014,3 hPa 0,0 l/m 4,5 km/h (1 Bft) W 271 2 min 0,000 mm 1,0 UV-I 367 W/m 9,1 C 22,7 C 8,0 km/h (2 Bft) 96,23 %
10.04.2017 17:06 22,6 C 45 % 1014,3 hPa 0,0 l/m 1,2 km/h (1 Bft) W 271 2 min 0,000 mm 1,0 UV-I 365 W/m 10,1 C 22,6 C 4,8 km/h (1 Bft) 100,00 %
10.04.2017 17:08 22,6 C 44 % 1014,3 hPa 0,0 l/m 2,3 km/h (1 Bft) W-SW 254 2 min 0,000 mm 1,0 UV-I 358 W/m 9,7 C 22,6 C 6,4 km/h (2 Bft) 97,87 %
10.04.2017 17:10 22,5 C 45 % 1014,2 hPa 0,0 l/m 5,0 km/h (1 Bft) NW 308 2 min 0,000 mm 1,0 UV-I 348 W/m 10,0 C 22,5 C 11,3 km/h (2 Bft) 100,00 %
10.04.2017 17:12 22,5 C 41 % 1014,2 hPa 0,0 l/m 7,3 km/h (2 Bft) W-SW 245 2 min 0,000 mm 0,9 UV-I 341 W/m 8,6 C 22,2 C 11,3 km/h (2 Bft) 98,11 %
10.04.2017 17:14 22,4 C 41 % 1014,2 hPa 0,0 l/m 6,6 km/h (2 Bft) W-NW 288 2 min 0,000 mm 0,9 UV-I 339 W/m 8,5 C 22,3 C 11,3 km/h (2 Bft) 100,00 %
10.04.2017 17:16 22,5 C 42 % 1014,2 hPa 0,0 l/m 4,9 km/h (1 Bft) W-NW 296 2 min 0,000 mm 0,9 UV-I 337 W/m 8,9 C 22,5 C 9,7 km/h (2 Bft) 96,23 %
10.04.2017 17:18 22,6 C 47 % 1014,1 hPa 0,0 l/m 2,6 km/h (1 Bft) W-NW 290 2 min 0,000 mm 0,8 UV-I 335 W/m 10,7 C 22,6 C 4,8 km/h (1 Bft) 100,00 %
10.04.2017 17:20 22,4 C 49 % 1014,2 hPa 0,0 l/m 1,8 km/h (1 Bft) NW 316 2 min 0,000 mm 0,8 UV-I 317 W/m 11,2 C 22,4 C 3,2 km/h (1 Bft) 98,11 %
10.04.2017 17:22 22,3 C 49 % 1014,1 hPa 0,0 l/m 2,0 km/h (1 Bft) W-NW 298 0 min 0,000 mm 0,7 UV-I 206 W/m 11,1 C 22,3 C 4,8 km/h (1 Bft) 97,87 %
10.04.2017 17:24 22,1 C 45 % 1014,1 hPa 0,0 l/m 5,7 km/h (1 Bft) NW 316 0 min 0,000 mm 0,7 UV-I 146 W/m 9,6 C 22,1 C 16,1 km/h (3 Bft) 97,14 %
10.04.2017 17:26 21,9 C 46 % 1014,1 hPa 0,0 l/m 2,4 km/h (1 Bft) NW 305 0 min 0,000 mm 0,6 UV-I 150 W/m 9,7 C 21,9 C 4,8 km/h (1 Bft) 98,21 %
10.04.2017 17:28 21,7 C 45 % 1014,2 hPa 0,0 l/m 4,6 km/h (1 Bft) W-NW 300 2 min 0,000 mm 0,6 UV-I 209 W/m 9,2 C 21,7 C 11,3 km/h (2 Bft) 92,68 %
10.04.2017 17:30 21,7 C 46 % 1014,1 hPa 0,0 l/m 3,2 km/h (1 Bft) NW 317 2 min 0,000 mm 0,6 UV-I 218 W/m 9,6 C 21,7 C 6,4 km/h (2 Bft) 100,00 %
10.04.2017 17:32 21,6 C 46 % 1014,1 hPa 0,0 l/m 3,4 km/h (1 Bft) NW 309 0 min 0,000 mm 0,5 UV-I 80 W/m 9,5 C 21,6 C 6,4 km/h (2 Bft) 98,00 %
10.04.2017 17:34 21,3 C 47 % 1014,1 hPa 0,0 l/m 3,6 km/h (1 Bft) NW 313 0 min 0,000 mm 0,3 UV-I 58 W/m 9,5 C 21,3 C 6,4 km/h (2 Bft) 100,00 %
10.04.2017 17:36 21,0 C 47 % 1014,1 hPa 0,0 l/m 2,3 km/h (1 Bft) N-NW 330 0 min 0,000 mm 0,0 UV-I 50 W/m 9,3 C 21,0 C 4,8 km/h (1 Bft) 98,11 %
10.04.2017 17:38 20,9 C 47 % 1014,1 hPa 0,0 l/m 1,2 km/h (1 Bft) N-NW 330 0 min 0,000 mm 0,0 UV-I 46 W/m 9,2 C 20,9 C 3,2 km/h (1 Bft) 94,44 %
10.04.2017 17:40 20,8 C 47 % 1014,1 hPa 0,0 l/m 2,6 km/h (1 Bft) NW 304 0 min 0,000 mm 0,0 UV-I 44 W/m 9,1 C 20,8 C 4,8 km/h (1 Bft) 98,00 %
10.04.2017 17:42 20,8 C 48 % 1014,1 hPa 0,0 l/m 1,1 km/h (1 Bft) W-NW 303 0 min 0,000 mm 0,0 UV-I 46 W/m 9,4 C 20,8 C 3,2 km/h (1 Bft) 94,34 %
10.04.2017 17:44 20,8 C 46 % 1014,1 hPa 0,0 l/m 1,6 km/h (1 Bft) W-NW 288 0 min 0,000 mm 0,0 UV-I 46 W/m 8,8 C 20,8 C 4,8 km/h (1 Bft) 98,00 %
10.04.2017 17:46 20,7 C 48 % 1014,1 hPa 0,0 l/m 0,9 km/h (0 Bft) N-NO 16 0 min 0,000 mm 0,0 UV-I 48 W/m 9,3 C 20,7 C 4,8 km/h (1 Bft) 95,74 %
10.04.2017 17:48 20,6 C 48 % 1014,1 hPa 0,0 l/m 2,8 km/h (1 Bft) W 281 0 min 0,000 mm 0,0 UV-I 51 W/m 9,2 C 20,6 C 6,4 km/h (2 Bft) 94,74 %
10.04.2017 17:50 20,6 C 48 % 1014,1 hPa 0,0 l/m 3,1 km/h (1 Bft) W 281 0 min 0,000 mm 0,0 UV-I 64 W/m 9,2 C 20,6 C 4,8 km/h (1 Bft) 94,00 %
10.04.2017 17:52 20,7 C 49 % 1014,0 hPa 0,0 l/m 2,9 km/h (1 Bft) W 281 0 min 0,000 mm 0,0 UV-I 147 W/m 9,6 C 20,7 C 4,8 km/h (1 Bft) 95,74 %
10.04.2017 17:54 20,8 C 48 % 1014,0 hPa 0,0 l/m 4,1 km/h (1 Bft) W 262 2 min 0,000 mm 0,0 UV-I 195 W/m 9,4 C 20,8 C 6,4 km/h (2 Bft) 98,11 %
10.04.2017 17:56 21,1 C 47 % 1014,0 hPa 0,0 l/m 3,5 km/h (1 Bft) W 262 0 min 0,000 mm 0,0 UV-I 164 W/m 9,3 C 21,1 C 4,8 km/h (1 Bft) 92,11 %
10.04.2017 17:58 21,2 C 46 % 1013,9 hPa 0,0 l/m 4,1 km/h (1 Bft) W-SW 257 0 min 0,000 mm 0,0 UV-I 142 W/m 9,1 C 21,2 C 6,4 km/h (2 Bft) 98,21 %
10.04.2017 18:00 21,3 C 46 % 1013,8 hPa 0,0 l/m 4,6 km/h (1 Bft) W 265 0 min 0,152 mm 0,0 UV-I 146 W/m 9,2 C 21,3 C 6,4 km/h (2 Bft) 94,74 %
10.04.2017 18:02 21,4 C 44 % 1013,7 hPa 0,0 l/m 5,2 km/h (1 Bft) W 280 2 min 0,000 mm 0,0 UV-I 205 W/m 8,6 C 21,4 C 8,0 km/h (2 Bft) 98,00 %
10.04.2017 18:04 21,6 C 45 % 1013,7 hPa 0,0 l/m 3,2 km/h (1 Bft) W-NW 284 0 min 0,000 mm 0,0 UV-I 132 W/m 9,2 C 21,6 C 6,4 km/h (2 Bft) 97,37 %
10.04.2017 18:06 21,6 C 44 % 1013,7 hPa 0,0 l/m 3,2 km/h (1 Bft) W-NW 283 0 min 0,000 mm 0,0 UV-I 102 W/m 8,8 C 21,6 C 6,4 km/h (2 Bft) 96,61 %
10.04.2017 18:08 21,6 C 44 % 1013,6 hPa 0,0 l/m 3,5 km/h (1 Bft) W 265 0 min 0,000 mm 0,0 UV-I 109 W/m 8,8 C 21,6 C 4,8 km/h (1 Bft) 100,00 %
10.04.2017 18:10 21,6 C 43 % 1013,6 hPa 0,0 l/m 3,3 km/h (1 Bft) W 265 0 min 0,000 mm 0,0 UV-I 100 W/m 8,5 C 21,6 C 6,4 km/h (2 Bft) 95,52 %
10.04.2017 18:12 21,5 C 44 % 1013,6 hPa 0,0 l/m 5,1 km/h (1 Bft) W-SW 257 0 min 0,000 mm 0,0 UV-I 87 W/m 8,7 C 21,5 C 9,7 km/h (2 Bft) 100,00 %
10.04.2017 18:14 21,4 C 44 % 1013,6 hPa 0,0 l/m 4,9 km/h (1 Bft) W-SW 257 0 min 0,000 mm 0,0 UV-I 79 W/m 8,6 C 21,4 C 8,0 km/h (2 Bft) 100,00 %
10.04.2017 18:16 21,4 C 45 % 1013,6 hPa 0,0 l/m 3,7 km/h (1 Bft) W-SW 256 0 min 0,000 mm 0,0 UV-I 74 W/m 9,0 C 21,4 C 6,4 km/h (2 Bft) 100,00 %
10.04.2017 18:18 21,3 C 46 % 1013,7 hPa 0,0 l/m 4,8 km/h (1 Bft) W-SW 244 0 min 0,000 mm 0,0 UV-I 67 W/m 9,2 C 21,3 C 6,4 km/h (2 Bft) 100,00 %
10.04.2017 18:20 21,2 C 47 % 1013,7 hPa 0,0 l/m 6,9 km/h (2 Bft) S-SO 162 0 min 0,000 mm 0,0 UV-I 61 W/m 9,4 C 21,0 C 11,3 km/h (2 Bft) 100,00 %
10.04.2017 18:22 20,8 C 45 % 1013,8 hPa 0,0 l/m 8,7 km/h (2 Bft) S-SW 204 0 min 0,000 mm 0,0 UV-I 54 W/m 8,4 C 19,9 C 12,9 km/h (3 Bft) 100,00 %
10.04.2017 18:24 20,7 C 45 % 1013,7 hPa 0,0 l/m 6,6 km/h (2 Bft) S 174 0 min 0,000 mm 0,0 UV-I 46 W/m 8,3 C 20,6 C 12,9 km/h (3 Bft) 100,00 %
10.04.2017 18:26 20,3 C 45 % 1013,7 hPa 0,0 l/m 6,8 km/h (2 Bft) SW 224 0 min 0,000 mm 0,0 UV-I 38 W/m 8,0 C 20,1 C 12,9 km/h (3 Bft) 90,91 %
10.04.2017 18:28 20,2 C 46 % 1013,7 hPa 0,0 l/m 7,0 km/h (2 Bft) SW 215 0 min 0,000 mm 0,0 UV-I 33 W/m 8,2 C 20,0 C 12,9 km/h (3 Bft) 94,34 %
10.04.2017 18:30 20,0 C 46 % 1013,7 hPa 0,0 l/m 5,7 km/h (1 Bft) S-SW 212 0 min 0,000 mm 0,0 UV-I 33 W/m 8,0 C 20,0 C 11,3 km/h (2 Bft) 94,00 %
10.04.2017 18:32 19,9 C 45 % 1013,7 hPa 0,0 l/m 6,8 km/h (2 Bft) S-SW 211 0 min 0,000 mm 0,0 UV-I 33 W/m 7,6 C 19,7 C 9,7 km/h (2 Bft) 100,00 %
10.04.2017 18:34 19,8 C 46 % 1013,7 hPa 0,0 l/m 4,7 km/h (1 Bft) S-SW 212 0 min 0,000 mm 0,0 UV-I 35 W/m 7,8 C 19,8 C 9,7 km/h (2 Bft) 95,74 %
10.04.2017 18:36 19,6 C 46 % 1013,7 hPa 0,0 l/m 6,7 km/h (2 Bft) S 188 0 min 0,000 mm 0,0 UV-I 35 W/m 7,7 C 19,5 C 14,5 km/h (3 Bft) 100,00 %
10.04.2017 18:38 19,6 C 44 % 1013,7 hPa 0,0 l/m 9,4 km/h (2 Bft) SW 225 0 min 0,000 mm 0,0 UV-I 34 W/m 7,0 C 18,4 C 14,5 km/h (3 Bft) 100,00 %
10.04.2017 18:40 19,6 C 44 % 1013,7 hPa 0,0 l/m 9,5 km/h (2 Bft) SW 225 0 min 0,000 mm 0,0 UV-I 34 W/m 7,0 C 18,4 C 14,5 km/h (3 Bft) 96,23 %
10.04.2017 18:42 19,6 C 45 % 1013,7 hPa 0,0 l/m 5,5 km/h (1 Bft) S-SW 207 0 min 0,000 mm 0,0 UV-I 34 W/m 7,3 C 19,6 C 8,0 km/h (2 Bft) 93,18 %
10.04.2017 18:44 19,4 C 45 % 1013,7 hPa 0,0 l/m 7,1 km/h (2 Bft) S-SW 198 0 min 0,000 mm 0,0 UV-I 33 W/m 7,2 C 19,1 C 16,1 km/h (3 Bft) 96,00 %
10.04.2017 18:46 19,3 C 45 % 1013,7 hPa 0,0 l/m 6,1 km/h (2 Bft) S 187 0 min 0,000 mm 0,0 UV-I 33 W/m 7,1 C 19,3 C 11,3 km/h (2 Bft) 100,00 %
10.04.2017 18:48 19,3 C 46 % 1013,7 hPa 0,0 l/m 10,7 km/h (2 Bft) S-SW 192 0 min 0,000 mm 0,0 UV-I 36 W/m 7,4 C 17,6 C 17,7 km/h (3 Bft) 100,00 %
10.04.2017 18:50 19,2 C 46 % 1013,7 hPa 0,0 l/m 8,2 km/h (2 Bft) S-SW 213 0 min 0,000 mm 0,0 UV-I 42 W/m 7,3 C 18,4 C 12,9 km/h (3 Bft) 100,00 %
10.04.2017 18:52 19,1 C 47 % 1013,7 hPa 0,0 l/m 8,0 km/h (2 Bft) S-SW 199 0 min 0,000 mm 0,0 UV-I 54 W/m 7,5 C 18,4 C 12,9 km/h (3 Bft) 94,34 %
10.04.2017 18:54 18,9 C 47 % 1013,7 hPa 0,0 l/m 6,7 km/h (2 Bft) S-SW 202 2 min 0,000 mm 0,0 UV-I 87 W/m 7,3 C 18,8 C 11,3 km/h (2 Bft) 92,31 %
10.04.2017 18:56 18,9 C 48 % 1013,7 hPa 0,0 l/m 9,0 km/h (2 Bft) S-SW 194 2 min 0,000 mm 0,0 UV-I 130 W/m 7,6 C 17,8 C 14,5 km/h (3 Bft) 100,00 %
10.04.2017 18:58 18,9 C 48 % 1013,6 hPa 0,0 l/m 8,4 km/h (2 Bft) SW 217 2 min 0,000 mm 0,0 UV-I 145 W/m 7,6 C 18,0 C 14,5 km/h (3 Bft) 100,00 %
10.04.2017 19:00 18,9 C 48 % 1013,6 hPa 0,0 l/m 10,1 km/h (2 Bft) S-SW 199 2 min 0,000 mm 0,0 UV-I 108 W/m 7,6 C 17,4 C 17,7 km/h (3 Bft) 96,43 %
10.04.2017 19:02 18,9 C 49 % 1013,6 hPa 0,0 l/m 11,5 km/h (2 Bft) S-SW 193 2 min 0,102 mm 0,0 UV-I 87 W/m 7,9 C 16,9 C 17,7 km/h (3 Bft) 98,11 %
10.04.2017 19:04 18,9 C 49 % 1013,6 hPa 0,0 l/m 6,7 km/h (2 Bft) S-SW 207 2 min 0,000 mm 0,0 UV-I 80 W/m 7,9 C 18,8 C 11,3 km/h (2 Bft) 95,12 %
10.04.2017 19:06 18,8 C 48 % 1013,6 hPa 0,0 l/m 9,0 km/h (2 Bft) S 175 2 min 0,000 mm 0,0 UV-I 76 W/m 7,6 C 17,7 C 14,5 km/h (3 Bft) 98,11 %
10.04.2017 19:08 18,8 C 48 % 1013,6 hPa 0,0 l/m 7,0 km/h (2 Bft) S-SW 205 2 min 0,000 mm 0,0 UV-I 90 W/m 7,6 C 18,5 C 11,3 km/h (2 Bft) 100,00 %
10.04.2017 19:10 18,8 C 49 % 1013,6 hPa 0,0 l/m 7,0 km/h (2 Bft) S-SW 202 2 min 0,000 mm 0,0 UV-I 95 W/m 7,9 C 18,5 C 11,3 km/h (2 Bft) 100,00 %
10.04.2017 19:12 18,8 C 49 % 1013,7 hPa 0,0 l/m 7,8 km/h (2 Bft) S-SW 208 2 min 0,000 mm 0,0 UV-I 92 W/m 7,9 C 18,2 C 9,7 km/h (2 Bft) 97,73 %
10.04.2017 19:14 18,7 C 50 % 1013,7 hPa 0,0 l/m 7,8 km/h (2 Bft) S-SW 208 2 min 0,000 mm 0,0 UV-I 88 W/m 8,1 C 18,1 C 11,3 km/h (2 Bft) 98,21 %
10.04.2017 19:16 18,7 C 49 % 1013,8 hPa 0,0 l/m 10,8 km/h (2 Bft) SW 217 2 min 0,000 mm 0,0 UV-I 77 W/m 7,8 C 16,9 C 19,3 km/h (3 Bft) 93,62 %
10.04.2017 19:18 18,8 C 46 % 1013,9 hPa 0,0 l/m 13,5 km/h (3 Bft) S-SW 200 2 min 0,000 mm 0,0 UV-I 71 W/m 6,9 C 16,2 C 24,1 km/h (4 Bft) 97,37 %
10.04.2017 19:20 18,8 C 46 % 1013,8 hPa 0,0 l/m 12,8 km/h (3 Bft) S-SW 213 2 min 0,000 mm 0,0 UV-I 70 W/m 6,9 C 16,4 C 19,3 km/h (3 Bft) 100,00 %
10.04.2017 19:22 18,8 C 45 % 1013,8 hPa 0,0 l/m 14,1 km/h (3 Bft) S-SO 159 2 min 0,000 mm 0,0 UV-I 67 W/m 6,6 C 16,0 C 25,7 km/h (4 Bft) 98,00 %
10.04.2017 19:24 18,8 C 45 % 1013,7 hPa 0,0 l/m 8,0 km/h (2 Bft) S-SO 159 2 min 0,000 mm 0,0 UV-I 64 W/m 6,6 C 18,1 C 12,9 km/h (3 Bft) 98,00 %
10.04.2017 19:26 18,8 C 45 % 1013,6 hPa 0,0 l/m 7,4 km/h (2 Bft) S-SO 163 2 min 0,000 mm 0,0 UV-I 62 W/m 6,6 C 18,4 C 12,9 km/h (3 Bft) 100,00 %
10.04.2017 19:28 18,7 C 46 % 1013,6 hPa 0,0 l/m 8,3 km/h (2 Bft) S-SW 192 2 min 0,000 mm 0,0 UV-I 54 W/m 6,8 C 17,9 C 14,5 km/h (3 Bft) 98,00 %
10.04.2017 19:30 18,6 C 47 % 1013,6 hPa 0,0 l/m 11,2 km/h (2 Bft) S-SW 209 2 min 0,000 mm 0,0 UV-I 44 W/m 7,1 C 16,7 C 20,9 km/h (4 Bft) 97,44 %
10.04.2017 19:32 18,4 C 48 % 1013,6 hPa 0,0 l/m 12,0 km/h (2 Bft) SW 229 2 min 0,000 mm 0,0 UV-I 36 W/m 7,2 C 16,2 C 19,3 km/h (3 Bft) 98,00 %
10.04.2017 19:34 18,2 C 49 % 1013,7 hPa 0,0 l/m 12,0 km/h (2 Bft) S-SW 200 2 min 0,000 mm 0,0 UV-I 27 W/m 7,3 C 16,0 C 22,5 km/h (4 Bft) 98,08 %
10.04.2017 19:36 18,1 C 50 % 1013,7 hPa 0,0 l/m 9,3 km/h (2 Bft) S 184 2 min 0,000 mm 0,0 UV-I 22 W/m 7,5 C 16,8 C 19,3 km/h (3 Bft) 95,24 %
10.04.2017 19:38 17,9 C 51 % 1013,6 hPa 0,0 l/m 6,9 km/h (2 Bft) S-SW 205 0 min 0,000 mm 0,0 UV-I 16 W/m 7,6 C 17,7 C 12,9 km/h (3 Bft) 96,36 %
10.04.2017 19:40 17,8 C 52 % 1013,6 hPa 0,0 l/m 8,0 km/h (2 Bft) S-SW 200 0 min 0,000 mm 0,0 UV-I 13 W/m 7,8 C 17,0 C 12,9 km/h (3 Bft) 97,62 %
10.04.2017 19:42 17,7 C 52 % 1013,6 hPa 0,0 l/m 7,9 km/h (2 Bft) S-SO 157 0 min 0,000 mm 0,0 UV-I 11 W/m 7,7 C 17,0 C 14,5 km/h (3 Bft) 94,34 %
10.04.2017 19:44 17,6 C 53 % 1013,6 hPa 0,0 l/m 8,0 km/h (2 Bft) S 172 0 min 0,000 mm 0,0 UV-I 8 W/m 7,9 C 16,8 C 12,9 km/h (3 Bft) 92,11 %
10.04.2017 19:46 17,5 C 53 % 1013,6 hPa 0,0 l/m 7,2 km/h (2 Bft) S-SO 147 0 min 0,000 mm 0,0 UV-I 7 W/m 7,8 C 17,1 C 12,9 km/h (3 Bft) 98,00 %
10.04.2017 19:48 17,4 C 53 % 1013,5 hPa 0,0 l/m 6,6 km/h (2 Bft) S-SO 161 0 min 0,000 mm 0,0 UV-I 7 W/m 7,7 C 17,3 C 12,9 km/h (3 Bft) 97,56 %
10.04.2017 19:50 17,4 C 53 % 1013,5 hPa 0,0 l/m 5,6 km/h (1 Bft) S 170 0 min 0,000 mm 0,0 UV-I 5 W/m 7,7 C 17,4 C 9,7 km/h (2 Bft) 98,11 %
10.04.2017 19:52 17,4 C 53 % 1013,5 hPa 0,0 l/m 5,9 km/h (2 Bft) S 169 0 min 0,000 mm 0,0 UV-I 5 W/m 7,7 C 17,4 C 9,7 km/h (2 Bft) 87,80 %
10.04.2017 19:54 17,4 C 53 % 1013,5 hPa 0,0 l/m 4,7 km/h (1 Bft) S 175 0 min 0,000 mm 0,0 UV-I 5 W/m 7,7 C 17,4 C 9,7 km/h (2 Bft) 94,64 %
10.04.2017 19:56 17,3 C 53 % 1013,5 hPa 0,0 l/m 4,3 km/h (1 Bft) S-SO 168 0 min 0,000 mm 0,0 UV-I 5 W/m 7,6 C 17,3 C 6,4 km/h (2 Bft) 95,74 %
10.04.2017 19:58 17,3 C 54 % 1013,5 hPa 0,0 l/m 2,4 km/h (1 Bft) S-SW 197 0 min 0,000 mm 0,0 UV-I 3 W/m 7,9 C 17,3 C 6,4 km/h (2 Bft) 94,59 %
10.04.2017 20:00 17,3 C 53 % 1013,4 hPa 0,0 l/m 3,1 km/h (1 Bft) S 177 0 min 0,000 mm 0,0 UV-I 0 W/m 7,6 C 17,3 C 8,0 km/h (2 Bft) 93,18 %
10.04.2017 20:02 17,2 C 54 % 1013,5 hPa 0,0 l/m 1,7 km/h (1 Bft) S 175 0 min 0,076 mm 0,0 UV-I 0 W/m 7,8 C 17,2 C 4,8 km/h (1 Bft) 96,23 %
10.04.2017 20:04 17,2 C 54 % 1013,5 hPa 0,0 l/m 1,4 km/h (1 Bft) S 175 0 min 0,000 mm 0,0 UV-I 0 W/m 7,8 C 17,2 C 3,2 km/h (1 Bft) 90,91 %
10.04.2017 20:06 17,2 C 54 % 1013,5 hPa 0,0 l/m 1,7 km/h (1 Bft) S 175 0 min 0,000 mm 0,0 UV-I 0 W/m 7,8 C 17,2 C 3,2 km/h (1 Bft) 94,34 %
10.04.2017 20:08 17,1 C 54 % 1013,5 hPa 0,0 l/m 2,1 km/h (1 Bft) S 175 0 min 0,000 mm 0,0 UV-I 0 W/m 7,7 C 17,1 C 4,8 km/h (1 Bft) 91,67 %
10.04.2017 20:10 16,9 C 55 % 1013,5 hPa 0,0 l/m 2,2 km/h (1 Bft) S 169 0 min 0,000 mm 0,0 UV-I 0 W/m 7,8 C 16,9 C 6,4 km/h (2 Bft) 94,83 %
10.04.2017 20:12 16,8 C 56 % 1013,6 hPa 0,0 l/m 4,3 km/h (1 Bft) S 190 0 min 0,000 mm 0,0 UV-I 0 W/m 8,0 C 16,8 C 9,7 km/h (2 Bft) 95,24 %
10.04.2017 20:14 16,7 C 56 % 1013,7 hPa 0,0 l/m 5,2 km/h (1 Bft) S 173 0 min 0,000 mm 0,0 UV-I 0 W/m 7,9 C 16,7 C 8,0 km/h (2 Bft) 94,23 %
10.04.2017 20:16 16,6 C 57 % 1013,7 hPa 0,0 l/m 5,8 km/h (2 Bft) S 190 0 min 0,000 mm 0,0 UV-I 0 W/m 8,0 C 16,6 C 9,7 km/h (2 Bft) 93,75 %
10.04.2017 20:18 16,6 C 56 % 1013,7 hPa 0,0 l/m 5,6 km/h (1 Bft) S-SW 198 0 min 0,000 mm 0,0 UV-I 0 W/m 7,8 C 16,6 C 9,7 km/h (2 Bft) 94,92 %
10.04.2017 20:20 16,6 C 56 % 1013,7 hPa 0,0 l/m 5,4 km/h (1 Bft) S-SW 208 0 min 0,000 mm 0,0 UV-I 0 W/m 7,8 C 16,6 C 9,7 km/h (2 Bft) 97,73 %
10.04.2017 20:22 16,6 C 56 % 1013,7 hPa 0,0 l/m 6,5 km/h (2 Bft) S-SW 210 0 min 0,000 mm 0,0 UV-I 0 W/m 7,8 C 16,6 C 11,3 km/h (2 Bft) 92,00 %
10.04.2017 20:24 16,5 C 57 % 1013,8 hPa 0,0 l/m 7,2 km/h (2 Bft) S-SW 205 0 min 0,000 mm 0,0 UV-I 0 W/m 8,0 C 16,1 C 9,7 km/h (2 Bft) 96,00 %
10.04.2017 20:26 16,4 C 58 % 1013,8 hPa 0,0 l/m 5,2 km/h (1 Bft) S 188 0 min 0,000 mm 0,0 UV-I 0 W/m 8,1 C 16,4 C 9,7 km/h (2 Bft) 90,24 %
10.04.2017 20:28 16,3 C 58 % 1013,8 hPa 0,0 l/m 6,2 km/h (2 Bft) S-SW 209 0 min 0,000 mm 0,0 UV-I 0 W/m 8,0 C 16,3 C 9,7 km/h (2 Bft) 98,00 %
10.04.2017 20:30 16,2 C 58 % 1013,9 hPa 0,0 l/m 5,6 km/h (1 Bft) S-SW 197 0 min 0,000 mm 0,0 UV-I 0 W/m 7,9 C 16,2 C 9,7 km/h (2 Bft) 98,00 %
10.04.2017 20:32 16,2 C 58 % 1013,9 hPa 0,0 l/m 5,4 km/h (1 Bft) S-SW 211 0 min 0,000 mm 0,0 UV-I 0 W/m 7,9 C 16,2 C 8,0 km/h (2 Bft) 94,00 %
10.04.2017 20:34 16,2 C 58 % 1013,9 hPa 0,0 l/m 5,3 km/h (1 Bft) S-SW 200 0 min 0,000 mm 0,0 UV-I 0 W/m 7,9 C 16,2 C 6,4 km/h (2 Bft) 97,37 %
10.04.2017 20:36 16,1 C 58 % 1013,9 hPa 0,0 l/m 3,5 km/h (1 Bft) S 169 0 min 0,000 mm 0,0 UV-I 0 W/m 7,8 C 16,1 C 6,4 km/h (2 Bft) 92,45 %
10.04.2017 20:38 16,2 C 57 % 1013,9 hPa 0,0 l/m 4,8 km/h (1 Bft) S-SO 165 0 min 0,000 mm 0,0 UV-I 0 W/m 7,7 C 16,2 C 11,3 km/h (2 Bft) 88,57 %
10.04.2017 20:40 16,3 C 55 % 1013,9 hPa 0,0 l/m 5,1 km/h (1 Bft) S-SO 163 0 min 0,000 mm 0,0 UV-I 0 W/m 7,2 C 16,3 C 12,9 km/h (3 Bft) 91,07 %
10.04.2017 20:42 16,4 C 55 % 1014,0 hPa 0,0 l/m 6,5 km/h (2 Bft) S 170 0 min 0,000 mm 0,0 UV-I 0 W/m 7,3 C 16,4 C 9,7 km/h (2 Bft) 95,74 %
10.04.2017 20:44 16,5 C 56 % 1014,0 hPa 0,0 l/m 5,9 km/h (2 Bft) S-SW 210 0 min 0,000 mm 0,0 UV-I 0 W/m 7,7 C 16,5 C 8,0 km/h (2 Bft) 92,00 %
10.04.2017 20:46 16,4 C 58 % 1014,0 hPa 0,0 l/m 4,1 km/h (1 Bft) S-SO 168 0 min 0,000 mm 0,0 UV-I 0 W/m 8,1 C 16,4 C 8,0 km/h (2 Bft) 95,74 %
10.04.2017 20:48 16,3 C 57 % 1013,8 hPa 0,0 l/m 4,1 km/h (1 Bft) S 175 0 min 0,000 mm 0,0 UV-I 0 W/m 7,8 C 16,3 C 9,7 km/h (2 Bft) 94,74 %
10.04.2017 20:50 16,3 C 59 % 1013,9 hPa 0,0 l/m 5,2 km/h (1 Bft) S-SO 163 0 min 0,000 mm 0,0 UV-I 0 W/m 8,3 C 16,3 C 9,7 km/h (2 Bft) 94,00 %
10.04.2017 20:52 16,2 C 59 % 1013,9 hPa 0,0 l/m 4,7 km/h (1 Bft) S-SO 162 0 min 0,000 mm 0,0 UV-I 0 W/m 8,2 C 16,2 C 8,0 km/h (2 Bft) 88,68 %
10.04.2017 20:54 16,2 C 59 % 1013,9 hPa 0,0 l/m 5,1 km/h (1 Bft) S-SW 197 0 min 0,000 mm 0,0 UV-I 0 W/m 8,2 C 16,2 C 8,0 km/h (2 Bft) 93,62 %
10.04.2017 20:56 16,1 C 59 % 1013,9 hPa 0,0 l/m 6,2 km/h (2 Bft) S 185 0 min 0,000 mm 0,0 UV-I 0 W/m 8,1 C 16,1 C 9,7 km/h (2 Bft) 97,44 %
10.04.2017 20:58 16,1 C 60 % 1013,8 hPa 0,0 l/m 6,4 km/h (2 Bft) S-SO 158 0 min 0,000 mm 0,0 UV-I 0 W/m 8,3 C 16,1 C 11,3 km/h (2 Bft) 93,62 %
10.04.2017 21:00 16,0 C 60 % 1013,9 hPa 0,0 l/m 5,4 km/h (1 Bft) S 186 0 min 0,000 mm 0,0 UV-I 0 W/m 8,2 C 16,0 C 9,7 km/h (2 Bft) 96,00 %
10.04.2017 21:02 16,0 C 60 % 1013,9 hPa 0,0 l/m 7,6 km/h (2 Bft) S-SO 159 0 min 0,025 mm 0,0 UV-I 0 W/m 8,2 C 15,4 C 14,5 km/h (3 Bft) 91,49 %
10.04.2017 21:04 16,0 C 60 % 1013,8 hPa 0,0 l/m 6,7 km/h (2 Bft) S-SW 201 0 min 0,000 mm 0,0 UV-I 0 W/m 8,2 C 15,8 C 11,3 km/h (2 Bft) 95,12 %
10.04.2017 21:06 15,9 C 60 % 1013,9 hPa 0,0 l/m 7,4 km/h (2 Bft) S-SW 196 0 min 0,000 mm 0,0 UV-I 0 W/m 8,1 C 15,4 C 11,3 km/h (2 Bft) 98,21 %
10.04.2017 21:08 15,9 C 61 % 1013,8 hPa 0,0 l/m 7,2 km/h (2 Bft) S-SW 201 0 min 0,000 mm 0,0 UV-I 0 W/m 8,4 C 15,5 C 9,7 km/h (2 Bft) 84,62 %
10.04.2017 21:10 15,8 C 61 % 1013,8 hPa 0,0 l/m 6,9 km/h (2 Bft) S-SW 207 0 min 0,000 mm 0,0 UV-I 0 W/m 8,3 C 15,5 C 9,7 km/h (2 Bft) 98,31 %
10.04.2017 21:12 15,7 C 62 % 1013,8 hPa 0,0 l/m 5,6 km/h (1 Bft) SW 215 0 min 0,000 mm 0,0 UV-I 0 W/m 8,4 C 15,7 C 8,0 km/h (2 Bft) 97,87 %
10.04.2017 21:14 15,6 C 63 % 1013,8 hPa 0,0 l/m 4,6 km/h (1 Bft) S 186 0 min 0,000 mm 0,0 UV-I 0 W/m 8,6 C 15,6 C 9,7 km/h (2 Bft) 98,11 %
10.04.2017 21:16 15,4 C 63 % 1013,8 hPa 0,0 l/m 5,3 km/h (1 Bft) S-SO 156 0 min 0,000 mm 0,0 UV-I 0 W/m 8,4 C 15,4 C 9,7 km/h (2 Bft) 95,12 %
10.04.2017 21:18 15,4 C 63 % 1013,9 hPa 0,0 l/m 6,1 km/h (2 Bft) SW 227 0 min 0,000 mm 0,0 UV-I 0 W/m 8,4 C 15,4 C 9,7 km/h (2 Bft) 100,00 %
10.04.2017 21:20 15,3 C 63 % 1014,0 hPa 0,0 l/m 4,7 km/h (1 Bft) SW 228 0 min 0,000 mm 0,0 UV-I 0 W/m 8,3 C 15,3 C 6,4 km/h (2 Bft) 100,00 %
10.04.2017 21:22 15,3 C 63 % 1014,0 hPa 0,0 l/m 3,9 km/h (1 Bft) S-SW 200 0 min 0,000 mm 0,0 UV-I 0 W/m 8,3 C 15,3 C 6,4 km/h (2 Bft) 100,00 %
10.04.2017 21:24 15,2 C 64 % 1014,0 hPa 0,0 l/m 5,6 km/h (1 Bft) S 189 0 min 0,000 mm 0,0 UV-I 0 W/m 8,4 C 15,2 C 8,0 km/h (2 Bft) 98,00 %
10.04.2017 21:26 15,2 C 64 % 1014,0 hPa 0,0 l/m 4,9 km/h (1 Bft) S-SW 194 0 min 0,000 mm 0,0 UV-I 0 W/m 8,4 C 15,2 C 8,0 km/h (2 Bft) 97,56 %
10.04.2017 21:28 15,1 C 65 % 1014,1 hPa 0,0 l/m 5,4 km/h (1 Bft) S-SW 207 0 min 0,000 mm 0,0 UV-I 0 W/m 8,6 C 15,1 C 9,7 km/h (2 Bft) 98,00 %
10.04.2017 21:30 15,0 C 65 % 1014,1 hPa 0,0 l/m 6,3 km/h (2 Bft) SW 229 0 min 0,000 mm 0,0 UV-I 0 W/m 8,5 C 15,0 C 9,7 km/h (2 Bft) 95,24 %
10.04.2017 21:32 14,9 C 65 % 1014,1 hPa 0,0 l/m 6,8 km/h (2 Bft) S-SW 212 0 min 0,000 mm 0,0 UV-I 0 W/m 8,4 C 14,7 C 11,3 km/h (2 Bft) 98,08 %
10.04.2017 21:34 14,8 C 66 % 1014,1 hPa 0,0 l/m 6,8 km/h (2 Bft) SW 219 0 min 0,000 mm 0,0 UV-I 0 W/m 8,5 C 14,6 C 11,3 km/h (2 Bft) 95,24 %
10.04.2017 21:36 14,8 C 66 % 1014,1 hPa 0,0 l/m 5,9 km/h (2 Bft) S-SW 206 0 min 0,000 mm 0,0 UV-I 0 W/m 8,5 C 14,8 C 9,7 km/h (2 Bft) 96,43 %
10.04.2017 21:38 14,8 C 66 % 1014,1 hPa 0,0 l/m 5,7 km/h (1 Bft) S-SW 209 0 min 0,000 mm 0,0 UV-I 0 W/m 8,5 C 14,8 C 8,0 km/h (2 Bft) 97,56 %
10.04.2017 21:40 14,7 C 66 % 1014,1 hPa 0,0 l/m 4,3 km/h (1 Bft) S-SW 196 0 min 0,000 mm 0,0 UV-I 0 W/m 8,4 C 14,7 C 6,4 km/h (2 Bft) 98,11 %
10.04.2017 21:42 14,7 C 66 % 1014,1 hPa 0,0 l/m 6,8 km/h (2 Bft) SW 236 0 min 0,000 mm 0,0 UV-I 0 W/m 8,4 C 14,5 C 11,3 km/h (2 Bft) 94,74 %
10.04.2017 21:44 14,7 C 66 % 1014,1 hPa 0,0 l/m 7,7 km/h (2 Bft) SW 219 0 min 0,000 mm 0,0 UV-I 0 W/m 8,4 C 14,0 C 12,9 km/h (3 Bft) 97,56 %
10.04.2017 21:46 14,8 C 66 % 1014,2 hPa 0,0 l/m 9,1 km/h (2 Bft) S-SW 203 0 min 0,000 mm 0,0 UV-I 0 W/m 8,5 C 13,3 C 11,3 km/h (2 Bft) 97,37 %
10.04.2017 21:48 14,8 C 66 % 1014,2 hPa 0,0 l/m 8,3 km/h (2 Bft) SW 226 0 min 0,000 mm 0,0 UV-I 0 W/m 8,5 C 13,7 C 12,9 km/h (3 Bft) 93,85 %
10.04.2017 21:50 14,8 C 66 % 1014,2 hPa 0,0 l/m 10,9 km/h (2 Bft) SW 231 0 min 0,000 mm 0,0 UV-I 0 W/m 8,5 C 12,5 C 16,1 km/h (3 Bft) 96,23 %
10.04.2017 21:52 14,9 C 66 % 1014,2 hPa 0,0 l/m 9,4 km/h (2 Bft) SW 216 0 min 0,000 mm 0,0 UV-I 0 W/m 8,6 C 13,3 C 16,1 km/h (3 Bft) 97,73 %
10.04.2017 21:54 14,9 C 65 % 1014,2 hPa 0,0 l/m 10,7 km/h (2 Bft) SW 229 0 min 0,000 mm 0,0 UV-I 0 W/m 8,4 C 12,7 C 16,1 km/h (3 Bft) 92,11 %
10.04.2017 21:56 15,1 C 64 % 1014,2 hPa 0,0 l/m 11,5 km/h (2 Bft) S-SW 199 0 min 0,000 mm 0,0 UV-I 0 W/m 8,3 C 12,6 C 17,7 km/h (3 Bft) 94,34 %
10.04.2017 21:58 15,2 C 65 % 1014,2 hPa 0,0 l/m 10,6 km/h (2 Bft) SW 216 0 min 0,000 mm 0,0 UV-I 0 W/m 8,7 C 13,1 C 14,5 km/h (3 Bft) 94,00 %
10.04.2017 22:00 15,2 C 65 % 1014,2 hPa 0,0 l/m 9,5 km/h (2 Bft) S-SW 200 0 min 0,000 mm 0,0 UV-I 0 W/m 8,7 C 13,6 C 17,7 km/h (3 Bft) 94,74 %
10.04.2017 22:03 15,2 C 65 % 1014,3 hPa 0,0 l/m 11,9 km/h (2 Bft) SW 214 0 min 0,051 mm 0,0 UV-I 0 W/m 8,7 C 12,5 C 20,9 km/h (4 Bft) 97,18 %
10.04.2017 22:04 15,2 C 65 % 1014,3 hPa 0,0 l/m 12,3 km/h (3 Bft) S-SW 208 0 min 0,000 mm 0,0 UV-I 0 W/m 8,7 C 12,4 C 14,5 km/h (3 Bft) 96,15 %
10.04.2017 22:06 15,2 C 65 % 1014,3 hPa 0,0 l/m 12,6 km/h (3 Bft) S-SW 210 0 min 0,000 mm 0,0 UV-I 0 W/m 8,7 C 12,3 C 16,1 km/h (3 Bft) 95,56 %
10.04.2017 22:08 15,2 C 65 % 1014,3 hPa 0,0 l/m 10,9 km/h (2 Bft) SW 225 0 min 0,000 mm 0,0 UV-I 0 W/m 8,7 C 12,9 C 16,1 km/h (3 Bft) 92,73 %
10.04.2017 22:10 15,1 C 65 % 1014,3 hPa 0,0 l/m 11,6 km/h (2 Bft) W-SW 239 0 min 0,000 mm 0,0 UV-I 0 W/m 8,6 C 12,5 C 19,3 km/h (3 Bft) 97,56 %
10.04.2017 22:12 15,1 C 65 % 1014,2 hPa 0,0 l/m 10,7 km/h (2 Bft) SW 219 0 min 0,000 mm 0,0 UV-I 0 W/m 8,6 C 12,9 C 16,1 km/h (3 Bft) 98,11 %
10.04.2017 22:14 15,1 C 64 % 1014,2 hPa 0,0 l/m 12,4 km/h (3 Bft) S-SW 192 0 min 0,000 mm 0,0 UV-I 0 W/m 8,3 C 12,2 C 17,7 km/h (3 Bft) 96,55 %
10.04.2017 22:16 15,1 C 65 % 1014,2 hPa 0,0 l/m 10,3 km/h (2 Bft) S-SW 201 0 min 0,000 mm 0,0 UV-I 0 W/m 8,6 C 13,1 C 14,5 km/h (3 Bft) 100,00 %
10.04.2017 22:18 15,1 C 64 % 1014,2 hPa 0,0 l/m 10,6 km/h (2 Bft) SW 219 0 min 0,000 mm 0,0 UV-I 0 W/m 8,3 C 13,0 C 16,1 km/h (3 Bft) 98,21 %
10.04.2017 22:20 15,1 C 63 % 1014,2 hPa 0,0 l/m 9,9 km/h (2 Bft) S-SW 207 0 min 0,000 mm 0,0 UV-I 0 W/m 8,1 C 13,3 C 14,5 km/h (3 Bft) 100,00 %
10.04.2017 22:22 15,2 C 63 % 1014,3 hPa 0,0 l/m 9,8 km/h (2 Bft) SW 228 0 min 0,000 mm 0,0 UV-I 0 W/m 8,2 C 13,4 C 14,5 km/h (3 Bft) 100,00 %
10.04.2017 22:24 15,2 C 63 % 1014,2 hPa 0,0 l/m 9,8 km/h (2 Bft) S-SW 202 0 min 0,000 mm 0,0 UV-I 0 W/m 8,2 C 13,4 C 16,1 km/h (3 Bft) 100,00 %
10.04.2017 22:26 15,1 C 63 % 1014,2 hPa 0,0 l/m 8,6 km/h (2 Bft) S-SW 211 0 min 0,000 mm 0,0 UV-I 0 W/m 8,1 C 13,9 C 11,3 km/h (2 Bft) 98,00 %
10.04.2017 22:28 15,1 C 63 % 1014,2 hPa 0,0 l/m 8,4 km/h (2 Bft) SW 215 0 min 0,000 mm 0,0 UV-I 0 W/m 8,1 C 14,0 C 11,3 km/h (2 Bft) 100,00 %
10.04.2017 22:30 15,1 C 63 % 1014,2 hPa 0,0 l/m 6,7 km/h (2 Bft) SW 219 0 min 0,000 mm 0,0 UV-I 0 W/m 8,1 C 14,9 C 11,3 km/h (2 Bft) 97,73 %
10.04.2017 22:32 15,1 C 64 % 1014,2 hPa 0,0 l/m 7,8 km/h (2 Bft) SW 219 0 min 0,000 mm 0,0 UV-I 0 W/m 8,3 C 14,3 C 12,9 km/h (3 Bft) 100,00 %
10.04.2017 22:34 14,9 C 64 % 1014,2 hPa 0,0 l/m 6,8 km/h (2 Bft) SW 215 0 min 0,000 mm 0,0 UV-I 0 W/m 8,2 C 14,7 C 9,7 km/h (2 Bft) 97,73 %
10.04.2017 22:36 14,8 C 65 % 1014,2 hPa 0,0 l/m 7,5 km/h (2 Bft) S-SW 212 0 min 0,000 mm 0,0 UV-I 0 W/m 8,3 C 14,2 C 11,3 km/h (2 Bft) 100,00 %
10.04.2017 22:38 14,7 C 65 % 1014,2 hPa 0,0 l/m 6,8 km/h (2 Bft) S-SW 198 0 min 0,000 mm 0,0 UV-I 0 W/m 8,2 C 14,5 C 11,3 km/h (2 Bft) 95,12 %
10.04.2017 22:40 14,6 C 65 % 1014,2 hPa 0,0 l/m 8,0 km/h (2 Bft) SW 215 0 min 0,000 mm 0,0 UV-I 0 W/m 8,1 C 13,7 C 12,9 km/h (3 Bft) 98,21 %
10.04.2017 22:42 14,6 C 65 % 1014,1 hPa 0,0 l/m 9,1 km/h (2 Bft) S-SW 207 0 min 0,000 mm 0,0 UV-I 0 W/m 8,1 C 13,1 C 12,9 km/h (3 Bft) 97,37 %
10.04.2017 22:44 14,6 C 65 % 1014,1 hPa 0,0 l/m 7,1 km/h (2 Bft) SW 218 0 min 0,000 mm 0,0 UV-I 0 W/m 8,1 C 14,2 C 12,9 km/h (3 Bft) 98,11 %
10.04.2017 22:46 14,6 C 65 % 1014,1 hPa 0,0 l/m 7,8 km/h (2 Bft) S-SW 193 0 min 0,000 mm 0,0 UV-I 0 W/m 8,1 C 13,8 C 12,9 km/h (3 Bft) 98,00 %
10.04.2017 22:48 14,6 C 65 % 1014,1 hPa 0,0 l/m 7,3 km/h (2 Bft) S-SW 202 0 min 0,000 mm 0,0 UV-I 0 W/m 8,1 C 14,1 C 9,7 km/h (2 Bft) 97,73 %
10.04.2017 22:50 14,5 C 65 % 1014,1 hPa 0,0 l/m 8,4 km/h (2 Bft) S-SW 207 0 min 0,000 mm 0,0 UV-I 0 W/m 8,0 C 13,4 C 12,9 km/h (3 Bft) 100,00 %
10.04.2017 22:52 14,4 C 65 % 1014,1 hPa 0,0 l/m 7,4 km/h (2 Bft) SW 218 0 min 0,000 mm 0,0 UV-I 0 W/m 7,9 C 13,8 C 11,3 km/h (2 Bft) 97,87 %
10.04.2017 22:54 14,4 C 65 % 1014,1 hPa 0,0 l/m 6,7 km/h (2 Bft) S-SW 201 0 min 0,000 mm 0,0 UV-I 0 W/m 7,9 C 14,2 C 12,9 km/h (3 Bft) 100,00 %
10.04.2017 22:56 14,4 C 65 % 1014,1 hPa 0,0 l/m 6,3 km/h (2 Bft) S-SW 199 0 min 0,000 mm 0,0 UV-I 0 W/m 7,9 C 14,4 C 9,7 km/h (2 Bft) 98,00 %
10.04.2017 22:58 14,3 C 66 % 1014,1 hPa 0,0 l/m 5,2 km/h (1 Bft) S-SW 204 0 min 0,000 mm 0,0 UV-I 0 W/m 8,0 C 14,3 C 9,7 km/h (2 Bft) 97,87 %
10.04.2017 23:00 14,3 C 65 % 1014,1 hPa 0,0 l/m 7,2 km/h (2 Bft) S 175 0 min 0,000 mm 0,0 UV-I 0 W/m 7,8 C 13,8 C 11,3 km/h (2 Bft) 100,00 %
10.04.2017 23:02 14,3 C 65 % 1014,1 hPa 0,0 l/m 6,8 km/h (2 Bft) S-SW 193 0 min 0,051 mm 0,0 UV-I 0 W/m 7,8 C 14,1 C 9,7 km/h (2 Bft) 100,00 %
10.04.2017 23:04 14,3 C 65 % 1014,1 hPa 0,0 l/m 6,8 km/h (2 Bft) S-SW 209 0 min 0,000 mm 0,0 UV-I 0 W/m 7,8 C 14,1 C 9,7 km/h (2 Bft) 100,00 %
10.04.2017 23:06 14,3 C 65 % 1014,1 hPa 0,0 l/m 7,8 km/h (2 Bft) S-SW 209 0 min 0,000 mm 0,0 UV-I 0 W/m 7,8 C 13,5 C 11,3 km/h (2 Bft) 100,00 %
10.04.2017 23:08 14,3 C 64 % 1014,1 hPa 0,0 l/m 8,6 km/h (2 Bft) S-SW 192 0 min 0,000 mm 0,0 UV-I 0 W/m 7,6 C 13,0 C 14,5 km/h (3 Bft) 100,00 %
10.04.2017 23:10 14,3 C 64 % 1014,1 hPa 0,0 l/m 7,3 km/h (2 Bft) S-SW 212 0 min 0,000 mm 0,0 UV-I 0 W/m 7,6 C 13,8 C 9,7 km/h (2 Bft) 98,00 %
10.04.2017 23:12 14,4 C 64 % 1014,1 hPa 0,0 l/m 7,9 km/h (2 Bft) S-SW 200 0 min 0,000 mm 0,0 UV-I 0 W/m 7,7 C 13,5 C 11,3 km/h (2 Bft) 100,00 %
10.04.2017 23:14 14,4 C 64 % 1014,1 hPa 0,0 l/m 6,3 km/h (2 Bft) SW 227 0 min 0,000 mm 0,0 UV-I 0 W/m 7,7 C 14,4 C 9,7 km/h (2 Bft) 96,23 %
10.04.2017 23:16 14,3 C 64 % 1014,1 hPa 0,0 l/m 6,3 km/h (2 Bft) S-SW 205 0 min 0,000 mm 0,0 UV-I 0 W/m 7,6 C 14,3 C 12,9 km/h (3 Bft) 100,00 %
10.04.2017 23:18 14,3 C 65 % 1014,1 hPa 0,0 l/m 6,1 km/h (2 Bft) S-SW 202 0 min 0,000 mm 0,0 UV-I 0 W/m 7,8 C 14,3 C 9,7 km/h (2 Bft) 97,67 %
10.04.2017 23:20 14,2 C 65 % 1014,1 hPa 0,0 l/m 7,5 km/h (2 Bft) S-SW 210 0 min 0,000 mm 0,0 UV-I 0 W/m 7,7 C 13,5 C 11,3 km/h (2 Bft) 100,00 %
10.04.2017 23:22 14,2 C 65 % 1014,0 hPa 0,0 l/m 7,0 km/h (2 Bft) S-SW 196 0 min 0,000 mm 0,0 UV-I 0 W/m 7,7 C 13,8 C 9,7 km/h (2 Bft) 97,96 %
10.04.2017 23:24 14,2 C 65 % 1014,1 hPa 0,0 l/m 6,5 km/h (2 Bft) SW 225 0 min 0,000 mm 0,0 UV-I 0 W/m 7,7 C 14,2 C 9,7 km/h (2 Bft) 95,74 %
10.04.2017 23:26 14,2 C 65 % 1014,1 hPa 0,0 l/m 6,3 km/h (2 Bft) S-SW 209 0 min 0,000 mm 0,0 UV-I 0 W/m 7,7 C 14,2 C 11,3 km/h (2 Bft) 100,00 %
10.04.2017 23:28 14,1 C 65 % 1014,1 hPa 0,0 l/m 6,9 km/h (2 Bft) SW 215 0 min 0,000 mm 0,0 UV-I 0 W/m 7,6 C 13,8 C 9,7 km/h (2 Bft) 96,23 %
10.04.2017 23:30 14,0 C 65 % 1014,1 hPa 0,0 l/m 6,5 km/h (2 Bft) S-SW 213 0 min 0,000 mm 0,0 UV-I 0 W/m 7,5 C 14,0 C 9,7 km/h (2 Bft) 100,00 %
10.04.2017 23:32 14,0 C 65 % 1014,0 hPa 0,0 l/m 6,9 km/h (2 Bft) S-SW 212 0 min 0,000 mm 0,0 UV-I 0 W/m 7,5 C 13,7 C 9,7 km/h (2 Bft) 100,00 %
10.04.2017 23:34 13,9 C 66 % 1014,0 hPa 0,0 l/m 7,2 km/h (2 Bft) SW 215 0 min 0,000 mm 0,0 UV-I 0 W/m 7,7 C 13,4 C 11,3 km/h (2 Bft) 100,00 %
10.04.2017 23:36 13,9 C 66 % 1014,0 hPa 0,0 l/m 6,1 km/h (2 Bft) S-SW 200 0 min 0,000 mm 0,0 UV-I 0 W/m 7,7 C 13,9 C 9,7 km/h (2 Bft) 97,87 %
10.04.2017 23:38 13,9 C 66 % 1014,0 hPa 0,0 l/m 7,4 km/h (2 Bft) SW 214 0 min 0,000 mm 0,0 UV-I 0 W/m 7,7 C 13,3 C 9,7 km/h (2 Bft) 100,00 %
10.04.2017 23:40 13,8 C 66 % 1014,0 hPa 0,0 l/m 5,9 km/h (2 Bft) S-SW 210 0 min 0,000 mm 0,0 UV-I 0 W/m 7,6 C 13,8 C 8,0 km/h (2 Bft) 97,56 %
10.04.2017 23:42 13,8 C 66 % 1014,0 hPa 0,0 l/m 5,5 km/h (1 Bft) S-SW 202 0 min 0,000 mm 0,0 UV-I 0 W/m 7,6 C 13,8 C 8,0 km/h (2 Bft) 98,11 %
10.04.2017 23:44 13,8 C 66 % 1014,0 hPa 0,0 l/m 5,1 km/h (1 Bft) S-SW 202 0 min 0,000 mm 0,0 UV-I 0 W/m 7,6 C 13,8 C 8,0 km/h (2 Bft) 92,31 %
10.04.2017 23:46 13,8 C 66 % 1014,0 hPa 0,0 l/m 6,0 km/h (2 Bft) S-SW 210 0 min 0,000 mm 0,0 UV-I 0 W/m 7,6 C 13,8 C 9,7 km/h (2 Bft) 98,21 %
10.04.2017 23:48 13,8 C 66 % 1013,9 hPa 0,0 l/m 6,7 km/h (2 Bft) S-SW 209 0 min 0,000 mm 0,0 UV-I 0 W/m 7,6 C 13,6 C 9,7 km/h (2 Bft) 95,74 %
10.04.2017 23:50 13,8 C 66 % 1013,9 hPa 0,0 l/m 5,9 km/h (2 Bft) SW 215 0 min 0,000 mm 0,0 UV-I 0 W/m 7,6 C 13,8 C 8,0 km/h (2 Bft) 94,00 %
10.04.2017 23:52 13,7 C 66 % 1013,9 hPa 0,0 l/m 5,2 km/h (1 Bft) S-SW 204 0 min 0,000 mm 0,0 UV-I 0 W/m 7,5 C 13,7 C 8,0 km/h (2 Bft) 97,73 %
10.04.2017 23:54 13,7 C 66 % 1013,9 hPa 0,0 l/m 4,6 km/h (1 Bft) S-SW 198 0 min 0,000 mm 0,0 UV-I 0 W/m 7,5 C 13,7 C 8,0 km/h (2 Bft) 94,64 %
10.04.2017 23:56 13,6 C 66 % 1013,9 hPa 0,0 l/m 4,4 km/h (1 Bft) S-SW 204 0 min 0,000 mm 0,0 UV-I 0 W/m 7,4 C 13,6 C 6,4 km/h (2 Bft) 95,74 %
10.04.2017 23:58 13,6 C 66 % 1013,8 hPa 0,0 l/m 5,9 km/h (2 Bft) S-SW 205 0 min 0,000 mm 0,0 UV-I 0 W/m 7,4 C 13,6 C 9,7 km/h (2 Bft) 94,74 %
_ Min-Zeit 06:26 16:08 20:00 - 00:00 - - - - - - 06:24 06:24 00:00 21:08
Minimum _ 4,2 C 38 % 1013,4 hPa - 0,0 km/h (0 Bft) - - - - - - 3,4 C 4,3 C 0,0 km/h (0 Bft) 84,62 %
_ Max-Zeit 16:00 07:22 00:00 00:00 16:08 - - 11:03 14:00 12:39 12:52 14:28 16:12 16:04 00:00
Maximum _ 23,4 C 96 % 1021,9 hPa 0,0 l/m 16,0 km/h
W-NW (3 Bft)
- - 3 min 0,457 mm 4,2 UV-I 775 W/m 12,3 C 23,3 C 27,4 km/h
W (4 Bft)
100,00 %
Durchschnitt _ 13,3 C 71 % 1017,6 hPa #0,0 l/m 3,3 km/h (1 Bft) S-SW - #11:40 h #3,607 mm 2,6 UV-I 425 W/m 7,5 C 13,1 C 6,0 km/h (2 Bft) 96,60 %